     2              OBSERVATION DATA    GPS                 RINEX VERSION / TYPE
teqc 2000Feb29 20020411 18:54:19UTC                         PGM / RUN BY / DATE
                                                            COMMENT
L2: 1 -> 1; 150 -> 5; 250 -> 9                              COMMENT
L2: 1 -> 1; 150 -> 5; 250 -> 9                              COMMENT
L2: 1 -> 1; 150 -> 5; 250 -> 9                              COMMENT
L2: 1 -> 1; 150 -> 5; 250 -> 9                              COMMENT
L2: 1 -> 1; 150 -> 5; 250 -> 9                              COMMENT
Original Marker Name: RM#1                                  COMMENT
Campaign Name: Northern Baja                                COMMENT
4-Character Station Name: RM01                              COMMENT
6-Character Antenna Code: DMRCHT                            COMMENT
Vertical Measurement Point: BCR                             COMMENT
Vertical Offset to Rinex Ref. Point: 0.0348                 COMMENT
Radial Measurement Point: ECF                               COMMENT
Radial Offset to Rinex Ref. Point: 0.1897                   COMMENT
Antenna Height from Field Measurement: 1.2703 m             COMMENT
Additional Antenna Identification Info.:                    COMMENT
Turborogue and Ashtech Choke Ring                           COMMENT
Original XYZ: -2352720.1260 -4940170.1447 3271608.0883      COMMENT
New XYZ position is based on association with SCEC monument COMMENT
E1C2W4P4+0111. Position of that monument is believed to be  COMMENT
valid to within 1 m horizontally; vertical accuracy         COMMENT
should be no worse than 3-times this value.                 COMMENT
                                                            COMMENT
Revised Rinex header created by UCSD GPS archive for        COMMENT
GSAC on 17-Jul-2003 (2003:198) 20:49:31 GMT                 COMMENT
For assistance contact dagnew@ucsd.edu                      COMMENT
or anderson@python.ucsd.edu                                 COMMENT
                                                            COMMENT
GPS 3035-RM1                                                MARKER NAME
JGG CICESE (ENSENADA)                                       OBSERVER / AGENCY
386 ASHTECH Z-XII3 CD00                                     REC # / TYPE / VERS
14689 DORNE-MARGOL. TYPE T                                  ANT # / TYPE
 -2433341.1418 -4844915.6856  3348414.7855                  APPROX POSITION XYZ
        1.2213        0.0000        0.0000                  ANTENNA: DELTA H/E/N
     1     1     0                                          WAVELENGTH FACT L1/2
     7    C1    L1    L2    P1    P2    S1    S2            # / TYPES OF OBSERV
     0                                                      INTERVAL
  2002     1    21     2    33    0.000000                  TIME OF FIRST OBS
  2002     1    21    23    59   30.000000                  TIME OF LAST OBS
                                                            END OF HEADER
 02  1 21  2 33  0.0000000  0  1G17
  22223553.956     -130602.76149    -95444.82147  22223553.334    22223563.201
       237.000         195.000
 02  1 21  2 33 30.0000000  0  1G17
  22132491.643     -609138.15449   -468329.40447  22132491.315    22132500.519
       237.000         195.000
 02  1 21  2 34  0.0000000  0  1G17
  22124567.950     -650778.23549   -500776.08747  22124566.931    22124576.679
       236.000         195.000
 02  1 21  2 34 30.0000000  0  1G17
  22116672.683     -692267.66649   -533105.39247  22116671.807    22116681.101
       237.000         195.000
 02  1 21  2 35  0.0000000  0  1G17
  22108805.848     -733607.84249   -565318.39147  22108804.833    22108814.204
       236.000         195.000
 02  1 21  2 35 30.0000000  0  1G17
  22100967.315     -774799.15449   -597415.39347  22100966.399    22100975.689
       238.000         195.000
 02  1 21  2 36  0.0000000  0  1G17
  22093157.095     -815841.97749   -629396.69547  22093156.536    22093165.440
       237.000         196.000
 02  1 21  2 36 30.0000000  0  1G17
  22085374.906     -856737.35249   -661263.09147  22085373.924    22085383.279
       237.000         196.000
 02  1 21  2 37  0.0000000  0  1G17
  22077620.785     -897485.17249   -693014.51047  22077619.942    22077628.867
       237.000         196.000
 02  1 21  2 37 30.0000000  0  1G17
  22069894.617     -938086.20749   -724651.55947  22069893.511    22069902.831
       237.000         196.000
 02  1 21  2 38  0.0000000  0  1G17
  22062196.256     -978540.70749   -756174.42147  22062195.260    22062204.319
       237.000         196.000
 02  1 21  2 38 30.0000000  0  1G17
  22054525.601    -1018849.52949   -787583.77447  22054524.740    22054534.010
       237.000         196.000
 02  1 21  2 39  0.0000000  0  1G17
  22046882.643    -1059013.04149   -818879.90147  22046881.382    22046890.884
       236.000         197.000
 02  1 21  2 39 30.0000000  0  1G17
  22039267.263    -1099031.63049   -850063.09847  22039266.713    22039275.900
       237.000         197.000
 02  1 21  2 40  0.0000000  0  1G17
  22031679.352    -1138906.15249   -881134.03147  22031678.426    22031687.447
       238.000         197.000
 02  1 21  2 40 30.0000000  0  2G17G10
  22024118.742    -1178637.07049   -912093.06747  22024117.781    22024126.964
       237.000         197.000
                   -387060.41149   -320183.36346                  22575181.604
       231.000         166.000
 02  1 21  2 41  0.0000000  0  2G17G10
  22016585.402    -1218224.51949   -942940.30447  22016584.386    22016593.421
       238.000         197.000
  22592245.543     -297348.82549   -250278.23446  22592244.005    22592252.713
       230.000         177.000
 02  1 21  2 41 30.0000000  0  5G18G17G15G10G23
  22892376.413     -965239.35449   -735930.80246  22892376.278    22892385.154
       228.000         172.000
  21968508.850    -1470868.24949  -1139805.43247  21968508.018    21968516.771
       238.000         197.000
  22743604.047     -860630.49249   -660008.02246  22743604.270    22743615.320
       226.000         178.000
  22568796.343     -420573.98449   -346297.85146  22568795.738    22568803.428
       229.000         179.000
  20630727.041     -741926.86649   -574724.14348  20630726.445    20630734.061
       247.000         215.000
 02  1 21  2 42  0.0000000  0  5G18G17G15G10G23
  22849117.506    -1192568.02949   -913069.75146  22849117.515    22849127.138
       229.000         173.000
  21936138.236    -1640976.54449  -1272357.24547  21936137.328    21936146.056
       238.000         197.000
  22707235.658    -1051755.09949   -808936.09446  22707235.098    22707245.488
       229.000         179.000
  22561075.611     -461147.03949   -377913.23446  22561074.313    22561083.446
       230.000         179.000
  20602260.122     -891522.06949   -691291.76748  20602259.383    20602266.767
       246.000         216.000
 02  1 21  2 42 30.0000000  0  5G18G17G15G10G23
  22817178.969    -1360405.07749  -1043851.57446  22817178.676    22817188.027
       229.000         174.000
  21915069.014    -1751695.51249  -1358631.64847  21915068.004    21915076.742
       238.000         197.000
  22682167.545    -1183488.83849   -911585.57246  22682165.853    22682176.620
       227.000         178.000
  22564677.931     -442216.52049   -363162.20346  22564676.949    22564685.284
       228.000         178.000
  20585162.738     -981368.78449   -761302.12348  20585161.919    20585169.623
       246.000         216.000
 02  1 21  2 43  0.0000000  0  6G18G17G15G10G26G23
  22791457.006    -1495573.57949  -1149177.38446  22791455.793    22791465.982
       229.000         175.000
  21900196.511    -1829850.76049  -1419531.72047  21900195.540    21900204.541
       238.000         198.000
  22663296.112    -1282657.15549   -988859.39246  22663295.237    22663305.938
       228.000         178.000
  22574498.347     -390610.16449   -322949.46446  22574497.880    22574505.726
       229.000         178.000
  22870102.116    -1146597.13149   -885400.25646  22870102.957    22870112.833
       221.000         164.000
  20574330.512    -1038292.33849   -805658.06948  20574329.758    20574337.415
       246.000         216.000
 02  1 21  2 43 30.0000000  0  7G18G17G15G10G 6G26G23
  22769159.117    -1612748.90249  -1240482.55146  22769158.310    22769167.951
       229.000         175.000
  21888727.529    -1890119.97349  -1466494.63547  21888726.410    21888735.704
       238.000         198.000
  22647828.825    -1363937.66449  -1052194.66546  22647826.696    22647838.251
       225.000         177.000
  22587743.232     -321008.18049   -268714.17646  22587742.831    22587750.750
       229.000         178.000
                   -979913.37249   -760787.64943
       247.000          74.000
  22851735.993    -1243117.30049   -960610.58446  22851735.992    22851744.515
       223.000         167.000
  20566970.313    -1076970.20049   -835796.59548  20566969.853    20566977.000
       246.000         216.000
 02  1 21  2 44  0.0000000  0  8G18G17G15G10G 5G 6G26G23
  22748757.839    -1719957.45649  -1324021.39746  22748757.223    22748766.138
       228.000         175.000
  21879134.230    -1940532.50349  -1505777.01647  21879133.051    21879142.202
       237.000         198.000
  22634237.450    -1435359.43749  -1107847.81146  22634236.174    22634247.481
       227.000         178.000
  22602884.215     -241442.25949   -206714.77246  22602883.100    22602891.470
       228.000         178.000
                   -914693.15449   -723328.97543
       212.000          74.000
                  -1010885.02049   -785023.44743
       247.000          74.000
  22835270.615    -1329642.84149  -1028032.90746  22835269.922    22835279.852
       223.000         168.000
  20561554.357    -1105431.25849   -857973.97648  20561553.713    20561561.124
       246.000         216.000
 02  1 21  2 44 30.0000000  0  8G18G17G15G10G 5G 6G26G23
  22729417.386    -1821591.26649  -1403216.29846  22729416.263    22729426.035
       228.000         175.000
  21870580.393    -1985482.40349  -1540802.80747  21870579.433    21870588.282
       238.000         198.000
  22621686.259    -1501316.06649  -1159242.38846  22621684.883    22621694.989
       226.000         178.000
  22619084.686     -156308.52049   -140376.81046  22619083.974    22619092.265
       228.000         177.000
                   -816788.46049   -647039.51643
       209.000          74.000
                  -1036165.08649   -804822.15943
       247.000          74.000
  22819871.658    -1410563.76149  -1091087.97346  22819871.472    22819880.604
       222.000         168.000
  20557246.444    -1128069.34249   -875613.96848  20557245.665    20557253.153
       246.000         216.000
 02  1 21  2 45  0.0000000  0  8G18G17G15G10G 5G 6G26G23
  22710680.642    -1920052.08449  -1479938.74646  22710679.414    22710689.184
       227.000         175.000
  21862608.580    -2027373.91049  -1573445.43547  21862607.622    21862616.579
       238.000         198.000
  22609717.468    -1564211.43849  -1208251.58646  22609716.239    22609727.249
       228.000         179.000
  22635886.623      -68013.79349    -71575.73746  22635886.052    22635894.431
       229.000         177.000
                   -716023.89349   -568522.08444                  24370081.683
       206.000         114.000
                  -1058155.67049   -782099.40447                  20338446.723
       247.000         201.000
  22805082.470    -1488280.55749  -1151646.34146  22805082.410    22805090.718
       223.000         167.000
  20553589.078    -1147288.69649   -890590.02248  20553588.377    20553595.894
       246.000         216.000
 02  1 21  2 45 30.0000000  0  9G18G17G15G10G 5G 6G26G30G23
  22692297.550    -2016654.55249  -1555213.12746  22692297.309    22692305.777
       228.000         175.000
  21854968.148    -2067524.45249  -1604731.46247  21854967.261    21854975.946
       238.000         199.000
  22598080.604    -1625362.99049  -1255901.95546  22598079.855    22598089.853
       229.000         180.000
  22653039.021       22122.55949     -1339.62646  22653037.928    22653047.217
       229.000         178.000
  24389533.453     -613718.73349   -488804.09245  24389530.639    24389547.459
       207.000         138.000
  20334631.071    -1078172.10349   -797696.57248  20334630.728    20334637.464
       247.000         214.000
  22790653.102    -1564106.81149  -1210731.57646  22790652.380    22790662.351
       222.000         166.000
  22211709.481     -742937.50649   -600547.86646  22211709.194    22211718.603
       233.000         187.000
  20550331.630    -1164406.39849   -903928.41848  20550330.802    20550338.202
       246.000         216.000
 02  1 21  2 46  0.0000000  0  9G18G17G15G10G 5G 6G26G30G23
  22674131.366    -2112117.95149  -1629599.92646  22674130.396    22674139.184
       228.000         176.000
  21847521.701    -2106655.43549  -1635223.02547  21847520.806    21847529.760
       238.000         199.000
  22586638.307    -1685492.17449  -1302755.68346  22586637.646    22586647.168
       231.000         180.000
  22670404.174      113376.53749     69767.35946  22670403.586    22670411.990
       228.000         178.000
  24409156.810     -510596.80149   -408449.59945  24409156.133    24409171.189
       206.000         141.000
  20331060.793    -1096933.89549   -812316.09748  20331060.260    20331067.179
       247.000         216.000
  22776446.875    -1638760.15249  -1268902.84246  22776446.504    22776455.974
       223.000         167.000
  22228623.157     -654054.19049   -531288.18246  22228623.394    22228632.454
       232.000         186.000
  20547336.845    -1180143.78349   -916191.24248  20547336.085    20547343.402
       246.000         216.000
 02  1 21  2 46 30.0000000  0  9G18G17G15G10G 5G 6G26G30G23
  22656107.607    -2206832.72549  -1703403.38046  22656106.994    22656115.359
       229.000         176.000
  21840194.427    -2145160.03649  -1665226.49947  21840193.429    21840202.433
       238.000         199.000
  22575315.938    -1744991.48549  -1349118.61446  22575314.635    22575324.559
       231.000         181.000
  22687906.659      205352.76249    141437.13346  22687905.440    22687914.639
       228.000         177.000
  24428860.523     -407053.07449   -327766.43945  24428859.243    24428875.301
       209.000         142.000
  20327654.837    -1114832.00049   -826262.62648  20327654.438    20327661.368
       247.000         217.000
  22762389.884    -1712629.73449  -1326463.36846  22762390.075    22762398.234
       225.000         169.000
  22245674.666     -564448.78849   -461465.84746  22245674.930    22245683.776
       233.000         186.000
  20544529.967    -1194893.68649   -927684.60548  20544529.188    20544536.427
       246.000         215.000
 02  1 21  2 47  0.0000000  0  9G18G17G15G10G 5G 6G26G30G23
  22638185.572    -2301012.45849  -1776789.92146  22638184.261    22638193.626
       229.000         176.000
  21832945.278    -2183254.10249  -1694910.07847  21832944.237    21832953.297
       238.000         199.000
  22564072.298    -1804076.76849  -1395158.91346  22564071.428    22564081.342
       232.000         181.000
  22705505.121      297832.98449    213499.62746  22705504.097    22705512.859
       228.000         176.000
  24448603.136     -303305.39149   -246924.37945  24448603.814    24448618.286
       207.000         142.000
  20324372.605    -1132080.20349   -839702.73448  20324372.310    20324379.159
       247.000         217.000
  22748441.642    -1785927.57949  -1383578.41346  22748441.721    22748450.122
       225.000         170.000
  22262821.921     -474339.66549   -391250.99746  22262822.309    22262831.743
       233.000         186.000
  20541869.952    -1208871.88149   -938576.63648  20541869.070    20541876.524
       246.000         215.000
 02  1 21  2 47 30.0000000  0  9G18G17G15G10G 5G 6G26G30G23
  22620343.548    -2394772.15449  -1849849.19046  22620342.533    22620351.566
       229.000         177.000
  21825751.889    -2221055.23449  -1724365.39747  21825750.897    21825759.381
       238.000         199.000
  22552885.024    -1862865.30349  -1440967.97946  22552883.654    22552893.929
       230.000         181.000
  22723176.590      390697.24249    285861.37446  22723175.963    22723184.184
       227.000         175.000
  24468362.009     -199473.35049   -166016.55745  24468361.126    24468375.153
       206.000         139.000
  20321192.061    -1148794.01749   -852726.43548  20321191.752    20321198.369
       247.000         217.000
  22734580.650    -1858767.36549  -1440336.53046  22734580.218    22734588.219
       223.000         170.000
  22280042.223     -383846.92149   -320737.22746  22280042.508    22280052.045
       233.000         185.000
  20539334.445    -1222195.73849   -948958.79248  20539333.905    20539341.050
       246.000         215.000
 02  1 21  2 48  0.0000000  0  9G18G17G15G10G 5G 6G26G30G23
  22602569.636    -2488173.03749  -1922628.84246  22602568.258    22602578.113
       229.000         177.000
  21818602.151    -2258626.86249  -1753641.87347  21818601.177    21818609.864
       238.000         199.000
  22541742.087    -1921420.39249  -1486595.14246  22541740.038    22541750.633
       231.000         180.000
  22740908.595      483879.74249    358471.11046  22740908.147    22740916.204
       227.000         175.000
  24488124.306      -95622.47649    -85094.09745  24488124.134    24488140.356
       206.000         138.000
  20318101.494    -1165034.92549   -865381.63848  20318101.101    20318107.818
       247.000         217.000
  22720795.297    -1931208.81049  -1496784.24246  22720794.172    22720803.344
       224.000         169.000
  22297322.923     -293036.53149   -249975.93346  22297322.994    22297332.103
       234.000         185.000
  20536911.430    -1234928.63649   -958880.46148  20536910.683    20536917.889
       246.000         215.000
 02  1 21  2 48 30.0000000  0  9G18G17G15G10G 5G 6G26G30G23
  22584857.722    -2581248.88249  -1995155.24446  22584856.459    22584865.331
       231.000         177.000
  21811489.199    -2296005.00549  -1782767.58947  21811488.181    21811497.158
       238.000         199.000
  22530636.902    -1979778.12449  -1532068.53346  22530635.935    22530645.265
       230.000         181.000
  22758693.849      577341.94449    431298.80246  22758693.185    22758700.998
       228.000         174.000
  24507882.967        8208.99249     -4186.76345  24507881.717    24507897.380
       202.000         136.000
  20315094.387    -1180837.24349   -877695.08848  20315094.093    20315100.591
       247.000         217.000
  22707079.480    -2003284.30649  -1552946.81446  22707079.086    22707088.192
       222.000         168.000
  22314656.621     -201947.38149   -178997.43146  22314657.444    22314665.998
       232.000         184.000
  20534593.976    -1247106.68549   -968369.78448  20534593.137    20534600.325
       246.000         215.000
 02  1 21  2 49  0.0000000  0  9G18G17G15G10G 5G 6G26G30G23
  22567204.429    -2674017.17349  -2067441.99146  22567203.570    22567212.702
       231.000         178.000
  21804409.262    -2333209.83349  -1811758.25747  21804408.342    21804417.251
       238.000         199.000
  22519565.520    -2037958.07349  -1577403.37946  22519564.060    22519574.333
       231.000         181.000
  22776528.086      671061.76849    504327.22746  22776527.658    22776536.023
       228.000         174.000
  24527633.606      111999.20849     76688.38545  24527633.513    24527650.617
       203.000         137.000
  20312167.353    -1196218.96649   -889680.80148  20312166.949    20312173.870
       247.000         217.000
  22693430.379    -2075009.94149  -1608836.75746  22693431.035    22693438.892
       226.000         169.000
  22332039.125     -110601.92449   -107819.19846  22332039.591    22332048.383
       233.000         184.000
  20532378.290    -1258749.89149   -977442.34348  20532377.401    20532384.729
       246.000         215.000
 02  1 21  2 49 30.0000000  0  9G18G17G15G10G 5G 6G26G30G23
  22549607.731    -2766486.75049  -2139495.97446  22549606.232    22549615.771
       231.000         178.000
  21797360.171    -2370252.65149  -1840622.68347  21797359.052    21797368.054
       239.000         199.000
  22508525.653    -2095971.41949  -1622608.40246  22508524.083    22508534.799
       230.000         182.000
  22794408.752      765025.25449    577545.51446  22794407.700    22794415.979
       228.000         173.000
  24547374.112      215735.03449    157521.17245  24547374.097    24547389.818
       206.000         138.000
  20309318.570    -1211189.27449   -901345.92748  20309318.142    20309324.818
       247.000         217.000
  22679846.535    -2146393.26749  -1664459.97846  22679845.849    22679854.625
       225.000         171.000
  22349467.722      -19014.10349    -36452.10746  22349467.516    22349477.169
       232.000         183.000
  20530262.205    -1269869.57549   -986106.96348  20530261.526    20530268.746
       246.000         215.000
 02  1 21  2 50  0.0000000  0  9G18G17G15G10G 5G 6G26G30G23
  22532067.242    -2858661.67349  -2211320.37046  22532066.365    22532075.099
       232.000         179.000
  21790340.670    -2407139.91749  -1869365.89947  21790339.892    21790348.271
       239.000         199.000
  22497516.407    -2153824.51549  -1667688.56546  22497515.134    22497525.105
       230.000         181.000
  22812334.312      859224.14949    650947.23746  22812333.520    22812341.343
       227.000         172.000
  24567102.715      319407.86949    238304.86245  24567103.138    24567118.943
       207.000         140.000
  20306547.173    -1225752.64349   -912693.95548  20306546.740    20306553.497
       247.000         217.000
  22666327.175    -2217436.90949  -1719818.52446  22666326.439    22666336.058
       224.000         171.000
  22366940.682       72807.00049     35096.74546  22366940.799    22366950.255
       233.000         183.000
  20528244.558    -1280472.17449   -994368.66348  20528243.862    20528250.941
       246.000         215.000
 02  1 21  2 50 30.0000000  0 10G18G17G15G10G 5G 6G26G30G23G22
  22514581.402    -2950549.48249  -2282921.04746  22514580.250    22514589.991
       231.000         179.000
  21783348.998    -2443881.22349  -1897995.37847  21783348.252    21783356.835
       239.000         200.000
  22486535.862    -2211526.70849  -1712651.14746  22486534.516    22486545.582
       230.000         182.000
  22830302.232      953646.38749    724523.00646  22830300.652    22830310.295
       225.000         172.000
  24586817.156      423006.23549    319030.52345  24586817.490    24586833.413
       209.000         142.000
  20303851.837    -1239916.58949   -923730.74448  20303851.456    20303858.141
       247.000         217.000
  22652871.421    -2288146.53649  -1774916.77746  22652871.214    22652879.419
       225.000         171.000
  22384455.842      164849.42949    106818.07446  22384456.263    22384465.750
       232.000         183.000
  20526323.501    -1290567.26849  -1002234.90648  20526322.762    20526329.993
       246.000         215.000
  24311726.997    -2262615.02749  -1749212.30345  24311725.353    24311739.673
       210.000         144.000
 02  1 21  2 51  0.0000000  0 10G18G17G15G10G 5G 6G26G30G23G22
  22497151.775    -3042141.62049  -2354291.31946  22497150.707    22497159.879
       232.000         180.000
  21776386.238    -2480470.50849  -1926506.39647  21776385.542    21776393.893
       239.000         200.000
  22475585.152    -2269072.02149  -1757491.48046  22475584.417    22475594.177
       231.000         182.000
  22848313.286     1048295.57149    798275.61446  22848312.422    22848321.214
       226.000         171.000
  24606517.970      526534.08749    399701.24045  24606518.652    24606534.057
       209.000         143.000
  20301234.000    -1253673.27549   -934450.18348  20301233.578    20301240.181
       246.000         217.000
  22639481.040    -2358512.59549  -1829747.32646  22639479.934    22639489.404
       225.000         171.000
  22402013.727      257116.45949    178714.41446  22402013.549    22402023.130
       231.000         183.000
  20524500.120    -1300148.91249  -1009701.05748  20524499.365    20524506.657
       246.000         215.000
  24299888.783    -2324825.56149  -1797687.68445  24299887.778    24299900.190
       209.000         143.000
 02  1 21  2 51 30.0000000  0 10G18G17G15G10G 5G 6G26G30G23G22
  22479778.678    -3133437.43049  -2425430.71146  22479777.764    22479786.167
       234.000         181.000
  21769451.994    -2516909.50249  -1954900.30947  21769450.923    21769459.670
       238.000         200.000
  22464664.224    -2326461.67449  -1802210.52946  22464663.277    22464673.333
       232.000         182.000
  22866366.893     1143167.81849    872202.02246  22866365.235    22866375.190
       224.000         171.000
  24626204.898      629987.67949    480314.09945  24626204.763    24626221.752
       209.000         145.000
  20298693.703    -1267022.34549   -944852.00448  20298693.287    20298699.968
       246.000         217.000
  22626156.515    -2428532.74149  -1884308.33746  22626156.018    22626165.117
       224.000         172.000
  22419613.627      349603.92749    250782.52046  22419613.584    22419623.418
       233.000         183.000
  20522774.125    -1309218.86049  -1016768.48748  20522773.490    20522780.661
       246.000         215.000
  24288133.360    -2386599.37849  -1845822.81845  24288131.267    24288145.517
       210.000         142.000
 02  1 21  2 52  0.0000000  0 10G18G17G15G10G 5G 6G26G30G23G22
  22462462.051    -3224436.17849  -2496338.61146  22462461.721    22462470.101
       232.000         181.000
  21762545.989    -2553199.77249  -1983178.32147  21762545.084    21762553.589
       239.000         199.000
  22453772.542    -2383696.96349  -1846809.27346  22453771.907    22453781.324
       232.000         182.000
  22884462.107     1238259.22249    946299.20246  22884461.787    22884470.017
       225.000         171.000
  24645876.928      733363.57849    560866.38445  24645878.044    24645893.728
       210.000         144.000
  20296231.051    -1279963.32949   -954935.83948  20296230.552    20296237.235
       246.000         216.000
  22612898.268    -2498204.99749  -1938598.27346  22612898.536    22612907.340
       225.000         171.000
  22437254.594      442307.52149    323019.04746  22437254.932    22437264.452
       232.000         183.000
  20521145.182    -1317778.85049  -1023438.54548  20521144.417    20521151.674
       246.000         215.000
  24276461.021    -2447935.90149  -1893617.19045  24276460.406    24276472.068
       213.000         146.000
 02  1 21  2 52 30.0000000  0 10G18G17G15G10G 5G 6G26G30G23G22
  22445202.050    -3315137.02249  -2567014.38946  22445200.451    22445210.383
       233.000         181.000
  21755668.161    -2589342.74649  -2011341.57647  21755667.185    21755675.705
       239.000         199.000
  22442909.992    -2440779.38549  -1891288.90746  22442909.017    22442918.551
       231.000         182.000
  22902598.358     1333565.84449   1020564.09346  22902597.552    22902607.336
       223.000         171.000
  24665533.622      836658.38349    641355.49245  24665532.197    24665550.235
       206.000         143.000
  20293846.085    -1292496.07849   -964701.56548  20293845.703    20293852.529
       246.000         216.000
  22599706.635    -2567526.96849  -1992615.26046  22599706.469    22599715.900
       224.000         171.000
  22454935.940      535223.36549    395420.93646  22454936.481    22454945.824
       232.000         183.000
  20519612.988    -1325830.36349  -1029712.38948  20519612.298    20519619.297
       245.000         215.000
  24264872.378    -2508834.47849  -1941070.31045  24264871.329    24264884.457
       213.000         149.000
 02  1 21  2 53  0.0000000  0 10G18G17G15G10G 5G 6G26G30G23G22
  22427999.210    -3405538.11249  -2637456.59546  22427997.940    22428006.963
       233.000         182.000
  21748818.254    -2625338.77149  -2039390.31547  21748817.167    21748825.898
       239.000         199.000
  22432076.542    -2497708.80349  -1935649.33346  22432075.477    22432085.879
       231.000         182.000
  22920775.002     1429085.00449   1094994.58046  22920775.227    22920783.115
       225.000         171.000
  24685174.171      939869.66849    721779.48945  24685174.779    24685190.769
       209.000         140.000
  20291539.199    -1304618.86249   -974147.84148  20291538.860    20291545.526
       247.000         217.000
  22586582.276    -2636495.33649  -2046356.70446  22586581.765    22586591.508
       225.000         171.000
  22472657.149      628348.36949    467985.82546  22472658.322    22472667.113
       233.000         183.000
  20518177.414    -1333373.92849  -1035590.42948  20518176.682    20518183.835
       246.000         215.000
  24253367.260    -2569293.28249  -1988180.74545  24253364.785    24253377.778
       206.000         147.000
 02  1 21  2 53 30.0000000  0  9G18G17G15G10G 6G26G30G23G22
  22410853.909    -3495635.92749  -2707662.48746  22410852.720    22410861.860
       232.000         181.000
  21741996.506    -2661186.88649  -2067323.81247  21741996.049    21742003.907
       240.000         200.000
  22421272.364    -2554484.27549  -1979889.77946  22421271.647    22421281.968
       231.000         182.000
  22938991.830     1524815.30149   1169589.59446  22938991.037    22939000.280
       223.000         171.000
  20289310.842    -1316328.70849   -983272.34948  20289310.473    20289317.119
       246.000         217.000
  22573526.156    -2705105.37149  -2099818.92546  22573526.433    22573534.640
       227.000         172.000
  22490417.822      721680.92649    540712.45546  22490418.297    22490427.280
       232.000         183.000
  20516838.699    -1340408.83749  -1041072.11148  20516837.869    20516844.917
       246.000         215.000
  24241946.327    -2629309.32849  -2034946.16745  24241943.292    24241957.686
       202.000         141.000
 02  1 21  2 54  0.0000000  0  9G18G17G15G10G 6G26G30G23G22
  22393766.738    -3585428.56549  -2777630.58346  22393765.569    22393774.396
       233.000         182.000
  21735203.007    -2696887.29349  -2095142.22247  21735202.363    21735210.487
       239.000         200.000
  22410497.473    -2611105.75749  -2024010.25146  22410496.206    22410506.283
       230.000         181.000
  22957248.506     1620754.54649   1244347.43246  22957248.278    22957255.978
       223.000         170.000
  20287161.347    -1327624.10949   -992073.91448  20287161.141    20287167.660
       247.000         217.000
  22560538.881    -2773353.47549  -2152999.14046  22560538.494    22560547.474
       228.000         173.000
  22508217.327      815218.16349    613598.55746  22508217.096    22508226.839
       231.000         182.000
  20515596.686    -1346935.46349  -1046157.73548  20515595.918    20515602.896
       246.000         215.000
  24230609.732    -2688880.46049  -2081364.93245  24230607.689    24230620.973
       207.000         141.000
 02  1 21  2 54 30.0000000  0  9G18G17G15G10G 6G26G30G23G22
  22376737.352    -3674917.81249  -2847362.26546  22376736.248    22376744.828
       232.000         182.000
  21728436.701    -2732444.41749  -2122848.97847  21728435.837    21728443.910
       239.000         200.000
  22399751.221    -2667577.20049  -2068013.80346  22399750.266    22399760.583
       231.000         182.000
  22975543.849     1716896.16049   1319262.94946  22975543.382    22975551.401
       224.000         170.000
  20285090.339    -1338507.39949  -1000554.35648  20285090.084    20285096.638
       247.000         217.000
  22547620.425    -2841240.29549  -2205897.81946  22547619.448    22547628.592
       227.000         173.000
  22526054.605      908953.37049    686638.93446  22526054.747    22526064.610
       233.000         182.000
  20514450.559    -1352958.28549  -1050850.78548  20514449.872    20514456.722
       246.000         215.000
  24219357.713    -2748008.82649  -2127438.73545  24219356.778    24219368.073
       208.000         141.000
 02  1 21  2 55  0.0000000  0  9G18G17G15G10G 6G26G30G23G22
  22359765.958    -3764102.26549  -2916856.45046  22359765.177    22359773.576
       233.000         182.000
  21721697.404    -2767858.94249  -2150444.60747  21721696.383    21721704.792
       239.000         200.000
  22389033.380    -2723899.20949  -2111900.92246  22389032.355    22389041.787
       232.000         182.000
  22993876.952     1813236.93549   1394333.66946  22993876.231    22993884.725
       224.000         170.000
  20283097.959    -1348977.47049  -1008712.81248  20283097.664    20283104.159
       247.000         217.000
  22534771.269    -2908762.84249  -2258512.64746  22534771.213    22534779.046
       227.000         172.000
  22543929.023     1002883.07349    759830.86646  22543929.392    22543938.400
       231.000         182.000
  20513400.106    -1358478.21549  -1055151.97748  20513399.399    20513406.400
       245.000         215.000
  24208190.417    -2806693.15549  -2173166.49545  24208189.149    24208201.134
       212.000         141.000
 02  1 21  2 55 30.0000000  0  9G18G17G15G10G 6G26G30G23G22
  22342853.134    -3852979.08249  -2986110.92446  22342852.055    22342861.190
       232.000         182.000
  21714985.393    -2803129.99549  -2177928.45047  21714984.599    21714992.808
       239.000         200.000
  22378344.217    -2780071.01549  -2155671.00946  22378342.776    22378353.146
       231.000         182.000
  23012247.572     1909775.62449   1469558.61246  23012246.193    23012255.036
       224.000         170.000
  20281184.674    -1359031.53549  -1016547.10948  20281184.298    20281190.955
       247.000         217.000
  22521992.340    -2975916.49149  -2310840.02946  22521992.799    22522000.679
       228.000         172.000
  22561839.901     1097005.65749    833173.07746  22561839.953    22561849.532
       230.000         181.000
  20512445.483    -1363494.46349  -1059060.68348  20512444.470    20512451.786
       245.000         215.000
  24197107.830    -2864930.43549  -2218545.96145  24197106.152    24197119.673
       213.000         144.000
 02  1 21  2 56  0.0000000  0  9G18G17G15G10G 6G26G30G23G22
  22325999.255    -3941545.74449  -3055123.71446  22325998.533    22326006.717
       233.000         183.000
  21708300.834    -2838257.40549  -2205300.37647  21708300.216    21708308.353
       240.000         200.000
  22367683.493    -2836092.47249  -2199323.92546  22367682.396    22367691.807
       232.000         182.000
  23030655.454     2006509.89449   1544935.95946  23030654.170    23030663.812
       224.000         170.000
  20279350.925    -1368667.70949  -1024055.77848  20279350.468    20279356.994
       246.000         217.000
  22509284.325    -3042697.55649  -2362877.08646  22509284.656    22509292.154
       228.000         173.000
  22579787.032     1191318.51849    906663.56546  22579787.628    22579795.930
       231.000         181.000
  20511586.607    -1368007.41149  -1062577.21548  20511585.835    20511592.989
       245.000         215.000
  24186110.910    -2922718.52849  -2263575.39845  24186109.974    24186122.872
       212.000         148.000
 02  1 21  2 56 30.0000000  0  9G18G17G15G10G 6G26G30G23G22
  22309204.828    -4029800.63949  -3123893.59046  22309203.890    22309212.420
       234.000         183.000
  21701643.429    -2873241.86249  -2232560.91147  21701642.665    21701650.844
       239.000         201.000
  22357051.407    -2891963.92849  -2242859.96746  22357050.046    22357059.763
       231.000         182.000
  23049100.129     2103436.89649   1620463.46846  23049099.261    23049108.124
       225.000         170.000
  20277596.943    -1377884.79649  -1031237.88048  20277596.592    20277603.139
       246.000         216.000
  22496647.693    -3109102.86249  -2414621.34246  22496647.115    22496655.919
       228.000         174.000
  22597769.841     1285818.47149    980299.84646  22597769.989    22597779.447
       228.000         180.000
  20510823.389    -1372017.98549  -1065702.28648  20510822.863    20510829.565
       246.000         215.000
  24175199.836    -2980055.95749  -2308253.65845  24175198.638    24175211.534
       213.000         149.000
 02  1 21  2 57  0.0000000  0  9G18G17G15G10G 6G26G30G23G22
  22292470.149    -4117741.65549  -3192418.87346  22292469.415    22292477.911
       234.000         184.000
  21695013.157    -2908083.53249  -2259710.17447  21695012.395    21695020.466
       239.000         201.000
  22346447.813    -2947685.27749  -2286279.04246  22346447.256    22346455.942
       233.000         182.000
  23067580.998     2200554.37449   1696139.40546  23067580.147    23067588.078
       224.000         170.000
  20275923.008    -1386681.23349  -1038092.20648  20275922.611    20275929.020
       247.000         216.000
  22484083.206    -3175129.04549  -2466070.16346  22484082.903    22484090.929
       228.000         176.000
  22615787.634     1380502.51149   1054079.55946  22615788.056    22615797.136
       227.000         180.000
  20510155.677    -1375526.70449  -1068436.30048  20510155.015    20510161.928
       246.000         215.000
  24164374.947    -3036941.09149  -2352579.48145  24164372.923    24164386.884
       211.000         147.000
 02  1 21  2 57 30.0000000  0  9G18G17G15G10G 6G26G30G23G22
  22275795.410    -4205367.41249  -3260698.49746  22275794.838    22275803.165
       233.000         184.000
  21688409.920    -2942783.16049  -2286748.75747  21688409.197    21688417.714
       239.000         201.000
  22335872.828    -3003257.03249  -2329581.55446  22335871.508    22335881.780
       234.000         182.000
  23086097.369     2297859.11449   1771961.27846  23086095.898    23086105.564
       224.000         170.000
  20274329.331    -1395055.93949  -1044617.91048  20274328.884    20274335.329
       246.000         216.000
  22471591.397    -3240773.23949  -2517221.35646  22471590.192    22471599.965
       227.000         175.000
  22633839.822     1475367.59149   1128000.34946  22633839.609    22633849.700
       229.000         179.000
  20509583.280    -1378534.55649  -1070780.03048  20509582.621    20509589.497
       246.000         215.000
  24153636.401    -3093372.51449  -2396551.81945  24153633.967    24153647.501
       209.000         146.000
 02  1 21  2 58  0.0000000  0  9G18G17G15G10G 6G26G30G23G22
  22259181.066    -4292675.50149  -3328730.59846  22259180.070    22259188.419
       233.000         184.000
  21681833.831    -2977340.60749  -2313676.55447  21681832.859    21681841.229
       240.000         201.000
  22325326.410    -3058678.73849  -2372767.15646  22325325.319    22325334.876
       232.000         182.000
  23104649.090     2395349.07549   1847927.45146  23104648.285    23104656.647
       224.000         170.000
  20272816.265    -1403006.85949  -1050813.39748  20272815.982    20272822.224
       247.000         216.000
  22459172.988    -3306031.60449  -2568071.88146  22459172.129    22459180.853
       226.000         175.000
  22651926.081     1570411.20649   1202060.26046  22651926.298    22651935.926
       228.000         179.000
  20509106.107    -1381041.78649  -1072733.66348  20509105.352    20509112.265
       246.000         215.000
  24142984.238    -3149347.81449  -2440168.70145  24142982.041    24142995.946
       209.000         146.000
 02  1 21  2 58 30.0000000  0  9G18G17G15G10G 6G26G30G23G22
  22242627.397    -4379664.41549  -3396513.99346  22242626.550    22242634.810
       233.000         184.000
  21675284.687    -3011756.38549  -2340493.95647  21675283.773    21675292.502
       240.000         202.000
  22314808.243    -3113951.00049  -2415836.29946  22314806.741    22314816.744
       232.000         182.000
  23123235.398     2493021.24449   1924035.62146  23123234.638    23123243.635
       224.000         170.000
  20271384.089    -1410532.95549  -1056677.85348  20271383.783    20271390.288
       246.000         217.000
  22446828.492    -3370901.11449  -2618619.39846  22446828.414    22446836.548
       226.000         175.000
  22670045.552     1665629.90849   1276256.60946  22670045.424    22670055.594
       228.000         178.000
  20508724.054    -1383049.58649  -1074298.13248  20508723.416    20508730.177
       246.000         215.000
  24132419.143    -3204865.96549  -2483429.33545  24132418.404    24132430.214
       212.000         146.000
 02  1 21  2 59  0.0000000  0  9G18G17G15G10G 6G26G30G23G22
  22226135.040    -4466331.97049  -3464046.97346  22226134.128    22226142.364
       234.000         185.000
  21668762.428    -3046030.58549  -2367201.04547  21668761.579    21668769.970
       240.000         202.000
  22304318.576    -3169073.69849  -2458788.89746  22304317.242    22304327.241
       232.000         182.000
  23141855.995     2590873.53749   2000284.14846  23141854.867    23141864.046
       223.000         169.000
  20270033.108    -1417632.12949  -1062209.64648  20270032.828    20270039.239
       247.000         217.000
  22434558.838    -3435378.06049  -2668861.03846  22434558.418    22434567.111
       228.000         176.000
  22688197.985     1761021.48149   1350587.65346  22688198.037    22688207.930
       228.000         178.000
  20508436.917    -1384558.08949  -1075473.53848  20508436.095    20508443.052
       246.000         215.000
  24121941.586    -3259924.69149  -2526332.02945  24121938.889    24121952.350
       212.000         146.000
 02  1 21  2 59 30.0000000  0  9G18G17G15G10G 6G26G30G23G22
  22209703.976    -4552677.14449  -3531328.74846  22209702.983    22209711.016
       235.000         186.000
  21662266.941    -3080164.16149  -2393798.55747  21662266.215    21662274.517
       240.000         202.000
  22293857.159    -3224047.88049  -2501625.76146  22293855.655    22293865.848
       233.000         183.000
  23160510.120     2688902.42749   2076670.29046  23160509.693    23160518.133
       223.000         168.000
  20268763.455    -1424304.14749  -1067408.59248  20268763.057    20268769.451
       247.000         217.000
  22422364.315    -3499460.09449  -2718794.93946  22422364.210    22422372.624
       227.000         176.000
  22706382.500     1856581.84749   1425050.22146  22706382.938    22706392.724
       228.000         177.000
  20508244.531    -1385568.85949  -1076261.09448  20508243.778    20508250.730
       246.000         215.000
  24111551.444    -3314523.28849  -2568876.16445  24111550.631    24111562.980
       210.000         145.000
 02  1 21  3  0  0.0000000  0  9G18G17G15G10G 6G26G30G23G22
  22193334.600    -4638697.98349  -3598357.80946  22193333.565    22193341.749
       234.000         186.000
  21655798.194    -3114157.45749  -2420286.75847  21655797.443    21655805.802
       240.000         202.000
  22283424.213    -3278873.40049  -2544346.79946  22283422.578    22283432.759
       233.000         184.000
  23179197.470     2787105.49649   2153192.14046  23179196.656    23179205.565
       222.000         167.000
  20267575.402    -1430547.50249  -1072273.51348  20267575.100    20267581.501
       246.000         216.000
  22410245.519    -3563143.83749  -2768418.51246  22410245.400    22410253.518
       228.000         176.000
  22724598.629     1952308.18349   1499642.12346  22724598.538    22724608.130
       227.000         176.000
  20508146.684    -1386082.75149  -1076661.48148  20508146.076    20508152.616
       246.000         215.000
  24101249.169    -3368660.29449  -2611060.60545  24101248.503    24101260.385
       213.000         144.000
 02  1 21  3  0 30.0000000  0  9G18G17G15G10G 6G26G30G23G22
  22177027.188    -4724393.00149  -3665132.97246  22177025.904    22177034.257
       234.000         186.000
  21649355.996    -3148011.33349  -2446666.32147  21649355.443    21649363.402
       240.000         202.000
  22273019.422    -3333550.65349  -2586952.30246  22273018.460    22273028.107
       232.000         185.000
  23197917.535     2885479.72549   2229847.38246  23197916.746    23197926.013
       220.000         166.000
  20266469.033    -1436361.08949  -1076803.55348  20266468.536    20266475.146
       246.000         216.000
  22398203.173    -3626426.41749  -2817729.47346  22398202.677    22398210.970
       228.000         177.000
  22742845.727     2048197.24649   1574360.82746  22742846.065    22742855.790
       226.000         175.000
  20508143.261    -1386100.79749  -1076675.49348  20508142.628    20508149.293
       246.000         215.000
  24091035.395    -3422334.29449  -2652884.29445  24091035.983    24091046.651
       213.000         143.000
 02  1 21  3  1  0.0000000  0  9G18G17G15G10G 6G26G30G23G22
  22160782.078    -4809760.63549  -3731653.03146  22160780.961    22160789.072
       235.000         187.000
  21642940.328    -3181725.92449  -2472937.34747  21642939.705    21642947.693
       240.000         202.000
  22262642.698    -3388080.11649  -2629442.64646  22262641.504    22262651.451
       232.000         186.000
  23216669.634     2984022.54849   2306633.97046  23216668.555    23216677.068
       221.000         165.000
  20265444.741    -1441743.55849  -1080997.64948  20265444.265    20265450.895
       246.000         216.000
  22386237.677    -3689304.73149  -2866725.42646  22386237.480    22386245.761
       228.000         177.000
  22761123.327     2144246.03949   1649203.99846  22761123.512    22761132.974
       227.000         175.000
  20508234.005    -1385623.86149  -1076303.80148  20508233.136    20508240.040
       245.000         215.000
  24080909.961    -3475543.84649  -2694346.05245  24080908.004    24080921.075
       209.000         142.000
 02  1 21  3  1 30.0000000  0  9G18G17G15G10G 6G26G30G23G22
  22144599.758    -4894798.71749  -3797916.30347  22144598.853    22144606.710
       236.000         188.000
  21636550.997    -3215301.27749  -2499099.86447  21636550.228    21636558.297
       240.000         202.000
  22252294.129    -3442461.70949  -2671817.77346  22252292.758    22252302.924
       232.000         186.000
  23235453.312     3082732.03249   2383550.45046  23235452.711    23235462.160
       221.000         164.000
  20264502.839    -1446693.26549  -1084854.53148  20264502.497    20264509.019
       247.000         216.000
  22374349.806    -3751775.10249  -2915403.50546  22374349.270    22374357.998
       228.000         177.000
  22779430.760     2240452.01549   1724169.63346  22779430.968    22779440.313
       225.000         175.000
  20508418.789    -1384652.36149  -1075546.74048  20508417.988    20508424.952
       245.000         215.000
  24070873.113    -3528287.04149  -2735444.43745  24070872.392    24070885.119
       212.000         143.000
 02  1 21  3  2  0.0000000  0  9G18G17G15G10G 6G26G30G23G22
  22128480.529    -4979505.64249  -3863921.53747  22128479.882    22128487.074
       237.000         189.000
  21630188.185    -3248737.80749  -2525154.21247  21630187.103    21630195.267
       240.000         202.000
  22241973.640    -3496695.83549  -2714077.99946  22241972.553    22241981.218
       231.000         185.000
  23254268.342     3181605.22349   2460594.48346  23254268.135    23254276.828
       221.000         163.000
  20263643.518    -1451208.79249  -1088373.09548  20263643.382    20263649.642
       247.000         216.000
  22362540.181    -3813834.32949  -2963761.20146  22362539.876    22362548.152
       229.000         177.000
  22797767.376     2336812.03949   1799255.30746  22797767.204    22797777.345
       226.000         174.000
  20508697.541    -1383187.33149  -1074405.11548  20508696.825    20508703.667
       245.000         215.000
  24060925.366    -3580562.54249  -2776178.36145  24060923.599    24060936.226
       213.000         145.000
 02  1 21  3  2 30.0000000  0  9G18G17G15G10G 6G26G30G23G22
  22112424.584    -5063879.90749  -3929667.55747  22112423.568    22112431.242
       237.000         189.000
  21623851.657    -3282036.30049  -2551101.00547  21623850.989    21623858.517
       240.000         202.000
  22231681.149    -3550782.81049  -2756223.55146  22231679.868    22231689.420
       233.000         185.000
  23273114.037     3280639.06049   2537763.69046  23273113.749    23273121.458
       222.000         163.000
  20262867.028    -1455289.35049  -1091552.71748  20262866.649    20262873.009
       246.000         216.000
  22350809.467    -3875479.78649  -3011796.49146  22350809.806    22350817.019
       229.000         177.000
  22816132.816     2433322.62749   1874458.30846  22816133.090    22816143.309
       226.000         175.000
  20509069.931    -1381230.11049  -1072879.96048  20509069.167    20509076.142
       245.000         215.000
  24051066.733    -3632369.15349  -2816546.95345  24051064.594    24051078.442
       217.000         150.000
 02  1 21  3  3  0.0000000  0  9G18G17G15G10G 6G26G30G23G22
  22096432.174    -5147919.73949  -3995152.97547  22096431.289    22096438.775
       237.000         190.000
  21617541.398    -3315196.92549  -2576940.36747  21617540.658    21617548.659
       240.000         202.000
  22221416.638    -3604722.77949  -2798254.56346  22221415.814    22221424.816
       233.000         185.000
  23291989.819     3379831.35149   2615056.39545  23291988.202    23291996.965
       220.000         162.000
  20262173.567    -1458933.38949  -1094392.20048  20262173.259    20262179.625
       247.000         216.000
  22339157.970    -3936708.20849  -3059506.81246  22339157.983    22339165.616
       229.000         177.000
  22834526.440     2529981.11649   1949776.55446  22834527.456    22834536.618
       227.000         175.000
  20509535.846    -1378781.40149  -1070971.83148  20509535.134    20509542.108
       245.000         215.000
  24041297.550    -3683705.31649  -2856548.97545  24041295.467    24041308.894
       218.000         152.000
 02  1 21  3  3 30.0000000  0  9G18G17G15G10G 6G26G30G23G22
  22080503.340    -5231625.83149  -4060378.34647  22080502.296    22080509.886
       236.000         190.000
  21611256.825    -3348222.27549  -2602674.31247  21611255.659    21611263.930
       239.000         202.000
  22211179.688    -3658518.22349  -2840172.94846  22211178.741    22211187.514
       233.000         186.000
  23310894.629     3479176.82049   2692468.43645  23310894.134    23310902.537
       219.000         161.000
  20261563.000    -1462141.90549  -1096892.31448  20261562.492    20261569.207
       246.000         216.000
  22327585.969    -3997518.74349  -3106891.50746  22327585.784    22327593.309
       229.000         176.000
  22852947.094     2626782.15749   2025205.87846  22852947.214    22852956.617
       226.000         174.000
  20510094.706    -1375844.42849  -1068683.23448  20510093.887    20510100.811
       245.000         215.000
  24031617.678    -3734571.96849  -2896185.10345  24031615.619    24031628.810
       217.000         152.000
 02  1 21  3  4  0.0000000  0  9G18G17G15G10G 6G26G30G23G22
  22064638.989    -5314992.68449  -4125339.37447  22064637.999    22064645.453
       237.000         191.000
  21604998.510    -3381109.18949  -2628300.39647  21604997.791    21605005.733
       240.000         202.000
  22200970.933    -3712165.56549  -2881975.94746  22200969.788    22200978.933
       234.000         187.000
  23329828.845     3578676.67149   2770000.79845  23329829.055    23329836.069
       219.000         160.000
  20261036.179    -1464910.07749  -1099049.29948  20261035.907    20261042.423
       246.000         216.000
  22316094.803    -4057904.52949  -3153945.24746  22316094.859    22316102.997
       229.000         176.000
  22871394.990     2723726.47349   2100746.84846  22871395.153    22871404.848
       225.000         173.000
  20510746.957    -1372416.57649  -1066012.13848  20510746.266    20510753.183
       246.000         215.000
  24022028.212    -3784963.93749  -2935451.36945  24022026.277    24022039.796
       215.000         150.000
 02  1 21  3  4 30.0000000  0  9G18G17G15G10G 6G26G30G23G22
  22048839.493    -5398019.29549  -4190035.28847  22048838.757    22048846.275
       236.000         191.000
  21598766.499    -3413858.40849  -2653819.18647  21598765.706    21598773.706
       240.000         202.000
  22190790.095    -3765665.70949  -2923664.23646  22190788.956    22190797.675
       233.000         187.000
  23348791.993     3678328.15549   2847651.30545  23348791.498    23348799.836
       218.000         159.000
  20260593.275    -1467237.28149  -1100862.68148  20260592.873    20260599.259
       246.000         216.000
  22304685.002    -4117863.12649  -3200666.09746  22304684.788    22304692.353
       229.000         177.000
  22889869.538     2820810.41449   2176396.61146  22889869.653    22889880.201
       226.000         174.000
  20511492.395    -1368499.33149  -1062959.69748  20511492.030    20511498.344
       246.000         215.000
  24012529.187    -3834880.53349  -2974347.24345  24012526.814    24012540.111
       213.000         146.000
 02  1 21  3  5  0.0000000  0  9G18G17G15G10G 6G26G30G23G22
  22033104.933    -5480704.22849  -4254464.96347  22033103.999    22033111.533
       236.000         190.000
  21592560.570    -3446470.50349  -2679231.13047  21592559.732    21592567.786
       239.000         202.000
  22180637.077    -3819019.21549  -2965238.27046  22180635.645    22180644.458
       233.000         187.000
  23367783.384     3778128.64149   2925417.91245  23367783.410    23367790.958
       219.000         160.000
  20260234.530    -1469122.38649  -1102331.56748  20260234.082    20260240.630
       246.000         216.000
  22293357.081    -4177391.55949  -3247051.76046  22293357.070    22293364.717
       230.000         178.000
  22908369.999     2918030.95149   2252152.80246  22908370.085    22908380.324
       226.000         174.000
  20512330.715    -1364093.81649  -1059526.78648  20512329.949    20512336.753
       245.000         215.000
  24003120.746    -3884320.50849  -3012871.72845  24003119.806    24003131.501
       216.000         146.000
 02  1 21  3  5 30.0000000  0  9G18G17G15G10G 6G26G30G23G22
  22017435.565    -5563046.26849  -4318627.44347  22017434.987    22017442.321
       236.000         190.000
  21586380.522    -3478946.34049  -2704536.88147  21586379.600    21586387.729
       239.000         202.000
  22170511.861    -3872226.52449  -3006698.38646  22170510.965    22170519.435
       232.000         187.000
  23386802.454     3878074.75649   3003298.00345  23386801.764    23386809.776
       219.000         160.000
  20259960.019    -1470564.54949  -1103455.30248  20259959.592    20259966.194
       246.000         216.000
  22282111.509    -4236487.32349  -3293100.27746  22282110.836    22282119.311
       229.000         178.000
  22926895.834     3015384.45449   2328012.60446  22926896.270    22926905.720
       226.000         174.000
  20513261.616    -1359201.61449  -1055714.63648  20513260.955    20513267.765
       245.000         215.000
  23993803.456    -3933283.03549  -3051024.17145  23993801.147    23993813.433
       215.000         147.000
 02  1 21  3  6  0.0000000  0  9G18G17G15G10G 6G26G30G23G22
  22001831.865    -5645043.72449  -4382521.42347  22001831.089    22001838.339
       236.000         191.000
  21580226.336    -3511286.12549  -2729736.62647  21580225.461    21580233.692
       240.000         202.000
  22160414.474    -3925287.89449  -3048044.78446  22160413.415    22160422.306
       232.000         187.000
  23405848.795     3978164.29849   3081289.86945  23405848.089    23405856.731
       219.000         161.000
  20259770.098    -1471562.57049  -1104232.94948  20259769.913    20259776.331
       247.000         216.000
  22270948.746    -4295147.25749  -3338809.18146  22270948.543    22270956.646
       228.000         178.000
  22945446.472     3112868.13149   2403973.84446  22945446.528    22945456.095
       227.000         173.000
  20514284.967    -1353823.69949  -1051524.01248  20514284.237    20514290.990
       245.000         215.000
  23984577.315    -3981766.62949  -3088803.42545  23984575.814    23984587.325
       213.000         146.000
 02  1 21  3  6 30.0000000  0  9G18G17G15G10G 6G26G30G23G22
  21986294.170    -5726694.86249  -4446145.55147  21986293.686    21986301.301
       238.000         192.000
  21574098.055    -3543490.10349  -2754830.55747  21574097.373    21574105.245
       240.000         202.000
  22150344.830    -3978203.45349  -3089277.57346  22150343.956    22150352.741
       233.000         187.000
  23424921.903     4078394.28449   3159391.16245  23424921.304    23424930.394
       219.000         161.000
  20259664.931    -1472115.29349  -1104663.61448  20259664.716    20259671.104
       246.000         216.000
  22259869.548    -4353368.21349  -3384176.02446  22259868.724    22259876.869
       228.000         178.000
  22964021.287     3210479.01849   2480034.20446  22964021.399    22964031.514
       225.000         173.000
  20515400.573    -1347961.05849  -1046955.68048  20515399.914    20515406.601
       245.000         215.000
  23975442.366    -4029769.89849  -3126208.40245  23975440.328    23975453.135
       213.000         145.000
 02  1 21  3  7  0.0000000  0  9G18G17G15G10G 6G26G30G23G22
  21970822.561    -5807998.29249  -4509498.74047  21970821.307    21970829.224
       236.000         192.000
  21567995.543    -3575558.84649  -2779819.11447  21567994.888    21568002.791
       240.000         203.000
  22140302.823    -4030973.93949  -3130397.31346  22140301.868    22140311.290
       233.000         187.000
  23444021.376     4178762.10949   3237599.84145  23444020.392    23444030.270
       219.000         161.000
  20259644.639    -1472221.75049  -1104746.53948  20259644.450    20259650.941
       247.000         216.000
  22248874.263    -4411147.44449  -3429198.66946  22248873.835    22248881.844
       227.000         177.000
  22982619.621     3308213.97549   2556191.23246  22982619.683    22982629.588
       226.000         172.000
  20516608.160    -1341615.11549  -1042010.74948  20516607.598    20516614.170
       245.000         215.000
  23966399.285    -4077291.93749  -3163238.39745  23966398.767    23966410.535
       217.000         147.000
 02  1 21  3  7 30.0000000  0  9G18G17G15G10G 6G26G30G23G22
  21955417.264    -5888952.66849  -4572579.93747  21955416.711    21955423.804
       236.000         191.000
  21561918.736    -3607492.73849  -2804702.58347  21561918.095    21561926.013
       240.000         203.000
  22130288.472    -4083598.91149  -3171403.66446  22130287.271    22130296.381
       232.000         187.000
  23463146.504     4279265.42349   3315914.11745  23463145.592    23463155.610
       220.000         162.000
  20259709.554    -1471880.74949  -1104480.79248  20259709.415    20259715.625
       247.000         217.000
  22237963.693    -4468481.91349  -3473874.74646  22237963.518    22237971.198
       228.000         178.000
  23001241.099     3406069.95349   2632442.56846  23001241.022    23001251.662
       225.000         172.000
  20517907.481    -1334786.86649  -1036689.99448  20517906.809    20517913.389
       245.000         215.000
  23957447.916    -4124331.31449  -3199892.31445  23957446.185    23957459.112
       213.000         147.000
 02  1 21  3  8  0.0000000  0  9G18G17G15G10G 6G26G30G23G22
  21940078.790    -5969556.22849  -4635387.77847  21940078.250    21940085.223
       236.000         192.000
  21555867.536    -3639292.09949  -2829481.23647  21555866.484    21555874.345
       240.000         203.000
  22120301.798    -4136078.74749  -3212296.92946  22120300.914    22120310.067
       233.000         187.000
  23482296.957     4379901.54049   3394331.86746  23482295.255    23482305.272
       221.000         163.000
  20259859.836    -1471091.14249  -1103865.49148  20259859.521    20259865.867
       246.000         216.000
  22227138.530    -4525368.58449  -3518201.89046  22227138.192    22227146.513
       230.000         179.000
  23019885.019     3504044.16549   2708786.02146  23019884.995    23019895.141
       224.000         172.000
  20519298.387    -1327477.35949  -1030994.23748  20519297.906    20519304.333
       245.000         215.000
  23948588.506    -4170886.82349  -3236169.16545  23948587.258    23948599.383
       210.000         147.000
 02  1 21  3  8 30.0000000  0  9G18G17G15G10G 6G26G30G23G22
  21924807.328    -6049807.62349  -4697921.19847  21924806.492    21924814.214
       236.000         192.000
  21549841.799    -3670957.31549  -2854155.35547  21549841.105    21549848.610
       240.000         203.000
  22110342.679    -4188413.96749  -3253077.50746  22110341.479    22110350.158
       233.000         187.000
  23501472.130     4480667.79549   3472851.03346  23501470.041    23501480.283
       219.000         164.000
  20260095.539    -1469852.08549  -1102899.96548  20260095.098    20260101.495
       246.000         216.000
  22216399.073    -4581804.75649  -3562177.99746  22216398.967    22216406.691
       230.000         180.000
  23038550.762     3602133.22949   2785218.96146  23038550.673    23038561.358
       223.000         172.000
  20520780.624    -1319688.19549  -1024924.71648  20520779.930    20520786.431
       245.000         215.000
  23939821.285    -4216957.57949  -3272068.26145  23939819.468    23939831.642
       210.000         145.000
 02  1 21  3  9  0.0000000  0  9G18G17G15G10G 6G26G30G23G22
  21909603.194    -6129705.16449  -4760178.90247  21909602.098    21909609.725
       237.000         192.000
  21543841.397    -3702488.79249  -2878725.26947  21543840.729    21543848.179
       240.000         203.000
  22100410.904    -4240604.85049  -3293745.62646  22100409.655    22100418.259
       233.000         187.000
  23520671.650     4581561.85749   3551469.77846  23520670.069    23520680.182
       220.000         164.000
  20260417.057    -1468162.37849  -1101583.29248  20260416.865    20260423.093
       246.000         216.000
  22205745.881    -4637787.32049  -3605800.65646  22205745.572    22205753.622
       229.000         180.000
  23057237.852     3700334.34249   2861739.21946  23057238.266    23057248.683
       223.000         172.000
  20522353.925    -1311420.21549  -1018482.09748  20522353.211    20522359.858
       245.000         214.000
  23931146.610    -4262542.06749  -3307588.46445  23931145.693    23931157.858
       213.000         146.000
 02  1 21  3  9 30.0000000  0  9G18G17G15G10G 6G26G30G23G22
  21894466.696    -6209247.43349  -4822159.76747  21894465.637    21894473.210
       237.000         193.000
  21537866.507    -3733886.75649  -2903191.15247  21537865.776    21537873.540
       240.000         203.000
  22090506.677    -4292651.55149  -3334301.40746  22090506.071    22090514.306
       234.000         187.000
  23539895.065     4682581.22749   3630186.16746  23539893.181    23539903.632
       220.000         164.000
  20260824.626    -1466020.74949  -1099914.46548  20260824.163    20260830.733
       246.000         216.000
  22195179.457    -4693313.40349  -3649067.61746  22195179.057    22195187.076
       229.000         180.000
  23075945.609     3798644.44149   2938344.38646  23075946.125    23075956.006
       224.000         171.000
  20524018.072    -1302674.72149  -1011667.38448  20524017.478    20524023.890
       245.000         214.000
  23922564.901    -4307639.17349  -3342728.92245  23922563.264    23922574.057
       207.000         144.000
 02  1 21  3 10  0.0000000  0  9G18G17G15G10G 6G26G30G23G22
  21879398.146    -6288432.74149  -4883862.48347  21879397.648    21879404.730
       238.000         193.000
  21531917.023    -3765151.63949  -2927553.33147  21531916.305    21531923.744
       241.000         203.000
  22080629.924    -4344554.36849  -3374745.06947  22080629.139    22080637.597
       234.000         188.000
  23559141.854     4783723.21049   3708998.10746  23559140.696    23559150.453
       222.000         164.000
  20261318.297    -1463426.26349  -1097892.76248  20261317.832    20261324.475
       246.000         216.000
  22184700.526    -4748380.12449  -3691976.63446  22184700.052    22184707.894
       229.000         180.000
  23094673.696     3897060.63149   3015032.23446  23094673.560    23094684.519
       224.000         170.000
  20525772.949    -1293452.87549  -1004481.48948  20525772.403    20525778.788
       245.000         214.000
  23914075.874    -4352247.83349  -3377488.72545  23914074.461    23914087.836
       211.000         146.000
 02  1 21  3 10 30.0000000  0  9G18G17G15G10G 6G26G30G23G22
  21864397.730    -6367260.02649  -4945286.22647  21864396.723    21864404.132
       237.000         193.000
  21525992.727    -3796283.87549  -2951812.15547  21525992.016    21525999.244
       241.000         203.000
  22070780.484    -4396313.62649  -3415076.86247  22070779.517    22070787.890
       234.000         188.000
  23578411.480     4884985.01249   3787903.41046  23578410.426    23578420.188
       221.000         164.000
  20261898.319    -1460378.09149  -1095517.53548  20261898.140    20261904.374
       247.000         216.000
  22174309.534    -4802984.72149  -3734525.55046  22174309.485    22174317.090
       229.000         181.000
  23113421.247     3995579.64349   3091800.20746  23113421.441    23113431.011
       222.000         169.000
  20527618.140    -1283756.15549   -996925.55948  20527617.386    20527624.016
       245.000         215.000
  23905680.341    -4396367.12649  -3411867.18045  23905679.313    23905691.948
       214.000         149.000
 02  1 21  3 11  0.0000000  0  9G18G17G15G10G 6G26G30G23G22
  21849465.692    -6445727.59249  -5006429.65847  21849465.110    21849472.220
       237.000         193.000
  21520093.635    -3827283.78049  -2975967.86347  21520092.670    21520100.081
       241.000         203.000
  22060958.282    -4447929.32949  -3455296.80247  22060956.967    22060965.653
       235.000         189.000
  23597703.417     4986364.68349   3866900.55846  23597702.221    23597712.320
       220.000         163.000
  20262564.968    -1456875.00949  -1092787.83548  20262564.548    20262570.719
       246.000         216.000
  22164007.141    -4857124.18649  -3776712.03946  22164007.207    22164014.662
       231.000         181.000
  23132187.862     4094198.71649   3168646.14746  23132188.269    23132197.900
       223.000         169.000
  20529553.523    -1273585.52449   -989000.35548  20529553.056    20529559.440
       246.000         215.000
  23897378.097    -4439995.83349  -3445863.38445  23897377.130    23897388.312
       212.000         150.000
 02  1 21  3 11 30.0000000  0 10G18G17G15G10G 6G26G21G30G23G22
  21834601.753    -6523837.64949  -5067294.51547  21834600.830    21834608.187
       238.000         193.000
  21514218.973    -3858155.11949  -3000023.39847  21514217.877    21514225.528
       240.000         203.000
  22051162.682    -4499405.42549  -3495407.95247  22051161.878    22051170.020
       234.000         189.000
  23617016.561     5087856.10449   3945984.78845  23617015.750    23617024.613
       219.000         162.000
  20263317.567    -1452919.84849  -1089705.86848  20263317.207    20263323.284
       246.000         216.000
  22153793.070    -4910799.22549  -3818536.63546  22153792.738    22153799.766
       230.000         181.000
  24837900.791    -3497248.47049  -2047476.56945  24837898.171    24837915.072
       208.000         140.000
  23150972.344     4192911.24549   3245564.89846  23150972.785    23150982.891
       224.000         170.000
  20531578.179    -1262946.06649   -980709.82848  20531577.764    20531584.076
       246.000         215.000
  23889168.535    -4483136.16949  -3479479.05045  23889168.393    23889178.647
       213.000         147.000
 02  1 21  3 12  0.0000000  0 10G18G17G15G10G 6G26G21G30G23G22
  21819806.622    -6601585.98549  -5127877.52547  21819805.743    21819812.791
       238.000         193.000
  21508369.086    -3888895.62849  -3023976.98547  21508368.087    21508375.695
       240.000         203.000
  22041394.118    -4550739.34649  -3535408.32347  22041393.051    22041401.363
       235.000         189.000
  23636350.792     5189459.17349   4025156.00545  23636349.845    23636359.901
       218.000         161.000
  20264156.942    -1448508.75149  -1086268.62848  20264156.626    20264162.989
       246.000         216.000
  22143668.306    -4964004.33749  -3859995.05946  22143667.548    22143676.296
       228.000         181.000
  24820332.605    -3589567.13949  -2119412.60745  24820331.142    24820346.569
       210.000         140.000
  23169774.623     4291716.96749   3322556.27046  23169775.618    23169785.689
       224.000         170.000
  20533692.290    -1251836.14049   -972052.70448  20533691.601    20533698.282
       245.000         215.000
  23881052.683    -4525784.85149  -3512711.58845  23881051.572    23881062.669
       212.000         144.000
 02  1 21  3 12 30.0000000  0 10G18G17G15G10G 6G26G21G30G23G22
  21805081.341    -6678967.48949  -5188174.69047  21805080.537    21805087.593
       238.000         193.000
  21502544.794    -3919502.02849  -3047826.06547  21502543.869    21502551.414
       240.000         203.000
  22031653.148    -4601927.65549  -3575295.21747  22031651.745    22031660.441
       234.000         189.000
  23655706.595     5291175.19349   4104415.25345  23655706.305    23655714.630
       216.000         158.000
  20265084.018    -1443636.98949  -1082472.42448  20265083.585    20265090.049
       246.000         216.000
  22133634.234    -5016732.99649  -3901082.22246  22133633.974    22133641.585
       230.000         181.000
  24802793.420    -3681733.44549  -2191229.95945  24802791.245    24802807.845
       209.000         140.000
  23188594.714     4390616.49849   3399620.73346  23188595.090    23188605.216
       223.000         169.000
  20535896.345    -1240253.46949   -963027.20248  20535895.615    20535902.335
       245.000         215.000
  23873031.357    -4567936.90149  -3545557.14645  23873029.965    23873041.349
       211.000         144.000
 02  1 21  3 13  0.0000000  0 10G18G17G15G10G 6G26G21G30G23G22
  21790425.830    -6755982.00749  -5248185.88947  21790425.213    21790431.914
       238.000         194.000
  21496745.725    -3949975.52049  -3071571.59147  21496745.043    21496752.760
       240.000         203.000
  22021939.669    -4652971.77549  -3615069.76747  22021938.439    22021947.292
       235.000         189.000
  23675083.138     5393000.40249   4183759.56745  23675081.922    23675090.770
       215.000         156.000
  20266098.669    -1438304.68849  -1078317.36248  20266098.502    20266104.554
       246.000         216.000
  22123691.199    -5068983.64349  -3941796.91546  22123690.818    22123698.812
       230.000         181.000
  24785283.387    -3773747.04049  -2262928.34045  24785281.057    24785297.207
       208.000         140.000
  23207431.770     4489605.73249   3476755.08746  23207432.789    23207442.634
       223.000         168.000
  20538189.830    -1228200.57349   -953635.29648  20538189.207    20538195.721
       245.000         214.000
  23865104.240    -4609592.53249  -3578015.83145  23865102.104    23865114.093
       212.000         149.000
 02  1 21  3 13 30.0000000  0 10G18G17G15G10G 6G26G21G30G23G22
  21775840.400    -6832628.50649  -5307910.31847  21775839.830    21775846.607
       238.000         194.000
  21490971.893    -3980317.03849  -3095214.27147  21490971.310    21490978.707
       241.000         203.000
  22012253.537    -4703872.62749  -3654732.68347  22012252.355    22012261.252
       235.000         189.000
  23694479.953     5494932.04249   4263186.80445  23694480.293    23694488.869
       214.000         155.000
  20267201.056    -1432511.64749  -1073803.27648  20267200.749    20267206.893
       247.000         216.000
  22113839.613    -5120753.99449  -3982137.35846  22113839.487    22113846.710
       230.000         182.000
  24767802.446    -3865607.02649  -2334507.02745  24767800.069    24767816.123
       206.000         139.000
  23226285.397     4588681.22749   3553956.66646  23226285.927    23226296.048
       224.000         169.000
  20540572.530    -1215679.35749   -943878.46148  20540571.958    20540578.370
       245.000         214.000
  23857271.883    -4650751.24349  -3610087.32445  23857270.206    23857281.891
       210.000         153.000
 02  1 21  3 14  0.0000000  0 10G18G17G15G10G 6G26G21G30G23G22
  21761325.141    -6908906.35449  -5367347.48847  21761324.179    21761331.640
       238.000         194.000
  21485222.979    -4010527.78949  -3118755.05547  21485222.400    21485229.732
       241.000         204.000
  22002594.451    -4754631.06049  -3694284.61147  22002593.312    22002602.041
       236.000         190.000
  23713896.564     5596966.90249   4342694.48345  23713896.171    23713904.518
       213.000         153.000
  20268391.180    -1426257.64349  -1068930.00648  20268390.835    20268397.098
       246.000         216.000
  22104079.784    -5172041.96549  -4022101.90646  22104079.234    22104087.162
       229.000         182.000
  24750350.992    -3957312.72649  -2405965.50545  24750349.899    24750364.813
       208.000         139.000
  23245154.714     4687839.26949   3631222.57046  23245155.494    23245164.563
       224.000         168.000
  20543043.987    -1202691.74949   -933758.20848  20543043.357    20543049.868
       245.000         214.000
  23849533.927    -4691412.69449  -3641771.35245  23849532.472    23849543.878
       208.000         151.000
 02  1 21  3 14 30.0000000  0 10G18G17G15G10G 6G26G21G30G23G22
  21746880.269    -6984814.18049  -5426496.32847  21746879.698    21746886.426
       239.000         195.000
  21479498.900    -4040607.82749  -3142193.99247  21479498.223    21479505.711
       241.000         204.000
  21992962.463    -4805247.12349  -3733725.61547  21992961.699    21992969.491
       235.000         190.000
  23733332.245     5699102.51649   4422280.66345  23733331.716    23733340.077
       215.000         153.000
  20269669.204    -1419541.43649  -1063696.57248  20269668.730    20269675.162
       246.000         216.000
  22094412.228    -5222844.70449  -4061688.34646  22094412.127    22094420.117
       229.000         182.000
  24732929.324    -4048863.03649  -2477302.92245  24732927.101    24732943.443
       207.000         139.000
  23264039.073     4787076.97549   3708550.53246  23264038.671    23264048.889
       221.000         166.000
  20545603.916    -1189239.02849   -923275.52848  20545603.135    20545609.737
       245.000         214.000
  23841890.815    -4731576.08549  -3673067.29245  23841888.364    23841900.664
       209.000         147.000
 02  1 21  3 15  0.0000000  0 10G18G17G15G10G 6G26G21G30G23G22
  21732506.094    -7060350.49949  -5485355.68247  21732505.220    21732512.217
       238.000         195.000
  21473799.634    -4070557.38649  -3165531.24747  21473798.778    21473806.475
       240.000         204.000
  21983357.534    -4855720.97749  -3773055.80447  21983356.139    21983364.500
       235.000         190.000
  23752786.622     5801336.49849   4501943.52445  23752785.249    23752796.368
       212.000         152.000
  20271035.319    -1412362.15749  -1058102.30448  20271034.915    20271041.215
       246.000         216.000
  22084837.546    -5273159.39049  -4100894.50846  22084837.355    22084844.617
       230.000         182.000
  24715537.307    -4140256.21149  -2548517.90145  24715535.241    24715550.927
       206.000         137.000
  23282938.122     4886391.41949   3785938.29046  23282939.237    23282947.019
       223.000         166.000
  20548252.068    -1175322.51249   -912431.44748  20548251.262    20548257.891
       245.000         214.000
  23834342.921    -4771240.25849  -3703974.23545  23834341.509    23834353.443
       213.000         149.000
 02  1 21  3 15 30.0000000  0 10G18G17G15G10G 6G26G21G30G23G22
  21718202.908    -7135513.87649  -5543924.43447  21718202.301    21718209.049
       238.000         195.000
  21468125.057    -4100376.94849  -3188767.20147  21468124.487    21468132.078
       241.000         204.000
  21973779.656    -4906052.82649  -3812275.33847  21973778.730    21973787.149
       234.000         190.000
  23772259.293     5903666.33849   4581681.06845  23772258.898    23772268.519
       215.000         152.000
  20272489.747    -1404719.13949  -1052146.67748  20272489.657    20272495.778
       247.000         216.000
  22075356.252    -5322983.44149  -4139718.34946  22075355.579    22075364.080
       229.000         182.000
  24698175.268    -4231490.86749  -2619609.38945  24698171.801    24698189.740
       204.000         137.000
  23301851.239     4985779.58649   3863383.50446  23301851.164    23301861.086
       224.000         167.000
  20550988.265    -1160943.80249   -901227.21848  20550987.677    20550994.247
       244.000         214.000
  23826890.000    -4810404.30549  -3734491.46645  23826888.129    23826900.035
       211.000         151.000
 02  1 21  3 16  0.0000000  0 10G18G17G15G10G 6G26G21G30G23G22
  21703970.927    -7210303.09749  -5602201.63147  21703970.104    21703977.110
       239.000         195.000
  21462475.328    -4130066.64449  -3211901.96747  21462474.598    21462482.186
       242.000         205.000
  21964228.715    -4956243.00349  -3851384.47047  21964227.792    21964235.928
       235.000         190.000
  23791749.829     6006089.79849   4661491.54145  23791749.305    23791759.112
       215.000         152.000
  20274032.591    -1396611.42049  -1045828.94948  20274032.060    20274038.448
       246.000         216.000
  22065968.850    -5372314.22549  -4178157.81246  22065969.167    22065976.507
       231.000         183.000
  24680843.698    -4322565.78549  -2690576.39745  24680842.179    24680857.485
       203.000         136.000
  23320777.743     5085238.61849   3940883.93346  23320778.411    23320787.727
       223.000         167.000
  20553812.068    -1146104.36649   -889663.98048  20553811.243    20553817.919
       245.000         214.000
  23819532.505    -4849067.53449  -3764618.40745  23819530.472    23819542.774
       209.000         148.000
 02  1 21  3 16 30.0000000  0 10G18G17G15G10G 6G26G21G30G23G22
  21689810.282    -7284717.18449  -5660186.51847  21689809.587    21689816.428
       240.000         196.000
  21456850.188    -4159627.07649  -3234936.00747  21456849.622    21456857.382
       242.000         205.000
  21954704.664    -5006292.01549  -3890383.60547  21954703.745    21954712.303
       235.000         191.000
  23811257.729     6108604.32849   4741372.99845  23811257.429    23811266.285
       216.000         152.000
  20275663.879    -1388038.52049  -1039148.73948  20275663.440    20275670.010
       246.000         216.000
  22056675.852    -5421149.17249  -4216210.92846  22056675.751    22056683.971
       231.000         183.000
  24663542.861    -4413479.52449  -2761417.83645  24663540.556    24663557.780
       203.000         135.000
  23339717.007     5184765.29849   4018437.07446  23339717.380    23339727.529
       222.000         166.000
  20556723.231    -1130805.73249   -877742.92548  20556722.497    20556729.191
       244.000         214.000
  23812270.578    -4887228.91349  -3794354.34145  23812269.679    23812280.443
       214.000         152.000
 02  1 21  3 17  0.0000000  0 10G18G17G15G10G 6G26G21G30G23G22
  21675721.360    -7358754.88049  -5717878.11947  21675720.601    21675727.749
       240.000         197.000
  21451249.593    -4189058.57149  -3257869.57547  21451248.899    21451256.425
       241.000         205.000
  21945207.396    -5056199.91449  -3929272.78747  21945206.500    21945214.825
       235.000         191.000
  23830782.306     6211207.05049   4821323.15945  23830781.923    23830791.299
       216.000         152.000
  20277383.891    -1378999.64549  -1032105.44248  20277383.709    20277389.886
       246.000         216.000
  22047477.645    -5469485.71649  -4253875.67646  22047477.489    22047485.114
       230.000         183.000
  24646272.910    -4504231.28949  -2832133.08745  24646270.292    24646286.339
       205.000         136.000
  23358668.598     5284356.33949   4096040.35746  23358669.240    23358678.368
       223.000         166.000
  20559721.497    -1115049.55149   -865465.34348  20559720.931    20559727.276
       245.000         214.000
  23805104.366    -4924888.22449  -3823699.03745  23805103.440    23805113.754
       216.000         155.000
 02  1 21  3 17 30.0000000  0 10G18G17G15G10G 6G26G21G30G23G22
  21661704.309    -7432414.38549  -5775275.01847  21661703.775    21661710.369
       240.000         198.000
  21445673.428    -4218361.24349  -3280702.76447  21445672.610    21445680.110
       241.000         205.000
  21935737.084    -5105966.71049  -3968052.02247  21935736.356    21935744.397
       236.000         192.000
  23850323.309     6313896.05949   4901340.54845  23850322.545    23850331.921
       214.000         152.000
  20279192.856    -1369493.54949  -1024698.07548  20279192.507    20279198.837
       246.000         216.000
  22038374.806    -5517321.03549  -4291149.83546  22038375.070    22038382.178
       230.000         183.000
  24629034.352    -4594818.66449  -2902720.24245  24629033.185    24629047.296
       206.000         137.000
  23377632.126     5384009.29649   4173691.89846  23377632.732    23377642.458
       222.000         167.000
  20562806.713    -1098836.83249   -852832.01848  20562806.126    20562812.491
       245.000         214.000
  23798033.757    -4962043.95649  -3852651.34045  23798032.595    23798043.064
       214.000         156.000
 02  1 21  3 18  0.0000000  0 10G18G17G15G10G 6G26G21G30G23G22
  21647759.609    -7505694.15149  -5832376.02347  21647758.898    21647765.602
       241.000         199.000
  21440121.707    -4247535.12449  -3303435.59047  21440121.023    21440128.455
       241.000         205.000
  21926293.644    -5155592.37849  -4006721.28047  21926292.174    21926301.166
       234.000         192.000
  23869880.198     6416669.15049   4981423.48445  23869880.136    23869891.143
       215.000         152.000
  20281090.871    -1359519.14249  -1016925.78448  20281090.643    20281096.875
       246.000         216.000
  22029367.905    -5564652.15049  -4328031.11946  22029367.506    22029374.312
       231.000         183.000
  24611827.322    -4685240.05149  -2973178.05145  24611826.867    24611841.939
       208.000         138.000
  23396606.753     5483721.47549   4251389.56646  23396607.166    23396617.463
       219.000         166.000
  20565978.513    -1082168.83349   -839843.92848  20565977.840    20565984.333
       245.000         214.000
  23791059.157    -4998695.33049  -3881210.60845  23791057.923    23791068.878
       214.000         154.000
 02  1 21  3 18 30.0000000  0 10G18G17G15G10G 6G26G21G30G23G22
  21633887.318    -7578593.26549  -5889180.41547  21633886.572    21633893.208
       242.000         199.000
  21434594.550    -4276580.40249  -3326068.20047  21434593.660    21434601.429
       241.000         205.000
  21916876.722    -5205077.27449  -4045280.84447  21916875.393    21916884.435
       235.000         191.000
  23889452.685     6519523.82049   5061569.96045  23889451.667    23889461.552
       216.000         153.000
  20283078.156    -1349075.90649  -1008788.17348  20283077.877    20283084.067
       246.000         215.000
  22020457.438    -5611476.68949  -4364517.67346  22020456.715    22020464.428
       231.000         184.000
  24594652.240    -4775494.63049  -3043505.88745  24594650.648    24594666.177
       210.000         139.000
  23415592.147     5583489.91249   4329131.07846  23415592.573    23415603.127
       221.000         165.000
  20569236.641    -1065047.06249   -826502.25148  20569235.714    20569242.310
       245.000         214.000
  23784180.680    -5034841.41949  -3909376.18445  23784179.575    23784189.782
       215.000         152.000
 02  1 21  3 19  0.0000000  0 10G18G17G15G10G 6G26G21G30G23G22
  21620087.728    -7651110.59449  -5945687.31847  21620087.305    21620093.302
       241.000         199.000
  21429091.718    -4305497.58449  -3348601.00047  21429090.999    21429098.573
       241.000         205.000
  21907486.674    -5254421.68149  -4083730.93547  21907485.174    21907493.672
       236.000         191.000
  23909040.253     6622457.35849   5141777.89645  23909040.226    23909049.331
       216.000         154.000
  20285154.718    -1338163.09349  -1000284.66148  20285154.420    20285160.572
       246.000         215.000
  22011643.860    -5657792.01249  -4400607.43646  22011643.686    22011651.100
       231.000         185.000
  24577509.156    -4865580.90749  -3113702.59345  24577508.965    24577520.755
       209.000         139.000
  23434587.695     5683311.38549   4406913.90446  23434588.442    23434598.200
       222.000         165.000
  20572580.723    -1047473.20549   -812808.29848  20572579.839    20572586.695
       244.000         214.000
  23777398.319    -5070481.66049  -3937147.61745  23777396.801    23777407.101
       218.000         155.000
 02  1 21  3 19 30.0000000  0 10G18G17G15G10G 6G26G21G30G23G22
  21606360.978    -7723244.85249  -6001895.72247  21606360.348    21606367.018
       241.000         199.000
  21423613.204    -4334286.92949  -3371034.18747  21423612.472    21423619.833
       241.000         205.000
  21898123.461    -5303626.00749  -4122071.87047  21898122.325    21898130.285
       236.000         191.000
  23928642.574     6725467.42149   5222045.45245  23928642.545    23928651.557
       218.000         154.000
  20287320.788    -1326780.11249   -991414.78048  20287320.390    20287326.741
       246.000         215.000
  22002927.623    -5703595.81149  -4436298.60046  22002927.580    22002934.644
       230.000         184.000
  24560398.360    -4955497.77349  -3183767.29145  24560397.051    24560410.484
       209.000         139.000
  23453592.760     5783182.97449   4484735.80346  23453592.796    23453603.087
       220.000         165.000
  20576010.567    -1029448.87949   -798763.32848  20576009.645    20576016.461
       244.000         214.000
  23770712.354    -5105615.53649  -3964524.46145  23770710.979    23770722.302
       217.000         157.000
 02  1 21  3 20  0.0000000  0 10G18G17G15G10G 6G26G21G30G23G22
  21592707.360    -7794994.55549  -6057804.47247  21592706.510    21592713.563
       241.000         200.000
  21418159.025    -4362948.47049  -3393367.78547  21418158.288    21418165.802
       241.000         205.000
  21888786.873    -5352689.88649  -4160303.36847  21888785.769    21888794.140
       236.000         191.000
  23948259.165     6828552.19249   5302371.22945  23948258.296    23948267.971
       218.000         154.000
  20289576.631    -1314925.79449   -982177.62348  20289576.359    20289582.531
       246.000         215.000
  21994309.200    -5748885.17949  -4471588.91146  21994308.817    21994315.820
       231.000         184.000
  24543320.060    -5045243.58249  -3253698.69845  24543318.204    24543332.564
       210.000         139.000
  23472606.754     5883102.04049   4562594.66646  23472606.653    23472617.209
       220.000         164.000
  20579525.956    -1010975.30549   -784368.29548  20579525.251    20579531.780
       245.000         214.000
  23764122.932    -5140241.91749  -3991505.84045  23764121.181    23764132.960
       215.000         157.000
 02  1 21  3 20 30.0000000  0 10G18G17G15G10G 6G26G21G30G23G22
  21579127.173    -7866358.68249  -6113412.77847  21579126.332    21579132.921
       241.000         200.000
  21412729.049    -4391482.59149  -3415602.09247  21412728.117    21412735.914
       241.000         205.000
  21879476.859    -5401613.90049  -4198425.87947  21879475.624    21879483.857
       236.000         192.000
  23967889.403     6931709.16349   5382753.28745  23967888.226    23967898.402
       216.000         154.000
  20291922.211    -1302599.58949   -972572.76848  20291921.815    20291928.037
       246.000         215.000
  21985789.224    -5793657.68549  -4506476.48446  21985788.865    21985795.738
       231.000         184.000
  24526274.480    -5134816.84549  -3323495.65145  24526272.605    24526287.891
       211.000         140.000
  23491629.146     5983065.62449   4640488.23246  23491629.713    23491639.799
       222.000         164.000
  20583126.488     -992054.18049   -769624.53048  20583125.878    20583132.387
       245.000         214.000
  23757630.232    -5174360.13449  -4018091.28645  23757629.325    23757639.528
       212.000         157.000
 02  1 21  3 21  0.0000000  0 10G18G17G15G10G 6G26G21G30G23G22
  21565620.574    -7937335.69449  -6168719.43847  21565619.872    21565626.421
       240.000         199.000
  21407323.365    -4419888.98749  -3437736.87647  21407322.559    21407330.119
       241.000         205.000
  21870193.476    -5450397.72949  -4236439.15647  21870192.431    21870201.069
       236.000         192.000
  23987532.937     7034936.22049   5463189.93745  23987532.307    23987541.055
       217.000         154.000
  20294357.773    -1289800.36449   -962599.32248  20294357.359    20294363.422
       246.000         215.000
  21977368.161    -5837910.51349  -4540959.10646  21977367.875    21977374.705
       232.000         185.000
  24509262.084    -5224215.92749  -3393156.90045  24509260.912    24509274.686
       211.000         142.000
  23510659.691     6083071.14749   4718414.48746  23510660.868    23510670.404
       220.000         163.000
  20586812.043     -972686.69949   -754532.95248  20586811.377    20586817.812
       245.000         214.000
  23751234.202    -5207969.29149  -4044280.01045  23751232.804    23751243.583
       212.000         155.000
 02  1 21  3 21 30.0000000  0 10G18G17G15G10G 6G26G21G30G23G22
  21552187.814    -8007924.66449  -6223723.72247  21552186.981    21552193.838
       240.000         200.000
  21401941.904    -4448168.53449  -3459772.81547  21401941.045    21401948.654
       241.000         205.000
  21860936.747    -5499041.73149  -4274343.46947  21860935.769    21860944.594
       236.000         193.000
  24007189.390     7138230.90849   5543679.30745  24007188.889    24007197.533
       217.000         153.000
  20296883.437    -1276527.85649   -952257.07248  20296883.200    20296889.390
       246.000         215.000
  21969046.366    -5881641.55749  -4575035.13846  21969045.966    21969052.648
       231.000         185.000
  24492283.166    -5313439.95949  -3462681.74945  24492282.556    24492296.251
       213.000         143.000
  23529697.566     6183115.29849   4796370.81845  23529698.199    23529709.486
       220.000         162.000
  20590582.098     -952874.75849   -739095.03848  20590581.387    20590587.965
       245.000         214.000
  23744935.388    -5241068.92449  -4070071.74945  23744934.224    23744944.377
       218.000         156.000
 02  1 21  3 22  0.0000000  0 10G18G17G15G10G 6G26G21G30G23G22
  21538829.153    -8078124.40949  -6278424.71647  21538828.379    21538835.175
       240.000         200.000
  21396584.604    -4476321.30749  -3481709.97647  21396584.173    21396591.254
       242.000         206.000
  21851706.567    -5547546.54049  -4312139.33047  21851705.339    21851713.607
       236.000         193.000
  24026858.295     7241590.67049   5624219.34845  24026857.852    24026865.759
       217.000         153.000
  20299499.287    -1262781.59549   -941545.67848  20299499.009    20299505.155
       246.000         215.000
  21960824.333    -5924848.34249  -4608702.66646  21960824.458    21960831.175
       231.000         184.000
  24475337.560    -5402487.64849  -3532069.18745  24475336.487    24475350.350
       211.000         143.000
  23548742.306     6283195.11949   4874354.95245  23548743.864    23548753.872
       221.000         162.000
  20594436.424     -932620.05749   -723312.12748  20594435.789    20594442.231
       244.000         214.000
  23738733.732    -5273658.53149  -4095466.09745  23738732.807    23738742.357
       216.000         157.000
 02  1 21  3 22 30.0000000  0 10G18G17G15G10G 6G26G21G30G23G22
  21525544.810    -8147933.64449  -6332821.42447  21525543.856    21525550.383
       241.000         200.000
  21391251.423    -4504347.49249  -3503548.49247  21391250.925    21391258.055
       242.000         206.000
  21842502.744    -5595911.89649  -4349826.52547  21842501.531    21842509.850
       236.000         192.000
  24046539.086     7345013.41849   5704808.48545  24046538.718    24046547.430
       216.000         152.000
  20302205.456    -1248560.62649   -930464.38448  20302205.176    20302211.082
       246.000         215.000
  21952702.554    -5967528.39649  -4641959.76046  21952702.330    21952709.270
       232.000         185.000
  24458426.000    -5491357.00549  -3601317.65845  24458424.745    24458438.884
       211.000         143.000
  23567793.364     6383307.93449   4952364.79546  23567794.266    23567804.062
       221.000         163.000
  20598374.685     -911924.07149   -707185.35048  20598373.952    20598380.645
       244.000         214.000
  23732629.082    -5305737.48149  -4120462.45145  23732626.724    23732638.371
       213.000         155.000
 02  1 21  3 23  0.0000000  0 10G18G17G15G10G 6G26G21G30G23G22
  21512335.055    -8217351.10349  -6386912.85247  21512334.341    21512340.509
       242.000         200.000
  21385942.351    -4532247.03249  -3525288.33047  21385941.481    21385948.738
       241.000         206.000
  21833325.506    -5644137.99449  -4387405.20647  21833324.764    21833332.212
       236.000         192.000
  24066231.535     7448497.07049   5785445.08245  24066230.226    24066238.732
       212.000         151.000
  20305002.055    -1233864.25049   -919012.64048  20305001.610    20305007.827
       246.000         215.000
  21944681.487    -6009679.00849  -4674804.29746  21944680.934    21944687.696
       231.000         185.000
  24441548.526    -5580047.53649  -3670426.78345  24441547.299    24441561.325
       213.000         143.000
  23586850.076     6483451.00749   5030398.20445  23586849.764    23586861.488
       219.000         162.000
  20602396.648     -890788.25149   -690715.84948  20602395.878    20602402.373
       245.000         214.000
  23726621.730    -5337304.88949  -4145060.24945  23726620.083    23726631.476
       214.000         154.000
 02  1 21  3 23 30.0000000  0 10G18G17G15G10G 6G26G21G30G23G22
  21499200.080    -8286375.50849  -6440698.00547  21499199.234    21499205.765
       241.000         201.000
  21380657.241    -4560020.28949  -3546929.76547  21380656.589    21380663.786
       241.000         206.000
  21824174.850    -5692224.85749  -4424875.38847  21824173.839    21824181.955
       236.000         192.000
  24085935.138     7552039.36949   5866127.37945  24085934.265    24085943.284
       214.000         152.000
  20307889.224    -1218691.87149   -907189.98448  20307888.941    20307894.951
       246.000         215.000
  21936761.554    -6051297.94149  -4707234.54346  21936761.166    21936767.885
       231.000         184.000
  24424705.351    -5668557.49749  -3739395.20145  24424702.590    24424718.323
       210.000         143.000
  23605911.832     6583621.39949   5108452.89745  23605912.247    23605922.072
       219.000         159.000
  20606502.027     -869214.13549   -673904.82148  20606501.356    20606507.925
       244.000         214.000
  23720711.939    -5368360.16549  -4169258.98745  23720710.784    23720721.402
       217.000         157.000
 02  1 21  3 24  0.0000000  0 10G18G17G15G10G 6G26G21G30G23G22
  21486140.035    -8355006.02149  -6494176.22747  21486139.555    21486145.408
       242.000         201.000
  21375396.149    -4587667.39849  -3568472.90247  21375395.532    21375402.531
       242.000         206.000
  21815050.543    -5740172.70749  -4462237.24247  21815049.685    21815058.222
       236.000         193.000
  24105649.399     7655638.07149   5946853.59845  24105649.126    24105656.560
       214.000         150.000
  20310867.167    -1203042.78449   -894995.86548  20310866.959    20310872.789
       246.000         215.000
  21928943.324    -6092382.58449  -4739248.45246  21928943.119    21928949.911
       232.000         185.000
  24407896.558    -5756885.82749  -3808222.06945  24407894.996    24407910.077
       210.000         143.000
  23624978.418     6683816.30349   5186526.70845  23624977.998    23624988.914
       218.000         157.000
  20610690.554     -847203.25449   -656753.45248  20610689.906    20610696.297
       245.000         214.000
  23714899.808    -5398902.77549  -4193058.24045  23714899.157    23714909.239
       220.000         162.000
 02  1 21  3 24 30.0000000  0 10G18G17G15G10G 6G26G21G30G23G22
  21473155.311    -8423241.15449  -6547346.36447  21473154.405    21473160.975
       242.000         201.000
  21370159.077    -4615188.27949  -3589917.68147  21370158.397    21370165.626
       242.000         206.000
  21805952.724    -5787981.49849  -4499490.73947  21805951.884    21805960.328
       236.000         193.000
  24125373.769     7759290.96149   6027622.04745  24125372.952    24125382.619
       209.000         150.000
  20313935.936    -1186916.22949   -882429.70348  20313935.635    20313941.589
       246.000         214.000
  21921227.229    -6132930.45549  -4770844.11546  21921226.701    21921233.420
       231.000         185.000
  24391122.842    -5845030.58449  -3876905.89045  24391121.368    24391135.508
       212.000         144.000
  23644049.117     6784033.16649   5264617.63045  23644048.666    23644059.057
       219.000         157.000
  20614961.920     -824757.00849   -639262.84548  20614961.409    20614967.644
       244.000         213.000
  23709185.482    -5428932.00949  -4216457.45746  23709184.963    23709195.071
       220.000         163.000
 02  1 21  3 25  0.0000000  0 10G18G17G15G10G 6G26G21G30G23G22
  21460245.896    -8491080.01449  -6600207.71747  21460244.982    21460251.567
       242.000         201.000
  21364945.932    -4642583.43849  -3611264.48847  21364945.246    21364952.152
       242.000         206.000
  21796881.308    -5835651.62049  -4536636.18347  21796880.314    21796888.453
       236.000         193.000
  24145108.102     7862995.38549   6108430.67545  24145106.101    24145117.018
       208.000         149.000
  20317095.607    -1170311.81949   -869491.17648  20317095.298    20317101.309
       245.000         214.000
  21913613.640    -6172939.56949  -4802019.95546  21913613.141    21913620.189
       231.000         185.000
  24374384.311    -5932990.88949  -3945445.97845  24374383.116    24374396.992
       211.000         145.000
  23663123.355     6884268.69449   5342723.08845  23663124.100    23663134.217
       217.000         157.000
  20619315.733     -801877.48149   -621434.61248  20619314.935    20619321.476
       244.000         213.000
  23703568.800    -5458447.64749  -4239456.47645  23703567.272    23703578.398
       218.000         162.000
 02  1 21  3 25 30.0000000  0 10G18G17G15G10G 6G26G21G30G23G22
  21447412.113    -8558521.42149  -6652759.36547  21447411.706    21447417.432
       242.000         202.000
  21359756.654    -4669852.96449  -3632513.40447  21359755.869    21359763.097
       242.000         207.000
  21787836.273    -5883183.23549  -4573673.69747  21787835.216    21787843.448
       236.000         192.000
  24164851.705     7966749.29349   6189277.83545  24164850.312    24164860.753
       208.000         148.000
  20320346.346    -1153228.94249   -856179.82048  20320346.007    20320351.945
       245.000         214.000
  21906103.019    -6212407.39149  -4832774.01946  21906102.950    21906110.089
       232.000         186.000
  24357681.167    -6020765.46549  -4013841.31845  24357680.119    24357692.513
       213.000         146.000
  23682200.616     6984520.25949   5420841.02445  23682200.734    23682211.661
       216.000         156.000
  20623751.674     -778566.17249   -603269.92448  20623750.844    20623757.389
       244.000         213.000
  23698049.941    -5487448.99749  -4262054.75345  23698047.643    23698057.908
       215.000         156.000
 02  1 21  3 26  0.0000000  0 10G18G17G15G10G 6G26G21G30G23G22
  21434654.250    -8625564.15649  -6705000.36247  21434653.468    21434659.873
       242.000         202.000
  21354591.310    -4696996.71549  -3653664.31247  21354590.355    21354597.560
       242.000         207.000
  21778817.679    -5930576.06949  -4610603.07247  21778816.649    21778824.231
       236.000         192.000
  24184604.404     8070551.16649   6270162.36245  24184603.457    24184613.156
       209.000         146.000
  20323688.318    -1135666.62049   -842494.87448  20323687.884    20323694.080
       245.000         214.000
  21898696.069    -6251331.36349  -4863104.30446  21898695.828    21898703.125
       232.000         187.000
  24341013.762    -6108352.04449  -4082090.17645  24341012.648    24341025.584
       213.000         147.000
  23701280.408     7084785.12249   5498969.30945  23701281.624    23701292.390
       218.000         157.000
  20628269.516     -754824.45249   -584769.85048  20628268.627    20628275.265
       243.000         213.000
  23692628.966    -5515935.32049  -4284251.75645  23692628.714    23692636.019
       217.000         153.000
 02  1 21  3 26 30.0000000  0 10G18G17G15G10G 6G26G21G30G23G22
  21421972.270    -8692207.93349  -6756930.48247  21421971.558    21421977.889
       242.000         203.000
  21349449.686    -4724015.65349  -3674717.95447  21349448.764    21349456.088
       242.000         207.000
  21769825.380    -5977830.85949  -4647424.87847  21769824.614    21769832.128
       237.000         192.000
  24204365.784     8174397.68249   6351081.67645  24204365.896    24204375.772
       207.000         145.000
  20327121.462    -1117625.32949   -828436.70348  20327121.227    20327127.195
       245.000         214.000
  21891392.783    -6289710.13449  -4893009.75046  21891392.674    21891399.429
       232.000         187.000
  24324382.271    -6195750.53349  -4150192.45445  24324381.361    24324393.024
       212.000         147.000
  23720362.200     7185059.76149   5577105.23645  23720363.114    23720374.665
       218.000         158.000
  20632868.776     -730654.83449   -565936.34748  20632868.402    20632874.630
       244.000         213.000
  23687306.183    -5543906.91549  -4306047.63545  23687304.550    23687314.227
       216.000         154.000
 02  1 21  3 27  0.0000000  0 10G18G17G15G10G 6G26G21G30G23G22
  21409366.561    -8758451.12149  -6808548.44847  21409365.705    21409371.941
       242.000         203.000
  21344331.890    -4750909.35949  -3695674.01847  21344331.217    21344338.312
       242.000         207.000
  21760859.476    -6024947.33349  -4684138.90547  21760858.481    21760866.229
       237.000         193.000
  24224135.363     8278287.09449   6432034.41145  24224135.320    24224143.752
       208.000         145.000
  20330645.977    -1099103.78349   -814004.30948  20330645.707    20330651.566
       245.000         214.000
  21884193.827    -6327540.66549  -4922488.00546  21884193.818    21884200.280
       233.000         187.000
  24307786.602    -6282959.47449  -4218147.01045  24307784.881    24307798.404
       211.000         146.000
  23739445.391     7285341.94249   5655247.02045  23739445.714    23739457.154
       217.000         158.000
  20637549.326     -706058.46749   -546770.31448  20637548.702    20637555.198
       244.000         213.000
  23682081.355    -5571362.91849  -4327441.74245  23682080.697    23682089.876
       220.000         158.000
 02  1 21  3 27 30.0000000  0 10G18G17G15G10G 6G26G21G30G23G22
  21396837.186    -8824292.99749  -6859853.71147  21396836.239    21396842.646
       242.000         203.000
  21339237.910    -4777678.24649  -3716532.82847  21339237.144    21339244.137
       243.000         207.000
  21751919.708    -6071925.93649  -4720745.50447  21751918.520    21751926.119
       237.000         193.000
  24243912.740     8382217.03549   6513018.74145  24243911.279    24243922.914
       209.000         143.000
  20334261.908    -1080101.72349   -799197.49348  20334261.414    20334267.475
       245.000         214.000
  21877099.593    -6364821.17749  -4951537.67546  21877099.619    21877105.544
       232.000         187.000
  24291227.039    -6369978.11549  -4285953.28745  24291224.915    24291238.689
       213.000         146.000
  23758529.426     7385628.59749   5733392.28645  23758530.382    23758541.239
       218.000         158.000
  20642310.707     -681037.37249   -527273.32348  20642310.126    20642316.546
       244.000         213.000
  23676954.816    -5598303.01349  -4348433.85245  23676954.485    23676963.264
       220.000         161.000
 02  1 21  3 28  0.0000000  0 10G18G17G15G10G 6G26G21G30G23G22
  21384384.478    -8889732.11049  -6910845.13447  21384383.759    21384389.879
       242.000         203.000
  21334167.826    -4804321.96149  -3737294.11147  21334167.053    21334174.290
       242.000         207.000
  21743006.226    -6118766.12549  -4757244.25947  21743005.241    21743013.041
       238.000         194.000
  24263697.428     8486185.79949   6594033.34945  24263696.712    24263706.302
       206.000         143.000
  20337969.419    -1060618.31149   -784015.59848  20337969.007    20337975.075
       245.000         214.000
  21870110.467    -6401548.86349  -4980156.57046  21870109.928    21870116.951
       232.000         187.000
  24274704.083    -6456804.27949  -4353609.56345  24274702.393    24274715.084
       212.000         147.000
  23777613.911     7485917.35749   5811539.17945  23777614.030    23777625.855
       218.000         158.000
  20647152.660     -655592.55349   -507446.15748  20647151.984    20647158.463
       244.000         213.000
  23671926.381    -5624726.47349  -4369023.43745  23671924.927    23671936.850
       216.000         156.000
 02  1 21  3 28 30.0000000  0 10G18G17G15G10G 6G26G21G30G23G22
  21372008.690    -8954767.07349  -6961521.63747  21372008.027    21372014.024
       243.000         203.000
  21329121.368    -4830840.61149  -3757957.93247  21329120.587    21329127.472
       242.000         207.000
  21734119.180    -6165468.03849  -4793635.25447  21734118.403    21734125.567
       238.000         194.000
  24283488.987     8590191.44649   6675076.62545  24283488.771    24283497.841
       209.000         143.000
  20341768.715    -1040652.84649   -768458.07848  20341768.547    20341774.412
       246.000         214.000
  21863226.979    -6437721.18149  -5008342.70546  21863226.753    21863232.702
       232.000         187.000
  24258218.295    -6543436.18949  -4421114.49945  24258217.585    24258229.165
       212.000         147.000
  23796698.228     7586205.55249   5889685.63245  23796698.968    23796710.113
       218.000         158.000
  20652074.970     -629725.69649   -487290.12948  20652074.486    20652080.505
       245.000         213.000
  23666996.351    -5650632.66749  -4389209.98445  23666995.950    23667005.414
       214.000         153.000
 02  1 21  3 29  0.0000000  0 10G18G17G15G10G 6G26G21G30G23G22
  21359709.831    -9019397.55749  -7011882.95947  21359708.951    21359715.019
       242.000         203.000
  21324098.728    -4857234.67349  -3778524.67647  21324098.074    21324105.018
       242.000         207.000
  21725258.220    -6212032.31649  -4829919.00547  21725256.898    21725264.393
       237.000         194.000
  24303287.011     8694231.24849   6756146.59745  24303285.865    24303298.205
       208.000         144.000
  20345659.717    -1020205.50049   -752525.06548  20345659.493    20345665.472
       245.000         214.000
  21856449.477    -6473336.80249  -5036095.05146  21856449.465    21856455.569
       232.000         187.000
  24241769.541    -6629873.34649  -4488467.68145  24241767.733    24241780.822
       215.000         147.000
  23815781.828     7686489.91149   5967829.09145  23815782.707    23815794.057
       217.000         156.000
  20657077.170     -603439.07949   -466807.01548  20657076.523    20657082.775
       244.000         213.000
  23662164.804    -5676021.78049  -4408993.55245  23662164.404    23662174.023
       214.000         153.000
 02  1 21  3 29 30.0000000  0 10G18G17G15G10G 6G26G21G30G23G22
  21347488.161    -9083622.20149  -7061928.04947  21347487.402    21347493.734
       242.000         203.000
  21319099.828    -4883504.12149  -3798994.31747  21319099.125    21319105.892
       242.000         207.000
  21716423.438    -6258458.73549  -4866095.33247  21716421.984    21716430.196
       237.000         194.000
  24323091.033     8798303.47049   6837241.74745  24323089.256    24323098.887
       209.000         143.000
  20349642.590     -999275.57349   -736216.01448  20349642.296    20349648.287
       246.000         214.000
  21849778.430    -6508393.11249  -5063411.58246  21849778.213    21849785.148
       232.000         187.000
  24225358.181    -6716114.58149  -4555668.19545  24225356.075    24225369.397
       216.000         148.000
  23834864.323     7786768.02349   6045967.67145  23834865.276    23834875.894
       217.000         156.000
  20662158.934     -576734.04349   -445997.85748  20662158.186    20662164.606
       244.000         213.000
  23657431.681    -5700893.29849  -4428373.79945  23657429.512    23657440.130
       214.000         152.000
 02  1 21  3 30  0.0000000  0 10G18G17G15G10G 6G26G21G30G23G22
  21335343.884    -9147440.24649  -7111656.30547  21335343.169    21335349.354
       241.000         203.000
  21314124.527    -4909649.09149  -3819366.96547  21314123.799    21314130.559
       243.000         207.000
  21707614.799    -6304747.50749  -4902164.39847  21707613.842    21707622.001
       237.000         194.000
  24342900.873     8902405.69349   6918360.36945  24342899.961    24342912.392
       209.000         145.000
  20353717.275     -977862.74649   -719530.67448  20353716.925    20353722.982
       245.000         214.000
  21843214.110    -6542888.25349  -5090290.82846  21843213.658    21843220.332
       231.000         186.000
  24208984.190    -6802158.92749  -4622715.31045  24208982.370    24208994.574
       216.000         148.000
  23853945.047     7887036.82549   6124098.99945  23853946.017    23853956.510
       217.000         156.000
  20667319.931     -549612.49149   -424864.13748  20667319.173    20667325.610
       244.000         213.000
  23652797.320    -5725246.83449  -4447350.44845  23652795.890    23652805.521
       217.000         152.000
 02  1 21  3 30 30.0000000  0 10G18G17G15G10G 6G26G21G30G23G22
  21323277.153    -9210850.78449  -7161067.02247  21323276.583    21323282.794
       242.000         203.000
  21309172.940    -4935669.82449  -3839642.80447  21309172.277    21309179.189
       242.000         207.000
  21698832.368    -6350898.84949  -4938126.38247  21698831.242    21698839.197
       237.000         194.000
  24362716.167     9006535.71849   6999500.58745  24362714.504    24362725.860
       212.000         143.000
  20357883.904     -955966.75849   -702468.84548  20357883.650    20357889.624
       245.000         214.000
  21836756.982    -6576820.10049  -5116731.15746  21836756.848    21836763.140
       232.000         186.000
  24192647.802    -6888005.36049  -4689608.20945  24192645.840    24192658.202
       216.000         150.000
  23873023.437     7987293.55449   6202220.92345  23873024.239    23873036.241
       217.000         157.000
  20672559.857     -522076.36649   -403407.37948  20672559.155    20672565.553
       244.000         213.000
  23648261.501    -5749082.34349  -4465923.44745  23648259.850    23648269.836
       215.000         152.000
 02  1 21  3 31  0.0000000  0 10G18G17G15G10G 6G26G21G30G23G22
  21311288.254    -9273852.75449  -7210159.37847  21311287.523    21311293.657
       243.000         204.000
  21304244.961    -4961566.22949  -3859821.76447  21304243.989    21304251.167
       242.000         207.000
  21690076.168    -6396912.61149  -4973981.16547  21690075.473    21690083.037
       238.000         195.000
  24382536.302     9110691.73749   7080661.09145  24382535.672    24382547.252
       211.000         146.000
  20362142.590     -933587.08349   -685030.12648  20362142.382    20362148.380
       245.000         214.000
  21830407.491    -6610186.41849  -5142730.80646  21830407.184    21830414.011
       232.000         187.000
  24176349.503    -6973652.21949  -4756345.61045  24176348.073    24176360.918
       214.000         151.000
  23892099.043     8087535.65649   6280331.44545  23892100.273    23892110.904
       218.000         157.000
  20677878.374     -494127.23349   -381628.79348  20677877.593    20677884.021
       244.000         213.000
  23643824.108    -5772399.37849  -4484092.44145  23643822.772    23643832.520
       213.000         151.000
 02  1 21  3 31 30.0000000  0 10G18G17G15G10G 6G26G21G30G23G22
  21299377.265    -9336445.14549  -7258932.57647  21299376.498    21299382.767
       242.000         205.000
  21299340.588    -4987338.42849  -3879903.93747  21299339.684    21299347.032
       242.000         207.000
  21681346.154    -6442788.86849  -5009728.79947  21681345.307    21681352.652
       237.000         195.000
  24402361.124     9214871.63449   7161840.20445  24402360.048    24402371.053
       211.000         145.000
  20366493.428     -910723.26249   -667214.14548  20366492.940    20366499.082
       245.000         214.000
  21824165.972    -6642985.22849  -5168288.24446  21824165.894    21824172.544
       232.000         187.000
  24160089.386    -7059098.18749  -4822926.46545  24160087.689    24160101.212
       216.000         152.000
  23911171.452     8187760.34449   6358428.38645  23911172.140    23911182.990
       219.000         157.000
  20683275.127     -465766.96449   -359529.84348  20683274.427    20683280.767
       244.000         213.000
  23639485.480    -5795197.83349  -4501857.32945  23639483.966    23639495.223
       207.000         151.000
 02  1 21  3 32  0.0000000  0 10G18G17G15G10G 6G26G21G30G23G22
  21287544.277    -9398627.42249  -7307386.20947  21287543.600    21287549.482
       242.000         205.000
  21294459.814    -5012986.64849  -3899889.50547  21294459.183    21294466.238
       242.000         207.000
  21672642.203    -6488528.06049  -5045369.63647  21672641.133    21672648.923
       238.000         196.000
  24422190.061     9319072.75649   7243035.87345  24422190.000    24422200.538
       215.000         147.000
  20370936.366     -887375.33049   -649020.94348  20370936.014    20370942.335
       245.000         213.000
  21818032.845    -6675214.81949  -5193402.14347  21818032.710    21818039.303
       232.000         188.000
  24143867.748    -7144342.41949  -4889350.14845  24143866.489    24143877.980
       216.000         152.000
  23930239.835     8287964.46749   6436509.31445  23930241.668    23930251.437
       219.000         156.000
  20688749.722     -436997.47849   -337112.02448  20688748.967    20688755.442
       244.000         213.000
  23635245.204    -5817477.51349  -4519217.97145  23635243.371    23635254.928
       209.000         149.000
 02  1 21  3 32 30.0000000  0 10G18G17G15G10G 6G26G21G30G23G22
  21275789.623    -9460398.52549  -7355519.44747  21275788.888    21275794.828
       243.000         205.000
  21289602.622    -5038510.97549  -3919778.53847  21289601.975    21289608.916
       243.000         207.000
  21663964.348    -6534130.04149  -5080903.55647  21663963.370    21663971.067
       238.000         196.000
  24442022.648     9423293.45249   7324246.74045  24442022.110    24442033.102
       216.000         145.000
  20375471.508     -863542.69849   -630450.04448  20375471.185    20375477.291
       245.000         213.000
  21812008.489    -6706872.77149  -5218070.59647  21812008.711    21812014.859
       232.000         188.000
  24127684.721    -7229383.62949  -4955615.64145  24127683.452    24127695.358
       217.000         151.000
  23949303.727     8388145.63349   6514572.35545  23949304.631    23949315.920
       220.000         156.000
  20694301.937     -407820.36549   -314376.57248  20694301.243    20694307.586
       244.000         213.000
  23631104.289    -5839238.13249  -4536174.16545  23631103.388    23631113.294
       212.000         150.000
 02  1 21  3 33  0.0000000  0 10G18G17G15G10G 6G26G21G30G23G22
  21264113.254    -9521757.91549  -7403331.87747  21264112.481    21264118.598
       242.000         205.000
  21284769.057    -5063911.71849  -3939571.26847  21284768.302    21284775.218
       242.000         207.000
  21655312.526    -6579595.32849  -5116330.97447  21655311.570    21655319.342
       238.000         196.000
  24461858.654     9527531.29849   7405471.02745  24461858.268    24461870.597
       213.000         148.000
  20380098.914     -839225.51749   -611501.57148  20380098.571    20380104.733
       245.000         213.000
  21806093.168    -6737957.52549  -5242292.41146  21806092.816    21806099.394
       233.000         187.000
  24111540.310    -7314221.11749  -5021722.42645  24111538.939    24111550.782
       219.000         151.000
  23968362.885     8488300.65849   6592615.02345  23968363.038    23968374.242
       218.000         156.000
  20699931.278     -378237.80149   -291325.18148  20699930.566    20699937.081
       243.000         213.000
  23627062.199    -5860479.90149  -4552726.09345  23627061.286    23627070.597
       216.000         152.000
 02  1 21  3 33 30.0000000  0 10G18G17G15G10G 6G26G21G30G23G22
  21252515.360    -9582704.51849  -7450822.64847  21252514.320    21252520.779
       242.000         205.000
  21279959.039    -5089188.67749  -3959267.54747  21279958.341    21279965.226
       243.000         207.000
  21646686.776    -6624923.75649  -5151651.74547  21646685.701    21646693.113
       238.000         196.000
  24481697.553     9631784.65349   7486707.36045  24481697.424    24481706.011
       215.000         147.000
  20384818.650     -814423.15549   -592175.03848  20384818.564    20384824.483
       246.000         213.000
  21800287.329    -6768467.00049  -5266065.96046  21800287.185    21800293.741
       231.000         187.000
  24095435.018    -7398853.46249  -5087669.34645  24095433.129    24095444.009
       215.000         151.000
  23987416.485     8588427.17149   6670635.47145  23987416.407    23987428.812
       218.000         156.000
  20705637.435     -348251.48149   -267959.17947  20705636.606    20705642.767
       244.000         212.000
  23623118.999    -5881202.33849  -4568873.33445  23623118.355    23623127.532
       215.000         154.000
 02  1 21  3 34  0.0000000  0 10G18G17G15G10G 6G26G21G30G23G22
  21240996.222    -9643237.20949  -7497990.89147  21240995.994    21241001.506
       243.000         205.000
  21275172.499    -5114342.03749  -3978867.51347  21275171.675    21275178.288
       242.000         207.000
  21638086.986    -6670115.16849  -5186865.74647  21638086.035    21638093.649
       238.000         196.000
  24501538.966     9736051.34749   7567954.08145  24501538.498    24501549.327
       214.000         147.000
  20389630.841     -789135.18949   -572470.11548  20389630.503    20389636.664
       246.000         214.000
  21794591.325    -6798399.11549  -5289389.61846  21794591.458    21794597.778
       232.000         187.000
  24079369.026    -7483279.27849  -5153455.35345  24079368.570    24079379.524
       217.000         151.000
  24006464.040     8688522.28249   6748631.42345  24006464.291    24006476.430
       216.000         155.000
  20711420.090     -317863.16549   -244279.93747  20711419.333    20711425.496
       244.000         212.000
  23619274.337    -5901405.33949  -4584615.82545  23619272.408    23619282.701
       211.000         153.000
 02  1 21  3 34 30.0000000  0 10G18G17G15G10G 6G26G21G30G23G22
  21229556.221    -9703354.81249  -7544835.69847  21229555.225    21229561.335
       243.000         205.000
  21270409.505    -5139371.33949  -3998370.80547  21270408.513    21270415.449
       242.000         207.000
  21629513.428    -6715169.06849  -5221972.59347  21629512.240    21629519.637
       238.000         196.000
  24521382.663     9840329.53949   7649209.81045  24521382.510    24521393.077
       212.000         147.000
  20394535.488     -763360.95049   -552386.27248  20394535.287    20394541.281
       245.000         214.000
  21789005.746    -6827751.60149  -5312261.61947  21789005.725    21789012.081
       232.000         188.000
  24063342.668    -7567496.90849  -5219079.12945  24063340.616    24063353.304
       216.000         151.000
  24025505.174     8788583.78349   6826601.18545  24025505.699    24025516.930
       215.000         154.000
  20717279.001     -287074.25149   -220288.54047  20717278.237    20717284.430
       243.000         212.000
  23615528.413    -5921088.33349  -4599953.11845  23615527.640    23615537.481
       212.000         153.000
 02  1 21  3 35  0.0000000  0 10G18G17G15G10G 6G26G21G30G23G22
  21218195.153    -9763057.25149  -7591356.99447  21218194.290    21218200.535
       243.000         205.000
  21265669.979    -5164277.01849  -4017777.76847  21265668.824    21265676.171
       242.000         207.000
  21620965.966    -6760086.19149  -5256972.85847  21620964.977    21620972.597
       238.000         196.000
  24541227.957     9944616.99349   7730472.67845  24541227.812    24541236.733
       213.000         148.000
  20399532.641     -737100.63149   -531923.66848  20399532.288    20399538.361
       245.000         213.000
  21783530.699    -6856523.15249  -5334680.94547  21783530.765    21783537.352
       233.000         188.000
  24047355.815    -7651505.87549  -5284540.31145  24047354.903    24047366.563
       213.000         152.000
  24044539.389     8888608.64649   6904542.40145  24044541.141    24044551.478
       215.000         153.000
  20723213.745     -255886.95249   -195986.71647  20723212.988    20723219.182
       244.000         212.000
  23611881.646    -5940251.71149  -4614885.49645  23611881.565    23611891.157
       212.000         155.000
 02  1 21  3 35 30.0000000  0 10G18G17G15G10G 6G26G21G30G23G22
  21206913.244    -9822343.28649  -7637553.82247  21206912.230    21206918.650
       242.000         205.000
  21260954.004    -5189058.93749  -4037088.29247  21260953.238    21260960.280
       242.000         207.000
  21612444.480    -6804866.22349  -5291866.29647  21612443.167    21612450.852
       238.000         196.000
  24561074.688    10048911.94849   7811741.47345  24561074.222    24561085.473
       211.000         145.000
  20404622.376     -710353.75449   -511081.92748  20404622.194    20404628.015
       245.000         213.000
  21778166.612    -6884711.40249  -5356645.74547  21778166.459    21778173.302
       232.000         188.000
  24031409.115    -7735305.22549  -5349838.17645  24031407.203    24031419.583
       218.000         153.000
  24063566.319     8988594.32249   6982453.07845  24063567.289    24063578.545
       215.000         152.000
  20729223.911     -224302.89949   -171375.73047  20729223.107    20729229.466
       243.000         212.000
  23608333.826    -5958895.25649  -4629412.82145  23608333.641    23608342.843
       215.000         155.000
 02  1 21  3 36  0.0000000  0 10G18G17G15G10G 6G26G21G30G23G22
  21195710.680    -9881212.87949  -7683426.15647  21195710.335    21195716.057
       244.000         206.000
  21256261.517    -5213717.77049  -4056302.90747  21256260.527    21256267.763
       242.000         207.000
  21603948.920    -6849510.19049  -5326653.71547  21603947.738    21603955.339
       238.000         196.000
  24580922.431    10153211.55649   7893013.85545  24580919.943    24580930.726
       211.000         146.000
  20409804.619     -683121.04149   -489861.61048  20409804.316    20409810.493
       245.000         213.000
  21772913.664    -6912315.43949  -5378155.32247  21772913.945    21772919.974
       233.000         188.000
  24015502.680    -7818893.84649  -5414971.84545  24015501.055    24015513.151
       217.000         153.000
  24082584.988     9088537.34949   7060330.52445  24082585.673    24082597.019
       213.000         151.000
  20735309.080     -192324.75149   -146457.65647  20735308.355    20735314.732
       244.000         212.000
  23604885.082    -5977019.49349  -4643535.49045  23604883.779    23604894.315
       216.000         155.000
 02  1 21  3 36 30.0000000  0 10G18G17G15G10G 6G26G21G30G23G22
  21184587.714    -9939664.30049  -7728972.63647  21184586.776    21184593.001
       243.000         206.000
  21251592.558    -5238252.71449  -4075420.98847  21251591.889    21251598.621
       242.000         207.000
  21595479.468    -6894017.15549  -5361334.38347  21595478.571    21595486.079
       239.000         197.000
  24600770.697    10257514.84649   7974289.13845  24600769.891    24600778.965
       203.000         143.000
  20415079.525     -655401.29349   -468261.79548  20415079.225    20415085.250
       246.000         213.000
  21767772.533    -6939332.47549  -5399207.50447  21767772.774    21767779.058
       233.000         189.000
  23999636.372    -7902270.05649  -5479939.99545  23999634.898    23999646.194
       216.000         153.000
  24101595.293     9188435.98249   7138173.37045  24101595.992    24101607.565
       214.000         150.000
  20741469.130     -159953.36449   -121233.16747  20741468.520    20741474.842
       244.000         212.000
  23601535.052    -5994623.64549  -4657252.91145  23601534.108    23601543.753
       216.000         155.000
 02  1 21  3 37  0.0000000  0 10G18G17G15G10G 6G26G21G30G23G22
  21173544.327    -9997697.17149  -7774192.98047  21173543.681    21173549.646
       243.000         207.000
  21246947.182    -5262664.19249  -4094442.86447  21246946.275    21246953.229
       242.000         207.000
  21587036.085    -6938387.38749  -5395908.50147  21587035.456    21587042.537
       239.000         197.000
  24620619.221    10361819.56749   8055565.46245  24620619.570    24620628.309
       210.000         145.000
  20420447.024     -627194.77749   -446282.67448  20420446.649    20420452.742
       245.000         213.000
  21762743.322    -6965761.13149  -5419801.20547  21762743.246    21762749.474
       233.000         189.000
  23983810.582    -7985433.13849  -5544742.08945  23983809.484    23983819.736
       217.000         153.000
  24120596.560     9288287.06149   7215979.15645  24120597.318    24120609.015
       213.000         150.000
  20747703.568     -127191.09049    -95704.08647  20747702.944    20747709.351
       245.000         212.000
  23598283.981    -6011707.96149  -4670565.28445  23598282.679    23598292.490
       212.000         154.000
 02  1 21  3 37 30.0000000  0 10G18G17G15G10G 6G26G21G30G23G22
  21162580.847   -10055310.64049  -7819086.51347  21162580.480    21162586.436
       244.000         207.000
  21242325.351    -5286952.10049  -4113368.45447  21242324.645    21242331.390
       242.000         207.000
  21578618.726    -6982620.93549  -5430376.11847  21578617.734    21578625.157
       239.000         197.000
  24640467.674    10466123.64449   8136841.40145  24640465.681    24640475.862
       200.000         139.000
  20425907.171     -598501.43849   -423924.21248  20425906.709    20425912.805
       245.000         213.000
  21757826.371    -6991599.59149  -5439935.01047  21757826.020    21757832.178
       233.000         189.000
  23968025.720    -8068381.53149  -5609376.89745  23968023.972    23968035.796
       217.000         152.000
  24139588.232     9388088.20549   7293746.02845  24139588.780    24139600.899
       215.000         150.000
  20754012.083      -94039.65549    -69871.77247  20754011.387    20754017.611
       244.000         212.000
  23595131.681    -6028272.48849  -4683472.58845  23595131.291    23595139.939
       215.000         153.000
 02  1 21  3 38  0.0000000  0 10G18G17G15G10G 6G26G21G30G23G22
  21151697.390   -10112503.63749  -7863652.40747  21151696.725    21151702.730
       243.000         207.000
  21237727.095    -5311116.03049  -4132197.43347  21237726.398    21237732.952
       242.000         207.000
  21570227.498    -7026717.10249  -5464736.68647  21570226.303    21570233.892
       239.000         197.000
  24660315.360    10570425.54749   8218115.53545  24660315.209    24660324.096
       208.000         143.000
  20431460.037     -569320.46049   -401185.77248  20431459.765    20431466.035
       245.000         213.000
  21753022.195    -7016845.55049  -5459607.12547  21753021.996    21753028.741
       233.000         189.000
  23952281.988    -8151113.64749  -5673843.19245  23952280.191    23952291.370
       218.000         153.000
  24158569.955     9487837.16549   7371472.22145  24158570.680    24158582.502
       215.000         150.000
  20760394.348      -60500.49749    -43737.33247  20760393.818    20760399.972
       245.000         212.000
  23592078.667    -6044316.70049  -4695974.47045  23592078.744    23592086.354
       217.000         157.000
 02  1 21  3 38 30.0000000  0 10G18G17G15G10G 6G26G21G30G23G22
  21140893.752   -10169276.60649  -7907891.00547  21140893.254    21140898.990
       244.000         207.000
  21233152.260    -5335156.94349  -4150930.55747  21233151.565    21233158.216
       243.000         207.000
  21561862.122    -7070676.86949  -5498990.97347  21561861.194    21561868.330
       239.000         197.000
  24680162.556    10674722.39949   8299385.77245  24680159.611    24680170.052
       198.000         134.000
  20437105.614     -539652.91649   -378068.19248  20437105.306    20437111.538
       245.000         213.000
  21748330.808    -7041498.63049  -5478817.24647  21748330.784    21748337.235
       233.000         189.000
  23936579.390    -8233629.95449  -5738141.31045  23936578.352    23936589.314
       216.000         154.000
  24177541.165     9587530.15849   7449154.83845  24177541.816    24177555.017
       214.000         150.000
  20766849.820      -26576.63049    -17303.12547  20766849.249    20766855.274
       245.000         212.000
  23589124.390    -6059841.81949  -4708071.88645  23589122.820    23589133.239
       217.000         159.000
 02  1 21  3 39  0.0000000  0 10G18G17G15G10G 6G26G21G30G23G22
  21130170.508   -10225627.77449  -7951800.93147  21130169.888    21130175.538
       243.000         207.000
  21228600.975    -5359074.27349  -4169567.37847  21228600.206    21228606.779
       243.000         207.000
  21553522.728    -7114500.07249  -5533138.84247  21553521.807    21553528.859
       238.000         197.000
  24700008.254    10779012.63449   8380650.87045  24700008.000    24700017.669
       199.000         140.000
  20442843.905     -509497.96349   -354570.80847  20442843.454    20442849.583
       244.000         212.000
  21743752.704    -7065556.37649  -5497563.48147  21743752.593    21743759.110
       234.000         190.000
  23920918.262    -8315928.83149  -5802270.02445  23920917.373    23920927.492
       219.000         155.000
  24196501.302     9687165.15549   7526792.24145  24196502.100    24196513.587
       215.000         149.000
  20773378.302        7730.65149      9429.85047  20773377.710    20773383.874
       245.000         212.000
  23586268.918    -6074847.25549  -4719764.32445  23586267.717    23586277.593
       215.000         160.000
 02  1 21  3 39 30.0000000  0 10G18G17G15G10G 6G26G21G30G23G22
  21119527.504   -10281556.44849  -7995381.63347  21119526.806    21119532.761
       244.000         207.000
  21224073.269    -5382867.54749  -4188107.54247  21224072.350    21224078.868
       243.000         207.000
  21545209.359    -7158186.32549  -5567179.99347  21545208.323    21545215.988
       239.000         198.000
  24719851.932    10883295.08749   8461909.79745  24719850.304    24719860.357
       200.000         133.000
  20448674.977     -478855.15049   -330693.28447  20448674.567    20448680.672
       245.000         212.000
  21739288.293    -7089016.70349  -5515844.19347  21739288.114    21739294.385
       234.000         189.000
  23905298.722    -8398008.68649  -5866228.08445  23905297.557    23905308.244
       219.000         156.000
  24215449.889     9786739.88549   7604382.69045  24215451.232    24215463.881
       213.000         148.000
  20779979.453       42419.89249     36460.45147  20779978.810    20779984.925
       245.000         212.000
  23583512.208    -6089332.82149  -4731051.67945  23583510.855    23583520.322
       213.000         158.000
 02  1 21  3 40  0.0000000  0  9G18G17G15G 6G26G21G30G23G22
  21108965.216   -10337061.43849  -8038632.19847  21108964.458    21108970.302
       243.000         208.000
  21219569.195    -5406536.40549  -4206550.75447  21219568.388    21219574.783
       243.000         207.000
  21536922.195    -7201734.89849  -5601113.85847  21536920.890    21536929.147
       238.000         198.000
  20454598.982     -447723.96849   -306435.20447  20454598.586    20454604.530
       244.000         211.000
  21734937.900    -7111877.64149  -5533657.85047  21734937.526    21734944.015
       233.000         189.000
  23889721.054    -8479868.50249  -5930014.67945  23889718.722    23889730.671
       220.000         155.000
  24234386.670     9886252.24949   7681924.53445  24234386.873    24234400.390
       212.000         148.000
  20786652.974       77489.50049     63787.44947  20786652.250    20786658.608
       245.000         212.000
  23580854.487    -6103298.27849  -4741933.76545  23580853.285    23580862.472
       214.000         155.000
 02  1 21  3 40 30.0000000  0  9G18G17G15G 6G26G21G30G23G22
  21098483.552   -10392142.31949  -8081552.28147  21098482.994    21098488.673
       244.000         208.000
  21215088.783    -5430080.82249  -4224896.99347  21215088.050    21215094.694
       242.000         207.000
  21528661.213    -7245146.13449  -5634940.70747  21528660.588    21528668.435
       239.000         198.000
  20460615.914     -416104.56449   -281796.68847  20460615.661    20460621.680
       244.000         211.000
  21730701.898    -7134137.74549  -5551003.31947  21730702.118    21730708.778
       234.000         189.000
  23874185.421    -8561507.04749  -5993628.85845  23874184.376    23874195.434
       219.000         156.000
  24253310.822     9985699.35149   7759415.51745  24253312.351    24253323.121
       216.000         148.000
  20793398.396      112937.29849     91409.13647  20793397.670    20793403.925
       245.000         212.000
  23578295.817    -6116743.79049  -4752410.71645  23578295.186    23578303.831
       215.000         155.000
 02  1 21  3 41  0.0000000  0  9G18G17G15G 6G26G21G30G23G22
  21088082.586   -10446799.87149  -8124142.50847  21088081.905    21088087.921
       243.000         208.000
  21210631.779    -5453502.33949  -4243147.46747  21210630.976    21210637.529
       243.000         207.000
  21520426.157    -7288421.51849  -5668661.70047  21520425.290    21520432.749
       239.000         199.000
  20466725.553     -383998.34849   -256778.84447  20466725.371    20466731.283
       245.000         211.000
  21726580.253    -7155796.74449  -5567880.40447  21726579.552    21726586.935
       233.000         189.000
  23858692.064    -8642924.12549  -6057070.47845  23858691.372    23858701.778
       219.000         156.000
  24272221.914    10085077.16849   7836852.51345  24272222.810    24272234.430
       214.000         149.000
  20800215.232      148760.08549    119323.02047  20800214.591    20800220.963
       245.000         212.000
  23575835.876    -6129670.99149  -4762483.78745  23575834.819    23575844.256
       217.000         158.000
 02  1 21  3 41 30.0000000  0  9G18G17G15G 6G26G21G30G23G22
  21077762.252   -10501033.27849  -8166402.22147  21077761.669    21077767.491
       245.000         209.000
  21206198.160    -5476800.74949  -4261302.01047  21206197.165    21206203.798
       242.000         207.000
  21512217.025    -7331560.61149  -5702276.48747  21512216.013    21512223.657
       238.000         199.000
  20472927.836     -351405.21549   -231381.58447  20472927.507    20472933.476
       244.000         211.000
  21722573.250    -7176853.19049  -5584287.96047  21722573.335    21722579.413
       233.000         190.000
  23843241.028    -8724118.81449  -6120338.82145  23843240.848    23843249.911
       218.000         156.000
  24291119.452    10184383.34849   7914233.67545  24291119.928    24291132.122
       210.000         149.000
  20807103.099      184956.03749    147527.68647  20807102.653    20807108.862
       245.000         212.000
  23573474.525    -6142080.01549  -4772153.06045  23573472.724    23573482.344
       216.000         158.000
 02  1 21  3 42  0.0000000  0  9G18G17G15G 6G26G21G30G23G22
  21067522.883   -10554841.43849  -8208330.58647  21067522.378    21067528.128
       244.000         209.000
  21201788.031    -5499975.55149  -4279360.23647  21201787.218    21201793.929
       243.000         207.000
  21504033.781    -7374563.17049  -5735784.88047  21504032.938    21504040.011
       239.000         199.000
  20479222.788     -318324.84849   -205604.65847  20479222.399    20479228.312
       244.000         211.000
  21718681.400    -7197305.08249  -5600224.43947  21718681.340    21718687.863
       234.000         190.000
  23827832.446    -8805090.29849  -6183433.24045  23827832.415    23827842.567
       221.000         156.000
  24310002.779    10283615.73149   7991557.31345  24310004.184    24310015.909
       215.000         149.000
  20814061.680      221523.72949    176022.01147  20814060.955    20814067.255
       245.000         212.000
  23571211.686    -6153970.60249  -4781418.35745  23571210.491    23571221.026
       216.000         159.000
 02  1 21  3 42 30.0000000  0  9G18G17G15G 6G26G21G30G23G22
  21057364.455   -10608223.91049  -8249927.23747  21057363.910    21057369.641
       245.000         209.000
  21197401.504    -5523026.70949  -4297322.12247  21197400.595    21197407.310
       242.000         208.000
  21495876.606    -7417429.13249  -5769186.83447  21495875.555    21495882.837
       239.000         199.000
  20485610.423     -284757.18849   -179448.02447  20485610.047    20485616.201
       244.000         211.000
  21714904.809    -7217150.99849  -5615688.73047  21714904.644    21714911.038
       233.000         189.000
  23812466.746    -8885837.09649  -6246352.58845  23812466.133    23812475.928
       220.000         156.000
  24328871.765    10382771.48349   8068821.24945  24328872.192    24328885.479
       214.000         149.000
  20821090.580      258461.01449    204804.33247  20821089.769    20821096.091
       245.000         212.000
  23569047.620    -6165343.08249  -4790279.94645  23569046.289    23569055.893
       214.000         159.000
 02  1 21  3 43  0.0000000  0  9G18G17G15G 6G26G21G30G23G22
  21047287.193   -10661180.34449  -8291191.91747  21047286.597    21047292.341
       244.000         210.000
  21193038.381    -5545954.51649  -4315187.88847  21193037.625    21193044.422
       243.000         208.000
  21487745.434    -7460158.79349  -5802482.58847  21487744.194    21487752.137
       239.000         199.000
  20492090.732     -250702.73549   -152912.07347  20492090.541    20492096.637
       245.000         211.000
  21711243.750    -7236389.65249  -5630679.82647  21711243.429    21711250.196
       233.000         189.000
  23797143.927    -8966358.52549  -6309096.32845  23797143.231    23797151.826
       220.000         156.000
  24347725.526    10481847.89249   8146023.36545  24347727.249    24347739.879
       214.000         149.000
  20828189.384      295765.65349    233872.89847  20828188.885    20828194.956
       245.000         212.000
  23566981.638    -6176198.05549  -4798738.28645  23566980.059    23566989.659
       213.000         157.000
 02  1 21  3 43 30.0000000  0  9G18G17G15G 6G26G21G30G23G22
  21037291.208   -10713708.97549  -8332123.23647  21037290.527    21037296.273
       245.000         210.000
  21188699.059    -5568757.61049  -4332956.48247  21188698.309    21188705.198
       243.000         208.000
  21479640.322    -7502751.00649  -5835671.23947  21479639.185    21479646.762
       239.000         199.000
  20498663.944     -216160.51049   -125996.03947  20498663.760    20498669.801
       245.000         211.000
  21707698.725    -7255018.56049  -5645195.79947  21707698.923    21707705.049
       234.000         190.000
  23781864.348    -9046652.52949  -6371662.85445  23781863.409    23781872.992
       220.000         156.000
  24366563.908    10580843.45549   8223162.47845  24366565.907    24366577.870
       213.000         148.000
  20835357.943      333436.82049    263227.07947  20835357.402    20835363.142
       246.000         212.000
  23565014.503    -6186534.66649  -4806792.69845  23565013.361    23565023.095
       214.000         156.000
 02  1 21  3 44  0.0000000  0  9G18G17G15G 6G26G21G30G23G22
  21027376.503   -10765810.79349  -8372721.98447  21027375.941    21027381.378
       245.000         209.000
  21184383.200    -5591437.38049  -4350628.98147  21184382.617    21184389.369
       242.000         208.000
  21471561.164    -7545206.75949  -5868753.55947  21471560.288    21471567.492
       239.000         199.000
  20505329.745     -181131.63449    -98700.80747  20505329.556    20505335.531
       245.000         212.000
  21704269.845    -7273037.59749  -5659236.56047  21704270.047    21704275.892
       234.000         190.000
  23766628.004    -9126719.30749  -6434052.32145  23766626.517    23766636.372
       221.000         157.000
  24385386.100    10679754.38349   8300235.61645  24385385.709    24385399.784
       207.000         145.000
  20842595.724      371471.38549    292864.41847  20842595.112    20842601.144
       245.000         212.000
  23563146.011    -6196354.42949  -4814444.37845  23563144.724    23563154.774
       216.000         157.000
 02  1 21  3 44 30.0000000  0  9G18G17G15G 6G26G21G30G23G22
  21017543.186   -10817484.94349  -8412987.47947  21017542.388    21017548.071
       245.000         209.000
  21180090.836    -5613993.41449  -4368205.05847  21180090.159    21180096.805
       242.000         208.000
  21463508.041    -7587525.85249  -5901729.39047  21463507.053    21463514.023
       239.000         199.000
  20512088.176     -145616.05249    -71026.31547  20512087.867    20512093.955
       244.000         212.000
  21700957.283    -7290445.13049  -5672800.81547  21700956.860    21700962.890
       234.000         189.000
  23751435.180    -9206557.93949  -6496264.02145  23751434.174    23751443.674
       220.000         158.000
  24404191.920    10778578.25849   8377240.94245  24404193.249    24404205.628
       208.000         145.000
  20849902.261      409867.55349    322783.53447  20849901.713    20849907.805
       245.000         212.000
  23561375.745    -6205657.47549  -4821693.42645  23561375.019    23561383.929
       215.000         156.000
 02  1 21  3 45  0.0000000  0  9G18G17G15G 6G26G21G30G23G22
  21007791.465   -10868730.51449  -8452919.02247  21007790.889    21007796.400
       245.000         210.000
  21175822.161    -5636425.14549  -4385684.27547  21175821.744    21175828.083
       242.000         208.000
  21455481.046    -7629708.01449  -5934598.52847  21455480.290    21455486.964
       240.000         199.000
  20518939.189     -109613.58449    -42972.43547  20518938.904    20518945.065
       244.000         212.000
  21697761.323    -7307239.49749  -5685887.28447  21697761.133    21697767.207
       233.000         189.000
  23736285.928    -9286167.03049  -6558296.86645  23736284.912    23736294.945
       219.000         159.000
  24422980.971    10877312.98849   8454176.77545  24422982.801    24422995.010
       212.000         144.000
  20857277.345      448623.66649    352983.12347  20857276.788    20857282.726
       245.000         212.000
  23559703.603    -6214443.83349  -4828539.88845  23559702.148    23559711.047
       214.000         154.000
 02  1 21  3 45 30.0000000  0  9G18G17G15G 6G26G21G30G23G22
  20998121.315   -10919547.19049  -8492516.36147  20998120.544    20998126.121
       246.000         210.000
  21171577.104    -5658732.83349  -4403066.82747  21171576.383    21171583.237
       242.000         208.000
  21447479.999    -7671753.41149  -5967361.09147  21447479.249    21447486.072
       240.000         200.000
  20525882.757      -73124.59349    -14539.44147  20525882.397    20525888.808
       245.000         212.000
  21694682.337    -7323419.67249  -5698495.15447  21694682.084    21694688.412
       234.000         189.000
  23721180.369    -9365545.91549  -6620150.32345  23721179.929    23721188.664
       219.000         158.000
  24441752.446    10975955.71649   8531040.94145  24441753.226    24441765.344
       208.000         145.000
  20864720.421      487737.53849    383461.49147  20864719.645    20864725.735
       244.000         212.000
  23558129.416    -6222714.11949  -4834984.17445  23558128.477    23558137.930
       213.000         154.000
 02  1 21  3 46  0.0000000  0  9G18G17G15G 6G26G21G30G23G22
  20988532.967   -10969934.05949  -8531778.78547  20988532.341    20988537.773
       246.000         210.000
  21167355.807    -5680915.89849  -4420352.27247  21167354.915    21167361.555
       242.000         208.000
  21439505.152    -7713661.41949  -6000016.59747  21439504.440    21439511.444
       240.000         200.000
  20532919.091      -36148.70149     14272.95747  20532918.826    20532924.990
       245.000         212.000
  21691720.549    -7338983.65749  -5710622.88247  21691720.464    21691726.633
       233.000         190.000
  23706118.849    -9444693.17449  -6681823.29845  23706117.456    23706127.069
       218.000         157.000
  24460505.910    11074504.53249   8607831.91345  24460505.484    24460519.723
       210.000         144.000
  20872231.317      527207.76749    414217.53547  20872230.525    20872236.722
       246.000         212.000
  23556653.850    -6230468.12249  -4841026.17845  23556652.869    23556662.072
       214.000         157.000
 02  1 21  3 46 30.0000000  0  9G18G17G15G 6G26G21G30G23G22
  20979026.441   -11019890.77749  -8570706.02947  20979025.833    20979031.300
       245.000         210.000
  21163158.167    -5702974.17949  -4437540.49147  21163157.311    21163164.078
       243.000         208.000
  21431556.464    -7755432.09249  -6032565.09147  21431555.323    21431562.610
       240.000         200.000
  20540047.943        1313.74049     43464.47647  20540047.801    20540053.456
       246.000         212.000
  21688876.265    -7353930.41749  -5722269.65547  21688876.123    21688882.332
       234.000         190.000
  23691101.522    -9523608.40449  -6743315.48345  23691100.163    23691110.140
       218.000         157.000
  24479240.805    11172956.73149   8684547.58345  24479242.273    24479253.579
       209.000         142.000
  20879809.559      567032.03349    445249.45347  20879808.709    20879815.098
       244.000         212.000
  23555276.374    -6237706.53949  -4846666.41445  23555275.982    23555285.496
       217.000         157.000
 02  1 21  3 47  0.0000000  0  9G18G17G15G 6G26G21G30G23G22
  20969601.770   -11069417.37249  -8609298.11247  20969600.957    20969606.531
       245.000         210.000
  21158984.249    -5724908.11549  -4454631.82847  21158983.481    21158990.265
       242.000         208.000
  21423633.696    -7797065.75749  -6065006.82147  21423632.528    21423639.973
       239.000         199.000
  20547269.328       39262.21849     73034.72347  20547269.052    20547274.981
       244.000         211.000
  21686149.506    -7368259.14349  -5733434.85147  21686149.361    21686155.630
       234.000         189.000
  23676128.588    -9602290.34749  -6804625.88145  23676126.579    23676137.702
       219.000         159.000
  24497956.943    11271309.42949   8761185.71645  24497957.207    24497970.819
       206.000         141.000
  20887454.712      607207.90949    476555.35247  20887453.867    20887460.384
       244.000         211.000
  23553996.934    -6244430.25649  -4851905.58445  23553995.568    23554005.741
       215.000         157.000
 02  1 21  3 47 30.0000000  0  9G18G17G15G 6G26G21G30G23G22
  20960259.022   -11118513.31849  -8647554.62047  20960258.345    20960263.890
       246.000         210.000
  21154834.063    -5746717.58849  -4471626.17147  21154833.184    21154839.867
       243.000         208.000
  21415737.006    -7838562.41149  -6097341.79547  21415735.964    21415743.136
       239.000         199.000
  20554583.074       77696.24549    102983.32547  20554582.728    20554588.562
       245.000         211.000
  21683540.608    -7381968.79549  -5744117.65147  21683540.417    21683546.948
       234.000         189.000
  23661200.115    -9680738.71149  -6865754.26245  23661198.743    23661209.199
       219.000         159.000
  24516653.509    11369559.94149   8837744.22745  24516653.854    24516666.619
       207.000         140.000
  20895166.435      647733.46249    508133.73247  20895165.728    20895172.177
       244.000         211.000
  23552815.355    -6250639.74549  -4856744.06245  23552814.206    23552823.397
       216.000         158.000
 02  1 21  3 48  0.0000000  0  9G18G17G15G 6G26G21G30G23G22
  20950998.511   -11167177.61549  -8685474.78647  20950997.846    20951003.425
       245.000         211.000
  21150707.658    -5768401.88149  -4488522.98147  21150706.780    21150713.422
       243.000         208.000
  21407866.513    -7879921.42349  -6129569.52047  21407865.513    21407872.525
       240.000         199.000
  20561989.291      116616.31249    133310.66147  20561989.071    20561994.770
       245.000         211.000
  21681049.849    -7395057.56249  -5754316.63947  21681049.951    21681056.512
       234.000         190.000
  23646316.592    -9758951.61449  -6926699.19645  23646315.456    23646324.826
       219.000         159.000
  24535330.428    11467706.46549   8914221.70245  24535330.954    24535344.450
       211.000         141.000
  20902944.427      688607.16849    539983.39547  20902943.813    20902949.861
       245.000         211.000
  23551731.538    -6256334.92749  -4861181.79045  23551730.186    23551739.740
       216.000         159.000
 02  1 21  3 48 30.0000000  0  9G18G17G15G 6G26G21G30G23G22
  20941820.073   -11215410.53449  -8723058.80747  20941819.550    20941824.930
       245.000         211.000
  21146605.003    -5789961.43749  -4505322.58747  21146604.151    21146610.945
       243.000         208.000
  21400022.254    -7921143.05749  -6161690.19247  21400021.294    21400028.387
       240.000         199.000
  20569487.833      156021.59349    164016.08547  20569487.570    20569493.668
       244.000         211.000
  21678677.382    -7407524.91849  -5764031.40247  21678677.184    21678683.144
       234.000         190.000
  23631477.919    -9836928.53049  -6987460.22545  23631476.809    23631487.116
       220.000         160.000
  24553986.970    11565745.76849   8990615.63545  24553988.477    24554001.995
       212.000         142.000
  20910788.209      729826.56149    572102.42647  20910787.583    20910793.558
       245.000         211.000
  23550745.287    -6261516.94649  -4865219.65545  23550744.649    23550753.501
       215.000         158.000
 02  1 21  3 49  0.0000000  0  9G18G17G15G 6G26G21G30G23G22
  20932723.782   -11263211.54449  -8760306.27847  20932723.127    20932728.659
       245.000         211.000
  21142526.060    -5811396.05449  -4522024.83847  21142525.264    21142531.902
       243.000         208.000
  21392204.172    -7962227.11249  -6193703.66047  21392203.066    21392210.141
       239.000         199.000
  20577078.693      195911.72049    195099.30747  20577078.465    20577084.263
       245.000         211.000
  21676423.385    -7419369.62449  -5773260.99747  21676423.075    21676429.504
       233.000         190.000
  23616684.384    -9914668.67349  -7048036.75345  23616683.220    23616693.044
       221.000         161.000
  24572622.756    11663675.62349   9066924.27745  24572623.517    24572638.392
       210.000         144.000
  20918697.379      771389.49849    604489.15447  20918696.768    20918702.727
       245.000         211.000
  23549856.677    -6266186.22549  -4868857.97245  23549855.614    23549864.619
       216.000         157.000
 02  1 21  3 49 30.0000000  0  9G18G17G15G 6G26G21G30G23G22
  20923709.772   -11310580.01849  -8797216.71047  20923709.088    20923714.649
       245.000         211.000
  21138470.999    -5832705.40849  -4538629.49047  21138470.122    21138477.019
       243.000         209.000
  21384412.320    -8003173.40049  -6225609.79247  21384411.430    21384418.362
       239.000         200.000
  20584761.837      236286.70749    226560.33647  20584761.696    20584767.406
       245.000         211.000
  21674288.074    -7430590.47949  -5782004.48847  21674288.252    21674294.174
       233.000         190.000
  23601935.975    -9992171.51549  -7108428.38745  23601935.080    23601944.692
       222.000         161.000
  24591237.247    11761493.63449   9143145.73745  24591239.669    24591251.570
       212.000         144.000
  20926671.554      813294.15549    637142.14847  20926670.947    20926676.787
       245.000         211.000
  23549065.684    -6270343.25449  -4872097.13745  23549064.342    23549073.309
       217.000         158.000
 02  1 21  3 50  0.0000000  0  9G18G17G15G 6G26G21G30G23G22
  20914778.089   -11357516.15549  -8833790.25947  20914777.371    20914782.956
       245.000         211.000
  21134439.698    -5853889.43049  -4555136.48047  21134439.142    21134445.731
       243.000         209.000
  21376646.618    -8043982.19749  -6257408.77347  21376645.426    21376652.538
       240.000         200.000
  20592537.078      277145.83749    258398.63147  20592536.813    20592542.712
       245.000         211.000
  21672271.594    -7441186.63249  -5790261.18347  21672271.579    21672277.843
       234.000         190.000
  23587232.936   -10069435.88449  -7168634.18745  23587231.429    23587241.269
       220.000         162.000
  24609830.077    11859197.04449   9219277.90145  24609831.418    24609844.226
       210.000         144.000
  20934710.322      855538.17749    670059.58747  20934709.702    20934715.436
       245.000         211.000
  23548371.849    -6273988.86449  -4874937.78345  23548371.582    23548379.465
       216.000         158.000
 02  1 21  3 50 30.0000000  0  9G18G17G15G 6G26G21G30G23G22
  20905928.740   -11404019.39649  -8870026.47947  20905928.067    20905933.547
       245.000         211.000
  21130432.375    -5874947.92549  -4571545.65747  21130431.697    21130438.588
       243.000         209.000
  21368907.155    -8084653.24249  -6289100.42047  21368906.134    21368913.022
       240.000         200.000
  20600404.348      318488.85749    290613.97247  20600404.147    20600410.098
       244.000         211.000
  21670374.279    -7451156.96849  -5798030.23147  21670373.862    21670380.773
       233.000         190.000
  23572575.240   -10146461.09849  -7228653.62645  23572574.156    23572584.096
       220.000         162.000
  24628400.537    11956783.58849   9295318.98545  24628402.662    24628416.346
       210.000         143.000
  20942813.352      898119.79349    703240.08347  20942812.942    20942818.634
       245.000         211.000
  23547775.370    -6277123.42349  -4877380.20545  23547773.496    23547783.072
       215.000         158.000
 02  1 21  3 51  0.0000000  0  9G18G17G15G 6G26G21G30G23G22
  20897161.893   -11450089.02249  -8905924.82547  20897161.296    20897166.747
       245.000         211.000
  21126449.012    -5895880.35249  -4587856.60247  21126448.384    21126455.218
       242.000         209.000
  21361193.975    -8125185.99449  -6320684.31047  21361192.924    21361199.978
       240.000         200.000
  20608363.749      360315.79449    323206.39947  20608363.517    20608369.355
       245.000         211.000
  21668596.202    -7460500.22049  -5805310.64547  21668595.793    21668601.956
       233.000         190.000
  23557963.460   -10223245.70849  -7288485.58445  23557962.842    23557972.726
       221.000         162.000
  24646948.308    12054251.13049   9371267.34145  24646949.052    24646963.605
       211.000         142.000
  20950980.343      941037.43449    736682.41747  20950979.709    20950985.899
       245.000         211.000
  23547275.934    -6279747.17549  -4879424.60845  23547275.151    23547283.178
       216.000         158.000
 02  1 21  3 51 30.0000000  0  9G18G17G15G 6G26G21G30G23G22
  20888477.659   -11495724.89849  -8941485.17847  20888477.118    20888482.558
       246.000         212.000
  21122489.612    -5916686.85649  -4604069.41647  21122488.845    21122495.770
       243.000         209.000
  21353507.101    -8165580.48449  -6352160.46047  21353505.856    21353513.051
       240.000         201.000
  20616415.167      402626.09449    356175.46947  20616414.983    20616420.822
       245.000         211.000
  21666937.640    -7469215.56249  -5812101.78847  21666937.611    21666944.086
       234.000         190.000
  23543397.565   -10299789.34249  -7348129.77045  23543396.016    23543406.471
       219.000         162.000
  24665472.829    12151596.96149   9447120.85045  24665474.487    24665486.834
       207.000         140.000
  20959210.771      984288.63549    770384.67047  20959210.151    20959216.213
       245.000         211.000
  23546873.645    -6281861.16249  -4881071.79245  23546872.709    23546881.484
       216.000         158.000
 02  1 21  3 52  0.0000000  0  9G18G17G15G 6G26G21G30G23G22
  20879875.967   -11540926.94449  -8976707.48947  20879875.383    20879880.811
       245.000         212.000
  21118554.272    -5937367.22749  -4620183.95747  21118553.440    21118560.382
       243.000         209.000
  21345846.451    -8205836.89349  -6383529.02447  21345845.469    21345852.356
       240.000         201.000
  20624558.424      445419.17649    389520.72747  20624558.006    20624564.133
       244.000         211.000
  21665398.851    -7477302.23149  -5818403.04947  21665398.777    21665404.991
       235.000         191.000
  23528877.630   -10376091.07949  -7407585.45346  23528876.528    23528886.285
       222.000         163.000
  24683973.708    12248818.68349   9522877.63845  24683973.151    24683988.077
       205.000         139.000
  20967504.249     1027871.24549    804345.15947  20967503.789    20967509.795
       246.000         212.000
  23546568.373    -6283466.08449  -4882322.32345  23546566.921    23546576.336
       217.000         159.000
 02  1 21  3 52 30.0000000  0  9G18G17G15G 6G26G21G30G23G22
  20871356.786   -11585695.14249  -9011591.73647  20871356.151    20871361.559
       245.000         212.000
  21114642.882    -5957921.53849  -4636200.26547  21114641.988    21114648.683
       242.000         209.000
  21338212.096    -8245955.40149  -6414790.12647  21338211.194    21338217.887
       240.000         201.000
  20632793.386      488694.39549    423241.68147  20632793.125    20632799.076
       244.000         210.000
  21663979.736    -7484759.49949  -5824213.87047  21663979.649    21663985.604
       234.000         191.000
  23514403.815   -10452150.96149  -7466852.69046  23514402.398    23514412.598
       221.000         163.000
  24702450.278    12345913.51349   9598535.53145  24702451.129    24702465.491
       205.000         139.000
  20975860.361     1071783.00149    838562.12547  20975859.695    20975865.880
       245.000         212.000
  23546359.694    -6284562.89249  -4883176.89245  23546359.075    23546367.248
       218.000         160.000
 02  1 21  3 53  0.0000000  0  9G18G17G15G 6G26G21G30G23G22
  20862920.334   -11630028.91849  -9046137.47247  20862919.841    20862925.206
       246.000         212.000
  21110755.502    -5978349.40349  -4652118.04047  21110754.669    21110761.557
       243.000         208.000
  21330604.068    -8285935.37049  -6445943.26947  21330603.181    21330610.169
       240.000         201.000
  20641120.036      532451.42249    457338.06847  20641119.560    20641125.718
       243.000         210.000
  21662680.697    -7491586.28849  -5829533.40947  21662680.798    21662686.972
       234.000         191.000
  23499976.315   -10527967.31249  -7525930.14546  23499974.856    23499985.307
       225.000         164.000
  24720902.461    12442879.35349   9674092.91745  24720903.505    24720918.814
       206.000         138.000
  20984278.777     1116022.05949    873034.13547  20984278.256    20984284.122
       245.000         211.000
  23546247.547    -6285152.07649  -4883635.95145  23546245.873    23546254.241
       215.000         159.000
 02  1 21  3 53 30.0000000  0  8G18G17G15G 6G26G21G23G22
  20854567.652   -11673922.40149  -9080340.13147  20854566.874    20854572.275
       245.000         212.000
  21106893.409    -5998644.72349  -4667932.54147  21106892.652    21106899.262
       243.000         209.000
  21323023.558    -8325771.08549  -6476984.01747  21323022.898    21323029.507
       241.000         201.000
  20649539.408      576695.59349    491814.04747  20649539.142    20649545.153
       244.000         210.000
  21661502.799    -7497776.03349  -5834356.55247  21661502.524    21661508.636
       234.000         191.000
  23485596.313   -10603533.80749  -7584812.92046  23485595.491    23485604.971
       222.000         164.000
  20992760.174     1160592.13349    907764.07647  20992759.295    20992765.239
       245.000         211.000
  23546232.652    -6285228.64249  -4883695.53745  23546231.783    23546240.411
       216.000         158.000
 02  1 21  3 54  0.0000000  0  8G18G17G15G 6G26G21G23G22
  20846298.739   -11717375.39649  -9114199.54647  20846297.968    20846303.375
       245.000         212.000
  21103056.558    -6018807.51649  -4683643.77147  21103055.938    21103062.531
       243.000         209.000
  21315470.509    -8365462.40349  -6507912.24947  21315469.687    21315476.486
       240.000         201.000
  20658051.444      621426.49849    526669.30347  20658051.269    20658057.072
       244.000         210.000
  21660446.254    -7503327.93949  -5838682.67247  21660446.145    21660452.234
       234.000         191.000
  23471264.041   -10678849.84649  -7643500.52646  23471262.983    23471272.763
       223.000         164.000
  21001304.090     1205491.04049    942750.25347  21001303.500    21001309.347
       245.000         211.000
  23546315.443    -6284793.43549  -4883356.34245  23546315.155    23546323.703
       218.000         161.000
 02  1 21  3 54 30.0000000  0  8G18G17G15G 6G26G21G23G22
  20838111.585   -11760398.63349  -9147724.09147  20838110.936    20838116.349
       245.000         212.000
  21099242.879    -6038848.34149  -4699259.96247  21099242.219    21099248.955
       242.000         209.000
  21307942.905    -8405020.03249  -6538736.31347  21307942.169    21307948.752
       241.000         201.000
  20666653.945      666632.74949    561894.95347  20666653.753    20666659.499
       243.000         210.000
  21659509.124    -7508252.28749  -5842519.79047  21659509.114    21659515.205
       235.000         191.000
  23456977.563   -10753925.52849  -7702000.85346  23456976.733    23456985.288
       222.000         165.000
  21009908.141     1250705.63149    977982.41247  21009907.424    21009913.522
       244.000         210.000
  23546493.535    -6283858.22049  -4882627.52845  23546492.992    23546501.692
       219.000         162.000
 02  1 21  3 55  0.0000000  0  8G18G17G15G 6G26G21G23G22
  20830006.835   -11802989.47649  -9180911.71047  20830006.437    20830011.368
       246.000         212.000
  21095452.954    -6058764.73049  -4714779.18847  21095452.392    21095458.724
       243.000         209.000
  21300441.149    -8444441.59649  -6569454.35047  21300440.132    21300446.831
       241.000         201.000
  20675347.137      712316.03449    597492.31447  20675346.715    20675352.692
       244.000         209.000
  21658692.080    -7512545.89849  -5845865.43247  21658691.910    21658697.992
       233.000         190.000
  23442737.177   -10828758.03049  -7760311.68446  23442735.332    23442745.359
       223.000         165.000
  21018572.271     1296236.34349   1013460.90747  21018571.366    21018577.630
       244.000         210.000
  23546767.040    -6282421.46649  -4881507.91245  23546766.463    23546774.892
       219.000         162.000
 02  1 21  3 55 30.0000000  0  8G18G17G15G 6G26G21G23G22
  20821984.697   -11845145.87849  -9213760.79847  20821983.871    20821989.522
       245.000         212.000
  21091687.172    -6078554.28149  -4730199.58347  21091686.489    21091693.265
       243.000         209.000
  21292965.688    -8483724.95649  -6600064.70347  21292964.807    21292971.662
       240.000         201.000
  20684131.396      758477.78649    633462.51247  20684131.144    20684137.171
       244.000         209.000
  21657995.458    -7516206.30749  -5848717.66447  21657995.372    21658001.150
       234.000         190.000
  23428543.719   -10903344.23549  -7818430.59846  23428543.157    23428552.043
       224.000         165.000
  21027296.566     1342083.03049   1049185.61547  21027295.926    21027302.130
       244.000         210.000
  23547136.085    -6280482.04349  -4879996.60346  23547135.088    23547143.276
       220.000         163.000
 02  1 21  3 56  0.0000000  0  8G18G17G15G 6G26G21G23G22
  20814045.239   -11886867.54549  -9246271.13347  20814044.707    20814049.757
       245.000         212.000
  21087945.524    -6098216.83949  -4745521.01847  21087944.780    21087951.418
       243.000         209.000
  21285516.673    -8522869.53049  -6630566.91047  21285516.134    21285522.581
       242.000         201.000
  20693006.605      805117.45349    669805.11247  20693006.290    20693012.312
       243.000         209.000
  21657419.587    -7519232.45449  -5851075.65547  21657419.650    21657425.766
       235.000         191.000
  23414397.342   -10977683.46749  -7876357.07946  23414395.531    23414405.981
       223.000         166.000
  21036080.665     1388243.71749   1085154.99847  21036079.935    21036086.261
       244.000         210.000
  23547600.585    -6278040.79649  -4878094.26745  23547598.717    23547608.512
       217.000         162.000
 02  1 21  3 56 30.0000000  0  8G18G17G15G 6G26G21G23G22
  20806188.660   -11928153.91049  -9278442.27547  20806187.956    20806193.596
       245.000         212.000
  21084228.126    -6117751.52849  -4760742.82347  21084227.383    21084233.766
       243.000         209.000
  21278094.258    -8561874.63149  -6660960.44147  21278093.392    21278100.219
       241.000         202.000
  20701972.794      852235.15549    706520.20747  20701972.363    20701978.543
       243.000         209.000
  21656964.679    -7521623.22749  -5852938.56347  21656964.565    21656970.687
       235.000         191.000
  23400298.044   -11051774.51949  -7934090.16746  23400297.701    23400306.031
       223.000         166.000
  21044924.212     1434716.96949   1121367.93547  21044923.692    21044929.501
       244.000         210.000
  23548160.514    -6275097.82949  -4875800.98845  23548159.448    23548168.582
       218.000         161.000
 02  1 21  3 57  0.0000000  0  8G18G17G15G 6G26G21G23G22
  20798414.974   -11969004.65449  -9310273.96648  20798414.307    20798419.682
       245.000         213.000
  21080535.205    -6137158.03749  -4775864.74047  21080534.330    21080540.857
       243.000         209.000
  21270698.408    -8600740.06249  -6691245.12947  21270697.513    21270704.322
       241.000         202.000
  20711029.864      899830.52249    743607.50647  20711029.663    20711035.596
       244.000         209.000
  21656630.756    -7523377.82449  -5854305.74347  21656630.567    21656636.272
       235.000         191.000
  23386246.280   -11125616.43749  -7991629.14046  23386244.960    23386254.532
       224.000         166.000
  21053826.951     1481500.82049   1157822.89847  21053826.359    21053832.443
       244.000         210.000
  23548815.724    -6271653.92449  -4873117.37345  23548813.326    23548823.032
       216.000         160.000
 02  1 21  3 57 30.0000000  0  8G18G17G15G 6G26G21G23G22
  20790724.183   -12009419.64349  -9341766.10947  20790723.642    20790728.725
       245.000         212.000
  21076866.726    -6156436.01549  -4790886.50347  21076865.709    21076872.461
       242.000         209.000
  21263329.115    -8639465.72849  -6721420.91947  21263328.254    21263334.974
       241.000         202.000
  20720177.723      947902.74149    781066.38247  20720177.320    20720183.438
       243.000         209.000
  21656418.000    -7524495.76049  -5855176.82847  21656417.864    21656423.853
       234.000         191.000
  23372242.110   -11199208.66149  -8048973.54246  23372241.054    23372250.652
       223.000         166.000
  21062788.307     1528593.02349   1194518.14247  21062787.456    21062793.485
       243.000         210.000
  23549565.975    -6267710.26849  -4870044.34245  23549564.816    23549573.283
       217.000         159.000
 02  1 21  3 58  0.0000000  0  8G18G17G15G 6G26G21G23G22
  20783116.385   -12049398.61749  -9372918.49948  20783115.868    20783121.279
       245.000         213.000
  21073222.765    -6175585.00449  -4805807.75647  21073221.972    21073228.328
       243.000         209.000
  21255986.492    -8678051.21949  -6751487.48247  21255985.707    21255992.206
       241.000         202.000
  20729416.197      996451.42549    818896.52547  20729415.904    20729421.963
       243.000         208.000
  21656326.494    -7524976.27049  -5855551.20947  21656326.097    21656332.291
       234.000         191.000
  23358285.432   -11272550.18549  -8106122.60146  23358283.467    23358293.279
       223.000         167.000
  21071807.934     1575991.76249   1231452.24447  21071807.161    21071813.036
       244.000         210.000
  23550411.314    -6263267.40549  -4866582.31945  23550409.721    23550418.573
       217.000         159.000
 02  1 21  3 58 30.0000000  0  8G18G17G15G 6G26G21G23G22
  20775591.575   -12088941.51549  -9403731.09047  20775590.688    20775595.917
       244.000         212.000
  21069603.410    -6194604.73249  -4820628.28347  21069602.608    21069608.809
       243.000         209.000
  21248670.614    -8716496.06949  -6781444.45547  21248669.722    21248676.058
       242.000         202.000
  20738745.273     1045476.09549    857097.57147  20738744.816    20738750.899
       244.000         208.000
  21656356.360    -7524818.67949  -5855428.37347  21656356.316    21656362.487
       234.000         190.000
  23344376.824   -11345640.00249  -8163075.54046  23344375.405    23344385.318
       224.000         168.000
  21080885.576     1623695.03449   1268623.64647  21080884.907    21080890.566
       244.000         209.000
  23551351.623    -6258326.27149  -4862732.05245  23551350.859    23551358.866
       219.000         160.000
 02  1 21  3 59  0.0000000  0  8G18G17G15G 6G26G21G23G22
  20768149.618   -12128048.81349  -9434204.25447  20768149.060    20768154.074
       244.000         212.000
  21066008.595    -6213495.24049  -4835348.12047  21066007.736    21066013.935
       243.000         209.000
  21241381.443    -8754800.77149  -6811292.22747  21241380.478    21241386.961
       241.000         203.000
  20748164.627     1094975.26049    895668.35547  20748164.235    20748170.317
       243.000         208.000
  21656507.708    -7524023.20249  -5854808.47547  21656507.652    21656513.607
       234.000         190.000
  23330515.860   -11418478.52849  -8219832.65846  23330514.801    23330523.917
       222.000         168.000
  21090020.607     1671700.14749   1306030.24847  21090020.003    21090025.859
       243.000         209.000
  23552386.467    -6252888.57549  -4858494.84145  23552385.743    23552394.461
       218.000         162.000
 02  1 21  3 59 30.0000000  0  8G18G17G15G 6G26G21G23G22
  20760790.800   -12166719.54449  -9464337.24147  20760790.144    20760795.181
       245.000         212.000
  21062438.554    -6232255.49849  -4849966.46047  21062437.868    21062444.167
       243.000         209.000
  21234119.110    -8792964.05649  -6841029.79847  21234118.066    21234124.992
       241.000         203.000
  20757674.358     1144949.30249    934609.16247  20757673.951    20757680.385
       243.000         208.000
  21656780.711    -7522588.24349  -5853690.28247  21656780.703    21656786.787
       234.000         190.000
  23316703.072   -11491064.13749  -8276392.70046  23316702.403    23316711.415
       225.000         168.000
  21099212.845     1720005.78549   1343671.02047  21099212.089    21099218.043
       243.000         209.000
  23553515.532    -6246954.22649  -4853870.60745  23553514.581    23553522.390
       219.000         162.000
 02  1 21  4  0  0.0000000  0  8G18G17G15G 6G26G21G23G22
  20753514.834   -12204954.71649  -9494130.82447  20753514.301    20753519.288
       245.000         212.000
  21058893.167    -6250886.28649  -4864483.91847  21058892.642    21058898.813
       244.000         209.000
  21226883.535    -8830986.95349  -6870657.98147  21226882.425    21226889.630
       241.000         203.000
  20767274.076     1195396.20249    973918.44147  20767274.055    20767279.991
       244.000         208.000
  21657175.233    -7520514.79549  -5852074.56047  21657175.679    21657181.014
       235.000         191.000
  23302938.560   -11563397.08749  -8332755.87946  23302938.541    23302946.298
       224.000         169.000
  21108461.611     1768608.65949   1381543.41147  21108460.837    21108467.143
       244.000         209.000
  23554738.897    -6240525.48849  -4848861.15145  23554738.154    23554746.015
       218.000         162.000
 02  1 21  4  0 30.0000000  0  8G18G17G15G 6G26G21G23G22
  20746321.864   -12242753.67949  -9523584.49947  20746320.991    20746326.612
       244.000         212.000
  21055372.686    -6269386.54249  -4878899.66047  21055371.819    21055378.350
       243.000         209.000
  21219674.874    -8868868.43849  -6900175.96347  21219673.825    21219680.462
       241.000         204.000
  20776963.874     1246316.11249   1013596.29147  20776963.707    20776969.352
       244.000         208.000
  21657691.589    -7517801.41149  -5849960.19147  21657691.352    21657697.372
       234.000         191.000
  23289222.165   -11635476.28249  -8388921.33546  23289221.208    23289230.286
       224.000         169.000
  21117766.728     1817507.62349   1419646.52047  21117765.945    21117772.105
       243.000         209.000
  23556056.253    -6233602.75549  -4843466.76546  23556055.532    23556063.943
       220.000         164.000
 02  1 21  4  1  0.0000000  0  8G18G17G15G 6G26G21G23G22
  20739212.113   -12280115.51749  -9552697.56348  20739211.742    20739216.632
       245.000         213.000
  21051877.175    -6287755.09049  -4893212.77547  21051876.059    21051883.019
       243.000         209.000
  21212493.404    -8906607.27849  -6929582.80847  21212492.507    21212499.204
       242.000         204.000
  20786743.674     1297709.19849   1053642.84947  20786743.477    20786749.478
       244.000         208.000
  21658329.863    -7514447.03049  -5847346.34547  21658330.090    21658335.689
       235.000         190.000
  23275554.468   -11707300.16249  -8444887.84746  23275553.070    23275562.079
       225.000         169.000
  21127128.019     1866701.50549   1457979.42847  21127127.264    21127133.479
       243.000         209.000
  23557467.649    -6226185.95149  -4837687.37346  23557467.075    23557475.222
       220.000         164.000
 02  1 21  4  1 30.0000000  0  8G18G17G15G 6G26G21G23G22
  20732185.257   -12317041.88949  -9581471.30448  20732184.547    20732189.662
       244.000         213.000
  21048406.464    -6305993.29049  -4907424.31747  21048405.692    21048412.355
       243.000         209.000
  21205338.742    -8944205.10849  -6958879.76947  21205338.020    21205344.194
       242.000         203.000
  20796613.079     1349572.99649   1094056.19747  20796612.974    20796618.666
       244.000         208.000
  21659089.928    -7510452.87249  -5844233.97747  21659089.974    21659095.518
       235.000         190.000
  23261935.304   -11778869.11649  -8500655.71146  23261934.608    23261942.920
       225.000         169.000
  21136544.645     1916186.49349   1496539.17547  21136543.925    21136549.956
       243.000         209.000
  23558972.315    -6218278.06049  -4831525.33846  23558971.254    23558979.334
       220.000         164.000
 02  1 21  4  2  0.0000000  0  8G18G17G15G 6G26G21G23G22
  20725241.315   -12353532.10149  -9609905.18048  20725240.964    20725245.728
       245.000         213.000
  21044960.812    -6324100.08149  -4921533.46547  21044960.207    21044966.699
       243.000         209.000
  21198211.129    -8981660.90049  -6988066.05147  21198210.484    21198216.876
       243.000         203.000
  20806572.028     1401907.45849   1134836.29547  20806571.720    20806577.371
       244.000         208.000
  21659971.935    -7505818.00349  -5840622.34747  21659972.143    21659977.239
       235.000         190.000
  23248364.609   -11850182.44749  -8556224.39846  23248363.453    23248372.491
       224.000         169.000
  21146016.441     1965961.11849   1535324.60347  21146015.868    21146021.824
       243.000         209.000
  23560570.443    -6209879.48749  -4824980.94846  23560569.237    23560578.347
       220.000         163.000
 02  1 21  4  2 30.0000000  0  8G18G17G15G 6G26G21G23G22
  20718380.360   -12389586.70749  -9637999.62548  20718379.494    20718384.785
       243.000         213.000
  21041540.154    -6342075.54949  -4935540.28347  21041539.575    21041545.996
       243.000         210.000
  21191110.481    -9018974.99449  -7017141.92247  21191109.660    21191116.296
       243.000         203.000
  20816620.290     1454711.39849   1175982.22147  20816620.074    20816625.915
       244.000         207.000
  21660975.844    -7500542.50249  -5836511.53247  21660976.178    21660981.796
       236.000         191.000
  23234842.699   -11921239.91949  -8611593.71646  23234841.584    23234850.983
       223.000         168.000
  21155542.829     2016022.79349   1574333.71547  21155542.133    21155548.076
       243.000         209.000
  23562261.690    -6200991.77749  -4818055.41046  23562260.996    23562269.248
       219.000         163.000
 02  1 21  4  3  0.0000000  0  8G18G17G15G 6G26G21G23G22
  20711602.194   -12425205.63649  -9665754.58348  20711601.726    20711606.668
       244.000         213.000
  21038144.651    -6359919.06049  -4949444.27847  21038144.126    21038150.542
       244.000         210.000
  21184036.908    -9056146.61949  -7046106.77147  21184036.177    21184042.668
       241.000         203.000
  20826757.753     1507984.08249   1217493.40047  20826757.526    20826763.454
       244.000         207.000
  21662101.685    -7494626.03149  -5831901.25847  21662101.569    21662107.114
       235.000         191.000
  23221369.613   -11992040.87649  -8666763.15346  23221368.611    23221377.363
       223.000         168.000
  21165123.516     2066369.68449   1613565.07147  21165122.870    21165129.007
       243.000         209.000
  23564045.776    -6191615.88049  -4810749.46945  23564044.521    23564053.804
       218.000         162.000
 02  1 21  4  3 30.0000000  0  8G18G17G15G 6G26G21G23G22
  20704907.111   -12460388.35149  -9693169.63048  20704906.462    20704911.472
       244.000         213.000
  21034774.479    -6377629.87749  -4963244.86947  21034773.739    21034779.935
       244.000         210.000
  21176990.570    -9093175.15949  -7074960.12147  21176989.615    21176996.131
       243.000         204.000
  20836984.336     1561725.13249   1259369.54247  20836983.896    20836989.999
       243.000         207.000
  21663349.755    -7488067.68149  -5826790.82447  21663349.845    21663355.283
       236.000         191.000
  23207945.406   -12062584.17649  -8721731.81046  23207944.205    23207953.372
       223.000         168.000
  21174758.166     2117000.06949   1653017.32747  21174757.420    21174763.456
       243.000         208.000
  23565922.761    -6181752.31449  -4803063.53645  23565922.301    23565929.062
       218.000         161.000
 02  1 21  4  4  0.0000000  0  8G18G17G15G 6G26G21G23G22
  20698294.944   -12495135.66749  -9720245.41448  20698294.539    20698299.082
       244.000         213.000
  21031429.488    -6395208.10349  -4976942.15047  21031428.805    21031434.831
       244.000         209.000
  21169971.461    -9130060.99849  -7103702.28447  21169970.784    21169977.158
       243.000         204.000
  20847299.706     1615933.06749   1301609.47947  20847299.605    20847305.382
       244.000         207.000
  21664719.832    -7480867.95349  -5821180.61047  21664719.986    21664725.119
       235.000         191.000
  23194570.392   -12132869.54849  -8776499.49846  23194569.594    23194578.288
       225.000         169.000
  21184446.221     2167911.32449   1692688.44447  21184445.514    21184451.475
       243.000         208.000
  23567892.103    -6171403.04949  -4794999.14045  23567890.799    23567900.156
       218.000         160.000
 02  1 21  4  4 30.0000000  0  8G18G17G15G 6G26G21G23G22
  20691765.716   -12529446.93449  -9746981.41448  20691764.879    20691770.128
       244.000         213.000
  21028109.823    -6412652.92049  -4990535.47547  21028109.113    21028115.126
       243.000         209.000
  21162979.656    -9166803.06249  -7132332.40547  21162978.515    21162985.302
       242.000         204.000
  20857703.961     1670607.75049   1344213.12847  20857703.542    20857709.628
       243.000         207.000
  21666211.970    -7473026.12949  -5815070.06647  21666211.724    21666217.416
       234.000         190.000
  23181244.675   -12202896.37149  -8831065.72546  23181242.979    23181252.040
       224.000         169.000
  21194187.451     2219102.02949   1732577.30747  21194186.910    21194192.686
       243.000         208.000
  23569953.749    -6160568.70249  -4786556.74645  23569952.861    23569961.486
       219.000         161.000
 02  1 21  4  5  0.0000000  0  8G18G17G15G 6G26G21G23G22
  20685319.332   -12563322.58349  -9773377.97748  20685318.712    20685323.476
       244.000         213.000
  21024815.574    -6429964.14149  -5004024.69847  21024814.814    21024820.713
       244.000         209.000
  21156015.102    -9203401.37249  -7160850.51047  21156014.156    21156020.420
       242.000         204.000
  20868196.792     1725748.15649   1387179.67247  20868196.578    20868202.421
       243.000         206.000
  21667826.342    -7464542.22149  -5808459.19747  21667826.496    21667832.146
       236.000         191.000
  23167968.107   -12272664.27649  -8885430.20246  23167967.630    23167975.026
       225.000         169.000
  21203981.452     2270569.80849   1772682.07347  21203980.979    21203986.605
       243.000         208.000
  23572107.508    -6149250.72849  -4777737.48245  23572106.210    23572114.949
       218.000         162.000
 02  1 21  4  5 30.0000000  0  8G18G17G15G 6G26G21G23G22
  20678955.802   -12596762.97849  -9799435.37648  20678955.287    20678960.111
       243.000         213.000
  21021546.846    -6447141.37849  -5017409.52047  21021545.967    21021552.015
       243.000         209.000
  21149078.011    -9239855.91949  -7189256.59347  21149077.109    21149083.333
       243.000         204.000
  20878778.050     1781352.98149   1430508.10347  20878777.843    20878783.689
       243.000         206.000
  21669562.973    -7455416.44649  -5801348.17447  21669563.074    21669568.811
       235.000         191.000
  23154741.098   -12342172.53849  -8939592.33746  23154739.767    23154748.426
       225.000         170.000
  21213827.695     2322312.15749   1813000.79347  21213827.303    21213833.199
       243.000         208.000
  23574352.944    -6137450.51549  -4768542.47846  23574352.076    23574360.603
       219.000         163.000
 02  1 21  4  6  0.0000000  0  8G18G17G15G 6G26G21G23G22
  20672675.051   -12629768.33349  -9825153.78548  20672674.485    20672679.594
       244.000         213.000
  21018303.624    -6464184.46349  -5030689.81247  21018302.782    21018308.767
       243.000         209.000
  21142168.363    -9276166.30849  -7217550.34747  21142167.642    21142173.729
       243.000         204.000
  20889447.515     1837421.34649   1474197.73447  20889447.277    20889453.022
       243.000         206.000
  21671421.681    -7445648.68349  -5793736.90147  21671421.097    21671427.016
       234.000         190.000
  23141563.393   -12411421.26149  -8993552.23546  23141562.660    23141571.607
       225.000         170.000
  21223725.874     2374327.13749   1853531.95247  21223725.341    21223731.058
       244.000         208.000
  23576690.019    -6125169.47349  -4758972.79446  23576689.018    23576698.128
       218.000         163.000
 02  1 21  4  6 30.0000000  0  8G18G17G15G 6G26G21G23G22
  20666477.148   -12662338.23349  -9850532.87448  20666476.456    20666481.339
       244.000         213.000
  21015086.112    -6481092.45249  -5043864.82947  21015085.199    21015091.460
       244.000         209.000
  21135286.224    -9312331.97849  -7245731.33147  21135285.426    21135292.051
       243.000         204.000
  20900205.122     1893952.74649   1518248.16947  20900204.969    20900210.631
       243.000         205.000
  21673402.487    -7435238.56749  -5785625.09147  21673402.186    21673408.374
       234.000         190.000
  23128435.305   -12480409.10749  -9047308.86146  23128433.758    23128442.574
       226.000         171.000
  21233675.649     2426613.10349   1894274.26747  21233675.003    21233680.959
       243.000         208.000
  23579118.337    -6112408.41649  -4749029.06946  23579118.266    23579126.264
       219.000         164.000
 02  1 21  4  7  0.0000000  0  8G18G17G15G 6G26G21G23G22
  20660362.052   -12694473.15049  -9875573.01848  20660361.499    20660366.537
       244.000         213.000
  21011894.366    -6497865.20549  -5056934.47247  21011893.429    21011899.669
       244.000         209.000
  21128431.687    -9348352.60849  -7273799.30247  21128431.032    21128437.398
       243.000         204.000
  20911050.545     1950945.89149   1562658.40747  20911050.381    20911056.258
       243.000         205.000
  21675505.639    -7424186.20349  -5777012.83547  21675505.590    21675511.845
       234.000         190.000
  23115357.082   -12549135.23449  -9100861.53846  23115356.062    23115364.413
       225.000         171.000
  21243676.406     2479167.69049   1935225.90147  21243675.749    21243682.093
       242.000         208.000
  23581637.764    -6099168.83849  -4738712.48146  23581637.752    23581644.828
       219.000         164.000
 02  1 21  4  7 30.0000000  0  8G18G17G15G 6G26G21G23G22
  20654329.602   -12726173.66249  -9900274.67148  20654329.046    20654333.938
       244.000         213.000
  21008728.237    -6514502.64949  -5069898.68047  21008727.531    21008733.700
       244.000         209.000
  21121604.717    -9384228.18049  -7301754.23547  21121603.828    21121610.276
       242.000         204.000
  20921983.635     2008399.45749   1607427.41247  20921983.722    20921989.331
       244.000         206.000
  21677730.996    -7412491.95249  -5767900.40447  21677730.889    21677737.135
       234.000         190.000
  23102328.478   -12617600.24849  -9154210.75046  23102327.861    23102335.443
       227.000         171.000
  21253727.838     2531988.45649   1976384.94547  21253727.251    21253733.134
       243.000         208.000
  23584247.811    -6085452.49849  -4728024.37546  23584246.426    23584255.116
       219.000         163.000
 02  1 21  4  8  0.0000000  0  8G18G17G15G 6G26G21G23G22
  20648379.788   -12757439.86349  -9924637.89248  20648379.125    20648384.309
       243.000         213.000
  21005588.016    -6531003.97549  -5082756.82947  21005587.384    21005593.658
       244.000         210.000
  21114805.420    -9419958.05049  -7329595.64047  21114804.295    21114810.886
       242.000         204.000
  20933004.240     2066312.72549   1652554.63147  20933004.333    20933009.882
       243.000         206.000
  21680078.472    -7400155.55549  -5758287.60047  21680078.444    21680084.420
       234.000         190.000
  23089349.839   -12685803.10149  -9207355.66946  23089349.186    23089357.707
       227.000         172.000
  21263829.573     2585073.66649   2017750.05547  21263828.848    21263834.874
       243.000         208.000
  23586948.453    -6071260.42749  -4716965.57646  23586947.766    23586955.527
       219.000         163.000
 02  1 21  4  8 30.0000000  0  8G18G17G15G 6G26G21G23G22
  20642512.566   -12788272.08349  -9948662.94748  20642512.006    20642516.875
       244.000         214.000
  21002473.861    -6547369.13049  -5095508.87147  21002473.320    21002479.417
       244.000         210.000
  21108033.874    -9455542.11749  -7357323.43047  21108033.033    21108039.255
       242.000         203.000
  20944111.961     2124684.54749   1698039.16247  20944111.583    20944117.602
       243.000         205.000
  21682548.142    -7387177.34949  -5748174.67947  21682548.494    21682553.608
       235.000         190.000
  23076421.168   -12753743.62149  -9260296.18246  23076420.397    23076428.353
       227.000         172.000
  21273981.174     2638420.96949   2059319.39647  21273980.540    21273986.588
       242.000         208.000
  23589739.393    -6056594.17849  -4705537.28446  23589738.954    23589746.940
       219.000         163.000
 02  1 21  4  9  0.0000000  0  8G18G17G15G 6G26G21G23G22
  20636727.859   -12818670.83349  -9972350.23448  20636727.211    20636732.200
       243.000         214.000
  20999385.615    -6563597.78449  -5108154.54647  20999385.008    20999391.413
       244.000         210.000
  21101290.193    -9490980.33449  -7384937.57647  21101289.321    21101295.472
       242.000         203.000
  20955306.739     2183513.55049   1743879.93147  20955306.403    20955312.411
       242.000         205.000
  21685139.937    -7373557.77649  -5737561.99847  21685139.780    21685145.496
       234.000         190.000
  23063542.298   -12821421.87349  -9313032.33146  23063540.623    23063549.328
       226.000         172.000
  21284182.175     2692027.96949   2101091.09547  21284181.638    21284187.473
       243.000         207.000
  23592620.202    -6041455.47949  -4693740.85246  23592619.210    23592626.951
       219.000         163.000
 02  1 21  4  9 30.0000000  0  8G18G17G15G 6G26G21G23G22
  20631025.690   -12848635.64649  -9995699.38748  20631025.129    20631030.125
       243.000         214.000
  20996323.585    -6579688.71549  -5120692.90947  20996322.988    20996329.230
       244.000         211.000
  21094574.384    -9526271.71849  -7412437.30747  21094573.671    21094579.761
       242.000         204.000
  20966588.457     2242799.33849   1790076.64547  20966588.313    20966594.176
       243.000         205.000
  21687853.664    -7359296.20149  -5726449.04747  21687853.771    21687859.842
       234.000         190.000
  23050713.629   -12888835.93549  -9365562.60646  23050712.953    23050721.455
       227.000         173.000
  21294432.517     2745893.31449   2143064.10447  21294431.692    21294437.936
       242.000         207.000
  23595590.816    -6025845.01649  -4681576.81445  23595590.003    23595597.972
       220.000         162.000
 02  1 21  4 10  0.0000000  0  8G18G17G15G 6G26G21G23G22
  20625406.051   -12878166.91349 -10018710.71648  20625405.369    20625410.383
       244.000         214.000
  20993287.821    -6595641.78249  -5133123.84247  20993287.050    20993293.203
       244.000         210.000
  21087886.584    -9561415.89649  -7439822.33947  21087885.810    21087892.146
       242.000         204.000
  20977956.896     2302540.81449   1836628.43447  20977956.623    20977962.439
       242.000         205.000
  21690689.624    -7344392.96949  -5714836.10747  21690689.868    21690695.198
       235.000         190.000
  23037935.369   -12955986.22349  -9417887.34146  23037934.180    23037942.295
       227.000         174.000
  21304731.428     2800014.67749   2185236.60847  21304730.642    21304736.915
       242.000         207.000
  23598650.876    -6009764.37449  -4669046.39645  23598650.614    23598657.371
       219.000         162.000
 02  1 21  4 10 30.0000000  0  8G18G17G15G 6G26G21G23G22
  20619868.757   -12907265.62049 -10041384.99048  20619868.262    20619872.966
       244.000         214.000
  20990278.257    -6611457.03849  -5145447.39347  20990277.433    20990283.641
       244.000         210.000
  21081226.872    -9596413.02449  -7467092.77947  21081226.071    21081232.364
       243.000         204.000
  20989411.750     2362736.40149   1883534.08147  20989411.393    20989417.363
       242.000         204.000
  21693647.666    -7328848.83549  -5702723.76847  21693647.770    21693653.074
       235.000         190.000
  23025207.152   -13022872.62949  -9470006.46046  23025205.742    23025214.154
       227.000         174.000
  21315078.612     2854389.41649   2227606.54547  21315077.979    21315083.856
       242.000         207.000
  23601799.954    -5993215.64749  -4656151.24545  23601798.705    23601806.359
       221.000         161.000
 02  1 21  4 11  0.0000000  0  8G18G17G15G 6G26G21G23G22
  20614413.813   -12935931.22649 -10063721.78048  20614413.119    20614418.187
       243.000         214.000
  20987295.096    -6627133.31149  -5157662.64947  20987294.408    20987300.677
       244.000         210.000
  21074595.331    -9631262.31749  -7494248.02647  21074594.422    21074600.757
       242.000         205.000
  21000952.859     2423385.52749   1930793.12647  21000952.443    21000958.596
       241.000         204.000
  21696727.634    -7312663.52049  -5690111.80547  21696727.388    21696733.378
       235.000         190.000
  23012529.326   -13089494.12849  -9521919.15746  23012528.208    23012536.620
       227.000         174.000
  21325473.743     2909016.08049   2270172.78947  21325473.072    21325479.210
       242.000         207.000
  23605038.023    -5976199.48249  -4642891.84745  23605037.153    23605044.598
       220.000         162.000
 02  1 21  4 11 30.0000000  0  8G18G17G15G 6G26G21G23G22
  20609041.130   -12964164.61249 -10085721.77948  20609040.508    20609045.349
       243.000         214.000
  20984338.380    -6642670.44949  -5169769.48547  20984337.645    20984343.907
       244.000         209.000
  21067991.807    -9665963.77349  -7521288.07047  21067990.923    21067997.304
       243.000         205.000
  21012580.011     2484486.73149   1978404.45447  21012579.894    21012585.909
       242.000         204.000
  21699929.481    -7295837.52849  -5677000.60847  21699929.471    21699935.437
       234.000         190.000
  22999902.106   -13155850.67849  -9573625.41046  22999901.040    22999908.427
       228.000         175.000
  21335916.406     2963892.33049   2312933.51347  21335915.683    21335921.885
       242.000         207.000
  23608364.681    -5958717.83949  -4629269.73145  23608363.500    23608371.474
       218.000         161.000
 02  1 21  4 12  0.0000000  0  8G18G17G15G 6G26G21G23G22
  20603750.651   -12991965.92049 -10107385.09248  20603749.891    20603754.881
       244.000         214.000
  20981408.250    -6658068.00349  -5181767.55347  20981407.864    20981413.582
       244.000         209.000
  21061416.601    -9700516.87049  -7548212.51347  21061415.695    21061422.082
       242.000         205.000
  21024292.974     2546038.92349   2026367.19147  21024292.545    21024298.861
       241.000         204.000
  21703253.202    -7278370.99049  -5663390.28947  21703253.750    21703258.838
       235.000         190.000
  22987325.282   -13221941.55549  -9625124.64646  22987324.446    22987332.320
       228.000         175.000
  21346406.018     3019016.05249   2355887.07847  21346405.211    21346411.449
       242.000         207.000
  23611779.541    -5940772.14349  -4615286.03745  23611779.305    23611786.170
       218.000         161.000
 02  1 21  4 12 30.0000000  0  8G18G17G15G 6G26G21G23G22
  20598542.403   -13019335.37049 -10128711.90048  20598541.896    20598546.700
       244.000         214.000
  20978504.900    -6673325.31649  -5193656.34847  20978504.464    20978510.353
       245.000         210.000
  21054869.622    -9734921.04449  -7575020.91747  21054868.738    21054875.266
       243.000         205.000
  21036091.607     2608041.03849   2074680.52747  21036091.267    21036097.519
       241.000         204.000
  21706698.835    -7260264.25349  -5649281.11747  21706698.575    21706704.642
       235.000         190.000
  22974798.991   -13287766.88649  -9676416.97346  22974797.798    22974806.048
       228.000         174.000
  21356942.435     3074385.13649   2399031.83047  21356941.957    21356947.810
       243.000         207.000
  23615282.380    -5922363.98149  -4600941.96245  23615280.581    23615288.911
       218.000         161.000
 02  1 21  4 13  0.0000000  0  8G18G17G15G 6G26G21G23G22
  20593416.190   -13046273.60349 -10149702.68748  20593415.535    20593420.447
       244.000         214.000
  20975628.398    -6688441.97549  -5205435.53947  20975627.985    20975633.393
       244.000         210.000
  21048351.070    -9769176.16349  -7601713.17647  21048350.290    21048356.408
       243.000         206.000
  21047975.618     2670491.75649   2123343.41047  21047975.220    21047981.597
       241.000         204.000
  21710266.154    -7241517.96649  -5634673.59547  21710266.285    21710271.772
       235.000         190.000
  22962323.395   -13353326.14849  -9727501.97046  22962322.115    22962330.330
       228.000         175.000
  21367525.207     3129997.35249   2442366.03447  21367524.601    21367530.302
       242.000         207.000
  23618873.053    -5903494.97349  -4586238.79645  23618872.035    23618879.527
       219.000         162.000
 02  1 21  4 13 30.0000000  0  8G18G17G15G 6G26G21G23G22
  20588371.920   -13072781.35149 -10170358.03448  20588371.497    20588376.301
       243.000         214.000
  20972778.629    -6703417.92949  -5217105.08547  20972777.948    20972783.948
       244.000         210.000
  21041860.943    -9803282.00649  -7628289.11647  21041860.143    21041866.276
       243.000         206.000
  21059944.659     2733389.58049   2172354.69747  21059944.464    21059950.405
       241.000         204.000
  21713955.107    -7222132.60949  -5619568.08847  21713954.932    21713961.015
       235.000         191.000
  22949898.521   -13418619.07049  -9778379.42846  22949897.726    22949905.074
       228.000         175.000
  21378153.611     3185850.43649   2485887.93347  21378152.933    21378159.222
       242.000         207.000
  23622551.091    -5884166.96249  -4571177.96146  23622549.709    23622558.290
       220.000         163.000
 02  1 21  4 14  0.0000000  0  8G18G17G15G 6G26G21G23G22
  20583409.630   -13098858.04149 -10190677.48648  20583409.032    20583414.165
       243.000         214.000
  20969955.880    -6718251.53149  -5228663.71147  20969955.282    20969961.353
       244.000         210.000
  21035399.555    -9837237.19749  -7654747.65947  21035398.746    21035404.906
       244.000         206.000
  21071998.788     2796734.15749   2221714.09747  21071998.699    21072004.381
       241.000         204.000
  21717765.646    -7202107.72349  -5603964.25947  21717765.534    21717771.393
       234.000         191.000
  22937524.432   -13483644.51849  -9829048.46946  22937523.853    22937531.155
       227.000         175.000
  21388827.707     3241943.25549   2529596.63747  21388827.043    21388833.026
       243.000         207.000
  23626316.338    -5864380.57149  -4555759.95946  23626315.972    23626322.837
       221.000         164.000
 02  1 21  4 14 30.0000000  0  8G18G17G15G 6G26G21G23G22
  20578529.108   -13124504.97949 -10210662.07548  20578528.381    20578533.322
       243.000         214.000
  20967160.083    -6732943.40249  -5240111.89147  20967159.178    20967165.594
       244.000         210.000
  21028966.637    -9871042.22649  -7681089.19647  21028965.920    21028971.940
       244.000         206.000
  21084137.510     2860523.31449   2271419.92647  21084137.265    21084143.416
       241.000         204.000
  21721697.604    -7181444.71049  -5587863.17747  21721697.702    21721703.273
       235.000         190.000
  22925201.194   -13548403.14149  -9879509.59746  22925200.614    22925207.936
       228.000         175.000
  21399546.859     3298272.84149   2573489.82947  21399546.033    21399552.331
       242.000         206.000
  23630168.341    -5844138.32649  -4539986.73146  23630168.125    23630174.938
       221.000         164.000
 02  1 21  4 15  0.0000000  0  8G18G17G15G 6G26G21G23G22
  20573730.344   -13149722.23549 -10230311.84348  20573729.993    20573734.748
       243.000         215.000
  20964391.439    -6747492.39649  -5251448.73947  20964390.594    20964396.913
       243.000         210.000
  21022562.358    -9904696.46449  -7707313.23747  21022561.663    21022567.728
       243.000         206.000
  21096360.625     2924756.20849   2321471.51847  21096360.164    21096366.586
       240.000         203.000
  21725751.078    -7160143.70949  -5571264.96347  21725751.016    21725755.861
       234.000         189.000
  22912928.874   -13612894.06049  -9929762.11646  22912927.261    22912935.815
       226.000         175.000
  21410310.665     3354837.35149   2617566.08547  21410309.871    21410315.919
       241.000         206.000
  23634106.755    -5823441.57549  -4523859.33946  23634105.389    23634113.138
       220.000         164.000
 02  1 21  4 15 30.0000000  0  8G18G17G15G 6G26G21G23G22
  20569013.482   -13174509.76449 -10249626.76748  20569012.939    20569017.645
       244.000         215.000
  20961650.073    -6761897.89449  -5262673.77347  20961649.322    20961655.583
       244.000         210.000
  21016186.971    -9938198.90449  -7733418.99547  21016186.277    21016192.175
       243.000         206.000
  21108668.033     2989432.07249   2371868.28947  21108668.083    21108673.807
       241.000         203.000
  21729925.837    -7138204.83649  -5554169.71347  21729925.626    21729931.476
       234.000         189.000
  22900707.481   -13677116.79749  -9979805.68846  22900707.390    22900714.506
       228.000         175.000
  21421118.862     3411635.13849   2661824.10747  21421118.198    21421124.197
       242.000         206.000
  23638131.320    -5802291.40449  -4507378.63146  23638129.833    23638139.198
       220.000         164.000
 02  1 21  4 16  0.0000000  0  8G18G17G15G 6G26G21G23G22
  20564378.230   -13198868.03749 -10268607.20348  20564377.578    20564382.518
       243.000         215.000
  20958936.243    -6776158.95549  -5273786.25747  20958935.451    20958941.735
       244.000         210.000
  21009840.632    -9971549.01149  -7759406.04147  21009839.671    21009845.934
       243.000         206.000
  21121059.480     3054549.64649   2422609.25047  21121059.015    21121065.185
       240.000         203.000
  21734221.846    -7115628.49649  -5536577.73247  21734221.651    21734227.315
       234.000         189.000
  22888537.435   -13741070.69149 -10029639.76146  22888536.416    22888544.451
       227.000         176.000
  21431971.154     3468664.41249   2706262.51347  21431970.446    21431976.415
       242.000         206.000
  23642241.915    -5780689.49949  -4490545.92146  23642240.917    23642248.999
       220.000         164.000
 02  1 21  4 16 30.0000000  0  8G18G17G15G 6G26G21G23G22
  20559824.481   -13222798.28749 -10287254.11348  20559824.030    20559828.592
       243.000         215.000
  20956249.825    -6790275.99149  -5284786.51047  20956249.011    20956255.258
       244.000         210.000
  21003523.206   -10004747.12349  -7785274.65147  21003522.474    21003528.695
       244.000         206.000
  21133534.647     3120106.87849   2473692.80347  21133534.429    21133540.565
       240.000         203.000
  21738639.026    -7092416.12849  -5518490.14547  21738639.333    21738644.028
       234.000         189.000
  22876418.191   -13804756.56249 -10079264.98546  22876417.606    22876425.708
       230.000         177.000
  21442866.950     3525922.06849   2750878.87647  21442866.223    21442872.356
       241.000         205.000
  23646438.000    -5758638.40849  -4473363.20946  23646437.682    23646444.709
       219.000         163.000
 02  1 21  4 17  0.0000000  0  8G18G17G15G 6G26G21G23G22
  20555352.100   -13246300.47949 -10305567.48048  20555351.546    20555356.487
       244.000         215.000
  20953590.970    -6804247.90949  -5295673.69447  20953590.451    20953596.575
       244.000         210.000
  20997234.847   -10037792.35549  -7811024.14647  20997233.967    20997240.453
       244.000         206.000
  21146093.244     3186102.84549   2525118.22147  21146093.004    21146098.918
       241.000         203.000
  21743177.115    -7068567.87349  -5499907.05847  21743176.812    21743182.661
       234.000         189.000
  22864350.432   -13868173.06749 -10128680.32446  22864349.670    22864356.806
       230.000         178.000
  21453805.831     3583406.58149   2795672.00947  21453805.140    21453811.034
       241.000         205.000
  23650719.429    -5736139.29249  -4455831.38446  23650718.089    23650726.572
       219.000         163.000
 02  1 21  4 17 30.0000000  0  8G18G17G15G 6G26G21G23G22
  20550961.003   -13269375.77749 -10323548.19448  20550960.606    20550965.327
       243.000         215.000
  20950959.872    -6818074.64949  -5306447.74547  20950959.323    20950965.096
       245.000         210.000
  20990975.571   -10070684.92249  -7836654.67847  20990974.751    20990980.871
       244.000         206.000
  21158735.072     3252535.80149   2576884.15247  21158735.013    21158740.848
       240.000         203.000
  21747836.002    -7044084.84749  -5480829.34347  21747835.587    21747842.075
       233.000         189.000
  22852333.755   -13931320.74549 -10177886.17746  22852333.239    22852340.714
       230.000         178.000
  21464787.357     3641115.38649   2840639.91847  21464786.717    21464792.744
       241.000         205.000
  23655085.656    -5713194.41349  -4437952.21545  23655084.536    23655092.476
       218.000         162.000
 02  1 21  4 18  0.0000000  0  8G18G17G15G 6G26G21G23G22
  20546651.058   -13292024.45649 -10341196.47748  20546650.370    20546655.287
       243.000         215.000
  20948356.502    -6831755.68449  -5317108.26047  20948355.895    20948361.859
       245.000         211.000
  20984745.494   -10103424.21849  -7862165.77547  20984744.494    20984750.970
       243.000         207.000
  21171459.742     3319404.51549   2628989.62647  21171459.434    21171465.540
       240.000         202.000
  21752615.618    -7018967.50449  -5461257.36747  21752615.837    21752621.553
       235.000         189.000
  22840368.373   -13994199.15949 -10226882.21946  22840367.383    22840374.807
       228.000         179.000
  21475811.251     3699046.53849   2885781.08247  21475810.895    21475816.784
       241.000         205.000
  23659536.414    -5689805.28049  -4419726.86945  23659534.865    23659542.915
       219.000         162.000
 02  1 21  4 18 30.0000000  0  8G18G17G15G 6G26G21G23G22
  20542422.184   -13314246.97549 -10358512.69248  20542421.647    20542426.456
       243.000         214.000
  20945780.961    -6845290.11349  -5327654.53247  20945780.408    20945786.108
       244.000         211.000
  20978544.586   -10136009.66949  -7887556.99447  20978543.916    20978550.066
       244.000         207.000
  21184267.136     3386707.67049   2681433.63647  21184266.837    21184272.825
       240.000         202.000
  21757515.942    -6993216.51349  -5441191.63347  21757515.975    21757521.556
       234.000         189.000
  22828454.169   -14056808.17649 -10275668.35146  22828453.151    22828460.667
       229.000         179.000
  21486877.096     3757197.99749   2931093.91547  21486876.505    21486882.735
       242.000         205.000
  23664071.307    -5665973.64949  -4401156.72845  23664070.125    23664077.558
       218.000         162.000
 02  1 21  4 19  0.0000000  0  8G18G17G15G 6G26G21G23G22
  20538274.382   -13336043.86049 -10375497.24248  20538273.689    20538278.528
       243.000         214.000
  20943233.396    -6858677.45749  -5338086.19747  20943232.622    20943238.632
       244.000         211.000
  20972373.170   -10168440.58849  -7912827.80647  20972372.659    20972378.716
       244.000         208.000
  21197156.860     3454443.90649   2734215.10647  21197156.714    21197162.726
       240.000         201.000
  21762536.647    -6966832.56549  -5420632.68947  21762536.569    21762542.460
       234.000         189.000
  22816591.329   -14119147.58149 -10324244.40046  22816590.393    22816598.108
       229.000         179.000
  21497984.488     3815567.62649   2976576.75247  21497984.115    21497990.007
       242.000         205.000
  23668690.183    -5641701.25949  -4382243.13345  23668689.417    23668697.181
       220.000         161.000
 02  1 21  4 19 30.0000000  0  8G18G17G15G 6G26G21G23G22
  20534207.326   -13357415.96749 -10392150.79148  20534206.974    20534211.656
       244.000         215.000
  20940713.873    -6871917.37449  -5348402.98647  20940713.196    20940719.295
       244.000         211.000
  20966231.187   -10200716.97849  -7937978.20547  20966230.691    20966236.530
       245.000         208.000
  21210128.694     3522611.40249   2787332.62247  21210128.374    21210134.736
       240.000         201.000
  21767677.545    -6939816.69949  -5399581.34447  21767677.590    21767683.360
       234.000         189.000
  22804779.619   -14181217.43949 -10372610.40746  22804778.780    22804786.637
       231.000         179.000
  21509133.004     3874153.16849   3022227.83047  21509132.557    21509138.665
       241.000         205.000
  23673392.494    -5616990.21249  -4362987.73945  23673391.482    23673399.349
       218.000         161.000
 02  1 21  4 20  0.0000000  0  8G18G17G15G 6G26G21G23G22
  20530221.300   -13378363.03249 -10408473.14048  20530220.694    20530225.321
       243.000         215.000
  20938222.720    -6885008.29449  -5358603.66547  20938221.981    20938228.072
       244.000         211.000
  20960118.907   -10232837.36349  -7963007.02847  20960117.982    20960124.184
       244.000         207.000
  21223182.555     3591209.77049   2840785.89247  21223182.477    21223188.578
       240.000         201.000
  21772938.833    -6912168.66649  -5378037.39947  21772938.768    21772944.216
       234.000         189.000
  22793019.458   -14243016.72049 -10420765.57046  22793018.881    22793025.927
       230.000         179.000
  21520322.421     3932953.70749   3068046.44247  21520321.921    21520327.733
       241.000         205.000
  23678178.112    -5591841.37849  -4343391.20245  23678176.649    23678185.258
       220.000         160.000
 02  1 21  4 20 30.0000000  0  8G18G17G15G 6G26G21G23G22
  20526315.816   -13398886.19649 -10424465.17848  20526315.358    20526319.954
       243.000         215.000
  20935759.857    -6897950.43349  -5368688.42347  20935759.305    20935765.345
       245.000         211.000
  20954036.161   -10264801.95949  -7987914.47547  20954035.343    20954041.412
       244.000         207.000
  21236318.029     3660236.88249   2894573.23747  21236317.913    21236323.817
       240.000         201.000
  21778320.103    -6883890.13549  -5356002.16747  21778320.163    21778325.897
       235.000         189.000
  22781310.864   -14304545.75549 -10468710.16646  22781310.757    22781317.778
       230.000         180.000
  21531552.182     3991966.34549   3114030.32247  21531551.577    21531557.514
       241.000         205.000
  23683046.607    -5566257.17649  -4323455.43145  23683045.189    23683052.932
       219.000         160.000
 02  1 21  4 21  0.0000000  0  8G18G17G15G 6G26G21G23G22
  20522490.855   -13418986.59049 -10440127.78148  20522490.306    20522495.030
       243.000         215.000
  20933325.479    -6910743.44249  -5378656.96547  20933324.811    20933330.862
       245.000         211.000
  20947983.184   -10296610.34249  -8012700.18747  20947982.324    20947988.296
       245.000         207.000
  21249534.740     3729691.06649   2948693.36647  21249534.503    21249540.283
       240.000         200.000
  21783821.053    -6854982.18849  -5333476.46847  21783820.665    21783826.492
       234.000         189.000
  22769653.801   -14365804.20349 -10516443.91146  22769653.327    22769660.063
       231.000         180.000
  21542821.726     4051188.59449   3160177.54547  21542821.015    21542827.160
       242.000         204.000
  23687997.440    -5540239.87249  -4303182.18945  23687997.131    23688003.800
       219.000         161.000
 02  1 21  4 21 30.0000000  0  8G18G17G15G 6G26G21G23G22
  20518746.345   -13438663.74649 -10455460.58948  20518745.778    20518750.615
       243.000         215.000
  20930919.732    -6923385.75149  -5388508.08147  20930919.186    20930924.973
       244.000         211.000
  20941960.264   -10328261.22749  -8037363.17247  20941959.493    20941965.324
       245.000         207.000
  21262832.598     3799571.65649   3003145.76447  21262832.547    21262838.608
       240.000         200.000
  21789441.772    -6825444.94349  -5310460.40947  21789441.953    21789447.811
       234.000         189.000
  22758048.105   -14426791.56749 -10563966.41346  22758047.522    22758054.637
       230.000         179.000
  21554130.978     4110619.34549   3206487.22947  21554130.236    21554136.632
       240.000         204.000
  23693030.660    -5513790.49649  -4282572.24345  23693029.627    23693036.767
       220.000         161.000
 02  1 21  4 22  0.0000000  0  8G18G17G15G 6G26G21G23G22
  20515082.203   -13457918.94849 -10470464.60548  20515081.625    20515086.480
       243.000         215.000
  20928542.576    -6935877.51449  -5398241.89647  20928541.922    20928547.907
       244.000         211.000
  20935967.224   -10359754.89449  -8061903.65447  20935966.372    20935972.380
       245.000         207.000
  21276211.199     3869876.45949   3057928.71347  21276210.996    21276217.020
       239.000         200.000
  21795182.028    -6795279.87449  -5286955.14447  21795182.499    21795187.401
       235.000         189.000
  22746493.993   -14487508.21149 -10611277.97546  22746492.921    22746500.074
       230.000         179.000
  21565479.414     4170255.85349   3252957.24147  21565478.820    21565484.643
       240.000         204.000
  23698145.622    -5486911.57349  -4261627.60045  23698144.236    23698153.032
       218.000         162.000
 02  1 21  4 22 30.0000000  0  8G18G17G15G 6G26G21G23G22
  20511498.138   -13476752.91049 -10485140.37848  20511497.516    20511502.273
       243.000         215.000
  20926194.296    -6948217.95149  -5407857.79547  20926193.378    20926199.447
       244.000         210.000
  20930004.211   -10391090.60649  -8086321.05247  20930003.320    20930009.404
       244.000         208.000
  21289670.177     3940604.04149   3113041.09347  21289669.878    21289675.997
       238.000         200.000
  21801041.600    -6764487.77549  -5262961.28247  21801040.833    21801047.138
       233.000         188.000
  22734991.405   -14547954.09149 -10658378.54746  22734989.914    22734997.273
       229.000         179.000
  21576866.653     4230096.18149   3299586.07747  21576866.136    21576872.253
       241.000         204.000
  23703341.893    -5459604.93549  -4240349.68145  23703340.689    23703349.128
       222.000         162.000
 02  1 21  4 23  0.0000000  0  8G18G17G15G 6G26G21G23G22
  20507994.274   -13495165.60049 -10499487.89148  20507993.571    20507998.216
       242.000         214.000
  20923874.954    -6960405.76249  -5417354.76247  20923874.033    20923880.210
       244.000         210.000
  20924071.411   -10422267.41149  -8110614.63547  20924070.667    20924076.481
       246.000         208.000
  21303209.412     4011753.53949   3168482.24347  21303208.895    21303215.238
       238.000         199.000
  21807020.235    -6733069.06649  -5238479.15147  21807020.254    21807025.624
       234.000         188.000
  22723540.570   -14608128.03549 -10705267.22946  22723539.701    22723547.143
       230.000         180.000
  21588292.434     4290138.90649   3346372.62047  21588291.647    21588297.461
       241.000         204.000
  23708619.346    -5431871.75049  -4218739.38045  23708618.835    23708626.216
       222.000         162.000
 02  1 21  4 23 30.0000000  0  8G18G17G15G 6G26G21G23G22
  20504570.398   -13513157.96749 -10513507.88048  20504569.672    20504574.514
       242.000         214.000
  20921584.615    -6972440.80549  -5426732.69447  20921583.769    20921589.862
       244.000         210.000
  20918168.896   -10453285.05849  -8134784.19247  20918168.024    20918174.150
       245.000         208.000
  21316828.652     4083323.01849   3224250.65447  21316828.467    21316834.579
       238.000         199.000
  21813117.920    -6701025.01749  -5213509.73446  21813117.883    21813123.901
       233.000         187.000
  22712141.396   -14668030.27649 -10751944.18346  22712140.302    22712148.166
       230.000         180.000
  21599756.319     4350381.62849   3393315.00847  21599755.680    21599761.505
       241.000         204.000
  23713977.570    -5403714.41949  -4196798.57746  23713976.456    23713984.090
       222.000         163.000
 02  1 21  4 24  0.0000000  0  8G18G17G15G 6G26G21G23G22
  20501226.347   -13530731.00849 -10527201.12448  20501225.787    20501230.293
       243.000         214.000
  20919323.561    -6984322.62449  -5435991.23247  20919323.034    20919328.881
       244.000         210.000
  20912296.743   -10484143.18649  -8158829.44647  20912295.839    20912301.745
       245.000         208.000
  21330527.458     4155310.67549   3280344.91947  21330526.973    21330533.307
       238.000         199.000
  21819334.410    -6668356.92349  -5188054.06046  21819334.139    21819339.917
       233.000         187.000
  22700793.971   -14727661.14549 -10798409.69146  22700793.218    22700800.523
       231.000         181.000
  21611257.723     4410822.07849   3440411.47047  21611257.098    21611263.014
       241.000         203.000
  23719416.061    -5375135.08449  -4174528.94245  23719415.410    23719422.928
       219.000         162.000
 02  1 21  4 24 30.0000000  0  8G18G17G15G 6G26G21G23G22
  20497961.971   -13547885.43649 -10540568.17748  20497961.437    20497965.975
       242.000         214.000
  20917091.854    -6996050.38149  -5445129.72347  20917091.379    20917097.175
       245.000         210.000
  20906455.053   -10514841.15049  -8182749.90247  20906453.993    20906460.221
       244.000         208.000
  21344305.596     4227715.23949   3336764.04447  21344305.315    21344311.423
       238.000         198.000
  21825669.482    -6635065.66749  -5162112.79346  21825669.563    21825675.701
       233.000         187.000
  22689498.206   -14787020.70049 -10844663.78546  22689497.218    22689505.191
       230.000         182.000
  21622796.381     4471458.48249   3487660.62147  21622795.750    21622801.626
       241.000         203.000
  23724934.353    -5346135.61149  -4151931.93745  23724932.611    23724941.991
       217.000         162.000
 02  1 21  4 25  0.0000000  0  8G18G17G15G 6G26G21G23G22
  20494777.177   -13564621.21149 -10553608.99948  20494776.561    20494781.212
       243.000         214.000
  20914889.775    -7007622.68649  -5454147.08447  20914889.253    20914894.918
       244.000         210.000
  20900644.116   -10545377.75149  -8206544.62647  20900643.266    20900649.554
       245.000         208.000
  21358162.887     4300535.90649   3393507.40147  21358162.532    21358168.724
       237.000         198.000
  21832123.110    -6601151.63249  -5135686.24746  21832123.375    21832128.812
       233.000         187.000
  22678254.174   -14846107.64349 -10890705.45246  22678253.472    22678260.626
       232.000         181.000
  21634372.109     4532289.46749   3535061.39547  21634371.426    21634377.598
       241.000         203.000
  23730532.264    -5316717.18249  -4129008.46345  23730531.055    23730539.763
       218.000         160.000
 02  1 21  4 25 30.0000000  0  9G18G17G15G 3G 6G26G21G23G22
  20491671.683   -13580940.44149 -10566325.23948  20491671.041    20491675.657
       242.000         215.000
  20912716.991    -7019040.57349  -5463044.11747  20912716.298    20912722.162
       245.000         210.000
  20894863.725   -10575754.01449  -8230214.40347  20894863.027    20894869.202
       245.000         209.000
  24616174.762    -2527656.55349  -1712583.20745  24616172.898    24616181.985
       201.000         139.000
  21372098.733     4373769.38749   3450572.42847  21372098.384    21372104.962
       237.000         198.000
  21838694.703    -6566617.51449  -5108776.52746  21838694.736    21838700.669
       233.000         187.000
  22667061.880   -14904923.35749 -10936535.77946  22667060.660    22667068.550
       230.000         181.000
  21645984.184     4593311.33149   3582610.90747  21645983.348    21645989.551
       240.000         203.000
  23736209.392    -5286883.44949  -4105761.38945  23736208.015    23736217.207
       219.000         160.000
 02  1 21  4 26  0.0000000  0  9G18G17G15G 3G 6G26G21G23G22
  20488644.044   -13596850.55049 -10578722.68748  20488643.497    20488648.018
       243.000         215.000
  20910572.537    -7030309.85849  -5471825.35847  20910571.882    20910577.768
       244.000         211.000
  20889112.625   -10605976.00649  -8253763.97447  20889111.779    20889117.869
       245.000         209.000
  24597006.491    -2628385.57049  -1791073.11445  24597005.667    24597014.731
       209.000         144.000
  21386111.607     4447407.52249   3507952.77447  21386111.373    21386117.616
       237.000         198.000
  21845382.848    -6531471.17149  -5081389.75046  21845382.956    21845388.742
       233.000         187.000
  22655919.848   -14963474.19749 -10982159.71046  22655918.874    22655926.210
       232.000         181.000
  21657630.929     4654515.60349   3630302.55247  21657630.404    21657636.173
       241.000         203.000
  23741964.026    -5256643.08349  -4082197.45045  23741962.351    23741971.252
       217.000         160.000
 02  1 21  4 26 30.0000000  0  9G18G17G15G 3G 6G26G21G23G22
  20485696.298   -13612341.22549 -10590793.30448  20485695.788    20485700.421
       242.000         215.000
  20908458.601    -7041418.74349  -5480481.61447  20908457.986    20908463.985
       245.000         210.000
  20883393.174   -10636031.87449  -8277184.08447  20883392.308    20883398.587
       245.000         209.000
  24577862.740    -2728986.44149  -1869463.25345  24577862.780    24577871.025
       211.000         148.000
  21400203.288     4521459.79849   3565655.82547  21400203.148    21400209.422
       237.000         198.000
  21852189.416    -6495702.42349  -5053517.97946  21852189.654    21852195.349
       233.000         187.000
  22644830.409   -15021749.29449 -11027568.78246  22644829.191    22644836.507
       231.000         182.000
  21669314.171     4715911.42949   3678143.46047  21669313.646    21669319.431
       240.000         202.000
  23747797.602    -5225986.76549  -4058309.38845  23747795.473    23747804.880
       217.000         159.000
 02  1 21  4 27  0.0000000  0  9G18G17G15G 3G 6G26G21G23G22
  20482827.761   -13627415.03049 -10602539.08448  20482827.104    20482831.804
       242.000         215.000
  20906374.988    -7052368.17349  -5489013.61147  20906374.338    20906380.209
       244.000         210.000
  20877705.073   -10665922.87749  -8300475.74347  20877704.136    20877710.420
       245.000         209.000
  24558743.341    -2829458.99349  -1947753.40245  24558741.327    24558751.749
       202.000         141.000
  21414373.154     4595922.69449   3623678.84547  21414372.928    21414379.308
       237.000         198.000
  21859113.831    -6459314.29049  -5025163.56546  21859113.601    21859119.710
       233.000         186.000
  22633793.105   -15079750.34949 -11072764.31546  22633792.242    22633799.361
       232.000         182.000
  21681033.139     4777494.93149   3726130.61447  21681032.563    21681038.723
       241.000         202.000
  23753709.655    -5194918.48349  -4034100.31345  23753709.329    23753717.162
       218.000         159.000
 02  1 21  4 27 30.0000000  0  9G18G17G15G 3G 6G26G21G23G22
  20480038.342   -13642073.32949 -10613961.09948  20480037.835    20480042.387
       243.000         215.000
  20904321.568    -7063158.71249  -5497421.79947  20904320.670    20904326.819
       244.000         210.000
  20872048.276   -10695649.06049  -8323638.96747  20872047.412    20872053.838
       245.000         209.000
  24539648.422    -2929801.65649  -2025942.32244  24539647.156    24539654.146
       201.000         129.000
  21428620.666     4670793.84849   3682019.98447  21428620.355    21428626.648
       237.000         197.000
  21866155.767    -6422308.74849  -4996328.06646  21866156.055    21866161.490
       233.000         186.000
  22622807.881   -15137477.78449 -11117746.64946  22622807.306    22622814.724
       231.000         182.000
  21692787.345     4839263.37749   3774261.87547  21692786.766    21692792.647
       240.000         202.000
  23759699.534    -5163440.99549  -4009572.35145  23759698.943    23759706.633
       219.000         159.000
 02  1 21  4 28  0.0000000  0  9G18G17G15G 3G 6G26G21G23G22
  20477327.769   -13656317.34049 -10625060.29348  20477327.351    20477332.015
       243.000         215.000
  20902298.494    -7073789.63049  -5505705.61347  20902297.850    20902303.878
       245.000         210.000
  20866422.929   -10725210.29149  -8346673.66047  20866421.987    20866428.284
       246.000         209.000
  24520578.656    -3030012.08149  -2104028.25945  24520578.437    24520588.245
       212.000         135.000
  21442945.516     4746071.23349   3740677.66247  21442945.128    21442950.954
       237.000         197.000
  21873314.914    -6384687.46249  -4967012.76146  21873314.829    21873320.994
       232.000         186.000
  22611874.600   -15194932.42749 -11162516.40646  22611874.175    22611881.473
       233.000         183.000
  21704576.177     4901214.27549   3822535.30247  21704575.835    21704581.345
       241.000         202.000
  23765766.881    -5131556.84649  -3984727.53945  23765766.172    23765773.793
       218.000         159.000
 02  1 21  4 28 30.0000000  0  9G18G17G15G 3G 6G26G21G23G22
  20474695.837   -13670148.34149 -10635837.66248  20474695.173    20474699.867
       243.000         215.000
  20900305.934    -7084260.54049  -5513864.74347  20900305.280    20900311.381
       244.000         210.000
  20860829.154   -10754606.25149  -8369579.57047  20860828.249    20860834.450
       246.000         209.000
  24501534.815    -3130088.11949  -2182009.45545  24501533.881    24501542.770
       214.000         146.000
  21457347.273     4821752.78649   3799650.28447  21457347.278    21457353.193
       237.000         197.000
  21880590.852    -6346451.88549  -4937218.79346  21880590.702    21880596.362
       232.000         186.000
  22600993.278   -15252114.22049 -11207073.55646  22600992.339    22600999.164
       232.000         183.000
  21716399.364     4963345.45349   3870949.20847  21716398.660    21716404.591
       240.000         202.000
  23771911.084    -5099268.36949  -3959567.67845  23771910.539    23771917.643
       218.000         159.000
 02  1 21  4 29  0.0000000  0  9G18G17G15G 3G 6G26G21G23G22
  20472142.273   -13683567.36649 -10646294.01448  20472141.571    20472146.260
       242.000         215.000
  20898343.858    -7094571.21449  -5521899.01547  20898343.408    20898349.194
       245.000         211.000
  20855266.708   -10783836.81749  -8392356.60247  20855265.930    20855272.084
       246.000         209.000
  24482516.831    -3230028.08949  -2259884.58545  24482515.977    24482524.060
       203.000         145.000
  21471825.569     4897836.64249   3858936.38747  21471825.694    21471831.464
       237.000         196.000
  21887983.399    -6307603.67649  -4906947.44846  21887983.314    21887989.292
       232.000         185.000
  22590163.726   -15309023.20549 -11251418.13146  22590163.026    22590170.465
       232.000         183.000
  21728256.464     5025654.74749   3919501.90247  21728255.812    21728261.661
       241.000         202.000
  23778131.951    -5066577.81549  -3934094.48345  23778131.382    23778138.732
       220.000         160.000
 02  1 21  4 29 30.0000000  0  9G18G17G15G 3G 6G26G21G23G22
  20469666.881   -13696575.59449 -10656430.26548  20469666.635    20469670.873
       243.000         215.000
  20896412.442    -7104720.96949  -5529807.89447  20896411.965    20896417.725
       245.000         211.000
  20849735.794   -10812901.56549  -8415004.42947  20849735.089    20849741.264
       246.000         209.000
  24463524.864    -3329829.86649  -2337651.99345  24463523.945    24463532.825
       205.000         137.000
  21486380.033     4974320.77449   3918534.39147  21486379.509    21486385.818
       237.000         196.000
  21895492.218    -6268144.43549  -4876199.97246  21895491.826    21895498.053
       232.000         185.000
  22579385.971   -15365660.22149 -11295550.78546  22579384.647    22579391.939
       232.000         184.000
  21740146.995     5088139.76649   3968191.53047  21740146.270    21740152.110
       241.000         202.000
  23784428.921    -5033487.75949  -3908309.99345  23784428.193    23784435.583
       221.000         161.000
 02  1 21  4 30  0.0000000  0  9G18G17G15G 3G 6G26G21G23G22
  20467269.582   -13709173.27849 -10666246.61448  20467268.925    20467273.699
       243.000         215.000
  20894511.904    -7114708.65249  -5537590.48547  20894511.251    20894517.053
       245.000         211.000
  20844236.740   -10841799.28949  -8437522.10747  20844236.086    20844241.720
       245.000         209.000
  24444560.197    -3429490.34549  -2415309.39245  24444560.213    24444567.268
       210.000         139.000
  21501010.417     5051203.92049   3978443.30547  21501010.100    21501016.201
       237.000         196.000
  21903117.192    -6228074.99249  -4844977.02346  21903117.138    21903123.075
       232.000         185.000
  22568660.097   -15422024.67649 -11339471.05746  22568659.512    22568666.148
       232.000         184.000
  21752070.602     5150799.07449   4017016.96847  21752069.825    21752075.477
       240.000         201.000
  23790801.480    -4999999.67649  -3882215.36145  23790800.372    23790808.270
       220.000         160.000
 02  1 21  4 30 30.0000000  0  9G18G17G15G 3G 6G26G21G23G22
  20464950.148   -13721361.69349 -10675744.04648  20464949.460    20464954.167
       242.000         215.000
  20892642.183    -7124533.98949  -5545246.57447  20892641.475    20892647.666
       245.000         211.000
  20838769.525   -10870529.83549  -8459909.51847  20838768.801    20838774.720
       246.000         209.000
  24425622.494    -3529007.77449  -2492855.33045  24425621.394    24425630.926
       207.000         141.000
  21515716.243     5128483.77749   4038661.36147  21515716.330    21515721.889
       236.000         195.000
  21910857.902    -6187397.16049  -4813280.00346  21910858.049    21910863.781
       232.000         185.000
  22557986.098   -15478116.60249 -11383178.97046  22557985.222    22557992.716
       232.000         185.000
  21764026.869     5213630.22449   4065976.31247  21764026.088    21764032.102
       240.000         201.000
  23797249.225    -4966116.33849  -3855812.75145  23797247.558    23797256.492
       219.000         160.000
 02  1 21  4 31  0.0000000  0  9G18G17G15G 3G 6G26G21G23G22
  20462708.519   -13733141.24249 -10684922.88748  20462708.092    20462712.539
       243.000         215.000
  20890803.558    -7134195.94649  -5552775.35247  20890802.698    20890808.649
       245.000         211.000
  20833334.295   -10899092.20549  -8482165.87747  20833333.473    20833339.266
       246.000         209.000
  24406712.587    -3628379.17349  -2570287.40545  24406711.026    24406719.386
       199.000         135.000
  21530497.399     5206159.29249   4099187.71847  21530497.357    21530503.182
       237.000         195.000
  21918714.150    -6146111.91649  -4781109.67746  21918713.930    21918719.838
       232.000         186.000
  22547363.936   -15533935.78849 -11426674.35646  22547362.885    22547369.920
       233.000         185.000
  21776015.630     5276631.69749   4115068.36947  21776015.028    21776021.060
       240.000         200.000
  23803771.963    -4931839.46449  -3829103.47245  23803771.162    23803778.344
       219.000         158.000
 02  1 21  4 31 30.0000000  0  9G18G17G15G 3G 6G26G21G23G22
  20460544.514   -13744513.22449 -10693784.14348  20460544.280    20460548.389
       243.000         215.000
  20888996.091    -7143694.07449  -5560176.47647  20888995.190    20889001.409
       244.000         211.000
  20827931.044   -10927486.18149  -8504291.02647  20827930.194    20827936.094
       245.000         209.000
  24387831.051    -3727602.82149  -2647604.33645  24387829.887    24387838.392
       205.000         133.000
  21545353.489     5284228.18549   4160020.60147  21545353.332    21545359.652
       236.000         195.000
  21926685.790    -6104221.12449  -4748467.49546  21926685.711    21926691.396
       232.000         186.000
  22536793.679   -15589482.81849 -11469957.68346  22536793.163    22536799.654
       232.000         185.000
  21788036.458     5339801.01249   4164291.21447  21788035.927    21788041.799
       240.000         200.000
  23810368.973    -4897171.58849  -3802089.52745  23810367.556    23810375.518
       219.000         157.000
 02  1 21  4 32  0.0000000  0  9G18G17G15G 3G 6G26G21G23G22
  20458457.911   -13755478.50249 -10702328.48648  20458457.335    20458461.885
       243.000         215.000
  20887219.905    -7153027.57449  -5567449.31347  20887219.309    20887225.321
       245.000         211.000
  20822559.953   -10955710.88149  -8526284.27047  20822559.142    20822565.449
       246.000         210.000
  24368977.786    -3826675.83749  -2724803.94945  24368976.838    24368985.070
       207.000         141.000
  21560284.044     5362688.77549   4221158.70147  21560283.956    21560290.027
       236.000         195.000
  21934772.353    -6061726.10849  -4715354.48246  21934772.733    21934777.801
       233.000         185.000
  22526275.206   -15644757.47949 -11513028.76846  22526274.375    22526282.224
       232.000         185.000
  21800088.834     5403136.38449   4213643.45147  21800088.063    21800094.028
       240.000         200.000
  23817040.071    -4862114.73549  -3774772.48445  23817038.327    23817046.551
       217.000         156.000
 02  1 21  4 32 30.0000000  0  9G18G17G15G 3G 6G26G21G23G22
  20456448.597   -13766037.37249 -10710556.14648  20456448.126    20456452.420
       243.000         215.000
  20885475.351    -7162195.26849  -5574592.94847  20885474.427    20885480.397
       244.000         210.000
  20817221.321   -10983765.28249  -8548144.81447  20817220.558    20817226.477
       246.000         210.000
  24350153.792    -3925595.61949  -2801884.13245  24350153.290    24350161.560
       207.000         145.000
  21575288.902     5441539.71549   4282600.97147  21575288.599    21575294.796
       236.000         195.000
  21942973.679    -6018627.88749  -4681771.45146  21942974.095    21942979.359
       233.000         185.000
  22515808.606   -15699759.47149 -11555887.39246  22515807.571    22515814.965
       232.000         186.000
  21812172.444     5466636.24149   4263123.86147  21812171.738    21812177.861
       239.000         200.000
  23823784.806    -4826670.66549  -3747153.71945  23823784.047    23823791.985
       217.000         157.000
 02  1 21  4 33  0.0000000  0  9G18G17G15G 3G 6G26G21G23G22
  20454516.299   -13776191.58349 -10718468.49148  20454515.633    20454520.108
       243.000         215.000
  20883762.327    -7171196.99749  -5581607.27147  20883761.803    20883767.619
       244.000         210.000
  20811915.170   -11011649.25549  -8569872.55747  20811914.232    20811920.319
       246.000         210.000
  24331359.477    -4024360.27949  -2878843.40245  24331358.971    24331367.700
       211.000         145.000
  21590367.568     5520778.42949   4344345.39847  21590367.350    21590373.662
       236.000         195.000
  21951289.331    -5974928.61849  -4647720.06646  21951289.229    21951294.836
       232.000         185.000
  22505393.667   -15754489.47049 -11598534.06546  22505392.901    22505400.625
       232.000         186.000
  21824286.822     5530298.08649   4312730.49747  21824286.021    21824292.268
       239.000         200.000
  23830602.629    -4790842.31649  -3719235.50545  23830601.748    23830609.704
       218.000         157.000
 02  1 21  4 33 30.0000000  0  9G18G17G15G 3G 6G26G21G23G22
  20452660.926   -13785941.39549 -10726065.72148  20452660.308    20452664.761
       243.000         215.000
  20882081.174    -7180031.52049  -5588491.29247  20882080.506    20882086.596
       245.000         210.000
  20806641.644   -11039361.79949  -8591466.71947  20806640.792    20806647.009
       245.000         210.000
  24312595.291    -4122966.65649  -2955679.43145  24312594.811    24312602.922
       214.000         146.000
  21605519.756     5600403.82149   4406391.13247  21605519.160    21605525.537
       235.000         194.000
  21959719.211    -5930629.20349  -4613201.03246  21959719.273    21959724.646
       233.000         185.000
  22495030.746   -15808946.71749 -11640968.22046  22495030.484    22495037.292
       233.000         186.000
  21836431.772     5594120.62149   4362462.34947  21836431.243    21836437.358
       239.000         200.000
  23837493.427    -4754631.28149  -3691019.11145  23837492.477    23837500.354
       219.000         158.000
 02  1 21  4 34  0.0000000  0  9G18G17G15G 3G 6G26G21G23G22
  20450882.251   -13795288.45249 -10733349.11948  20450881.699    20450886.081
       243.000         215.000
  20880431.869    -7188698.48749  -5595244.76047  20880431.228    20880437.222
       244.000         210.000
  20801400.720   -11066902.90149  -8612927.29147  20801399.701    20801406.008
       245.000         209.000
  24293861.532    -4221413.21149  -3032390.86845  24293860.900    24293868.694
       213.000         150.000
  21620745.037     5680413.31449   4468736.17147  21620745.080    21620751.280
       235.000         194.000
  21968262.940    -5885731.89249  -4578216.11646  21968262.968    21968268.271
       233.000         185.000
  22484719.657   -15863132.22849 -11683190.62646  22484719.513    22484725.861
       235.000         186.000
  21848606.842     5658101.16349   4412317.31947  21848606.444    21848612.451
       240.000         200.000
  23844456.437    -4718040.51649  -3662506.80645  23844456.176    23844462.714
       216.000         157.000
 02  1 21  4 34 30.0000000  0  9G18G17G15G 3G 6G26G21G23G22
  20449180.090   -13804233.16549 -10740318.99548  20449179.687    20449184.183
       242.000         215.000
  20878814.729    -7197196.54449  -5601866.60347  20878814.028    20878819.948
       244.000         210.000
  20796192.702   -11094271.04549  -8634253.09147  20796191.946    20796197.978
       246.000         209.000
  24275158.566    -4319696.92849  -3108975.39845  24275158.138    24275166.019
       212.000         150.000
  21636043.247     5760805.74749   4531379.60547  21636042.769    21636049.308
       235.000         193.000
  21976920.207    -5840237.73749  -4542766.11946  21976920.015    21976925.870
       232.000         185.000
  22474460.222   -15917045.45249 -11725200.87146  22474459.535    22474466.468
       234.000         186.000
  21860811.888     5722238.37849   4462294.37147  21860811.295    21860817.471
       240.000         200.000
  23851491.242    -4681071.72649  -3633699.96045  23851489.397    23851498.462
       217.000         157.000
 02  1 21  4 35  0.0000000  0  9G18G17G15G 3G 6G26G21G23G22
  20447554.305   -13812776.65049 -10746976.22748  20447553.913    20447558.326
       243.000         215.000
  20877229.799    -7205525.29649  -5608356.51947  20877229.175    20877235.031
       243.000         210.000
  20791017.652   -11121466.01149  -8655443.94747  20791016.839    20791022.960
       245.000         209.000
  24256486.972    -4417815.82949  -3185431.56345  24256487.033    24256494.198
       214.000         144.000
  21651413.809     5841578.91249   4594319.72647  21651413.488    21651420.014
       235.000         193.000
  21985690.678    -5794148.62949  -4506852.52846  21985690.413    21985696.331
       232.000         185.000
  22464252.606   -15970686.22249 -11766998.81646  22464252.172    22464258.430
       234.000         186.000
  21873046.284     5786529.86549   4512391.63347  21873045.526    21873051.663
       240.000         200.000
  23858597.568    -4643727.29049  -3604600.39245  23858596.517    23858604.482
       216.000         156.000
 02  1 21  4 35 30.0000000  0  9G18G17G15G 3G 6G26G21G23G22
  20446004.710   -13820919.82249 -10753321.52848  20446004.136    20446008.407
       242.000         215.000
  20875677.207    -7213683.97849  -5614713.91547  20875676.430    20875682.503
       244.000         210.000
  20785875.699   -11148487.03749  -8676499.26647  20785874.798    20785880.701
       246.000         209.000
  24237847.585    -4515767.16749  -3261757.20345  24237846.538    24237854.548
       215.000         146.000
  21666856.586     5922731.05849   4657555.14847  21666856.188    21666862.674
       234.000         193.000
  21994574.143    -5747465.93649  -4470476.40246  21994573.773    21994579.483
       231.000         184.000
  22454096.856   -16024055.23749 -11808585.00046  22454096.253    22454103.026
       235.000         186.000
  21885309.618     5850973.96049   4562607.80947  21885308.896    21885314.796
       239.000         200.000
  23865774.963    -4606009.40649  -3575209.81845  23865773.579    23865782.080
       216.000         156.000
 02  1 21  4 36  0.0000000  0  9G18G17G15G 3G 6G26G21G23G22
  20444531.068   -13828663.51849 -10759355.55148  20444530.656    20444534.915
       243.000         215.000
  20874157.180    -7221671.56649  -5620937.98847  20874156.512    20874162.570
       244.000         210.000
  20780767.047   -11175333.34349  -8697418.44047  20780766.305    20780771.990
       246.000         209.000
  24219240.228    -4613548.70949  -3337950.45745  24219240.399    24219247.322
       213.000         149.000
  21682371.040     6004260.29549   4721084.40847  21682371.077    21682377.450
       234.000         192.000
  22003570.159    -5700191.36749  -4433639.07146  22003569.766    22003575.595
       232.000         184.000
  22443992.729   -16077152.48649 -11849959.41946  22443992.108    22443998.894
       235.000         186.000
  21897601.550     5915568.78249   4612941.43847  21897601.046    21897606.601
       240.000         200.000
  23873023.050    -4567920.42649  -3545530.08545  23873022.410    23873030.225
       216.000         155.000
 02  1 21  4 36 30.0000000  0  9G18G17G15G 3G 6G26G21G23G22
  20443133.384   -13836008.56649 -10765078.94248  20443132.874    20443137.348
       243.000         215.000
  20872669.897    -7229487.24949  -5627028.10747  20872669.032    20872675.245
       244.000         210.000
  20775691.789   -11202004.00049  -8718200.75247  20775691.118    20775696.474
       246.000         210.000
  24200665.813    -4711157.81549  -3414009.33245  24200665.528    24200672.042
       214.000         143.000
  21697956.994     6086164.91849   4784906.17847  21697957.137    21697963.579
       234.000         192.000
  22012678.509    -5652326.49349  -4396341.76546  22012678.360    22012684.477
       232.000         184.000
  22433940.324   -16129978.08249 -11891122.16546  22433939.437    22433946.692
       234.000         186.000
  21909921.887     5980312.60549   4663391.17147  21909921.137    21909927.219
       239.000         200.000
  23880341.245    -4529462.59249  -3515562.93145  23880340.584    23880349.190
       217.000         155.000
 02  1 21  4 37  0.0000000  0  9G18G17G15G 3G 6G26G21G23G22
  20441811.220   -13842956.01749 -10770492.51748  20441810.609    20441815.176
       242.000         215.000
  20871215.462    -7237130.06249  -5632983.52947  20871214.619    20871221.055
       244.000         210.000
  20770650.157   -11228498.19449  -8738845.56047  20770649.479    20770655.022
       247.000         210.000
  24182124.777    -4808591.83549  -3489931.92145  24182123.964    24182131.524
       216.000         144.000
  21713614.006     6168442.98449   4849018.94647  21713613.918    21713619.933
       234.000         191.000
  22021898.963    -5603872.84649  -4358585.67246  22021899.496    22021904.696
       232.000         184.000
  22423939.630   -16182531.69849 -11932072.97846  22423939.170    22423945.848
       234.000         187.000
  21922270.243     6045203.67549   4713955.63947  21922269.289    21922275.163
       239.000         199.000
  23887729.360    -4490638.05249  -3485310.03445  23887728.580    23887736.390
       217.000         155.000
 02  1 21  4 37 30.0000000  0  9G18G17G15G 3G 6G26G21G23G22
  20440564.461   -13849507.68049 -10775597.68848  20440564.102    20440568.294
       243.000         215.000
  20869793.996    -7244599.85449  -5638804.12447  20869793.513    20869799.437
       244.000         211.000
  20765642.094   -11254815.97649  -8759352.90247  20765641.236    20765646.934
       246.000         210.000
  24163617.289    -4905848.82249  -3565716.41145  24163615.527    24163624.093
       212.000         148.000
  21729341.678     6251091.97349   4913420.74047  21729341.930    21729347.885
       234.000         192.000
  22031230.927    -5554832.92149  -4320372.73746  22031231.196    22031235.853
       232.000         184.000
  22413990.559   -16234814.25549 -11972812.57946  22413989.598    22413997.204
       234.000         187.000
  21934646.111     6110239.57449   4764632.96647  21934645.231    21934651.079
       239.000         199.000
  23895186.689    -4451449.79849  -3454773.72045  23895185.377    23895194.420
       219.000         155.000
 02  1 21  4 38  0.0000000  0  9G18G17G15G 3G 6G26G21G23G22
  20439392.969   -13855663.91949 -10780394.73648  20439392.453    20439397.115
       242.000         215.000
  20868405.773    -7251895.07849  -5644488.69247  20868405.144    20868410.962
       245.000         211.000
  20760667.749   -11280956.02549  -8779721.76047  20760666.839    20760672.614
       246.000         210.000
  24145144.114    -5002925.88249  -3641360.72045  24145143.515    24145150.238
       216.000         145.000
  21745139.664     6334110.75249   4978110.68947  21745139.583    21745145.841
       233.000         191.000
  22040674.318    -5505207.76949  -4281703.78746  22040674.539    22040679.614
       232.000         184.000
  22404093.146   -16286825.00549 -12013340.37647  22404092.340    22404099.721
       235.000         188.000
  21947049.280     6175418.97949   4815422.11347  21947048.514    21947054.315
       239.000         198.000
  23902712.973    -4411899.46949  -3423955.27745  23902712.656    23902719.899
       219.000         155.000
 02  1 21  4 38 30.0000000  0  9G18G17G15G 3G 6G26G21G23G22
  20438296.419   -13861426.27749 -10784884.86648  20438296.052    20438300.292
       243.000         215.000
  20867050.829    -7259015.56349  -5650037.10047  20867050.352    20867056.202
       245.000         211.000
  20755727.236   -11306918.14349  -8799951.96447  20755726.320    20755732.221
       246.000         210.000
  24126705.388    -5099821.18849  -3716863.54245  24126703.371    24126712.954
       209.000         141.000
  21761007.469     6417496.73349   5043086.76847  21761007.178    21761013.589
       234.000         190.000
  22050228.630    -5454999.64249  -4242580.57446  22050228.804    22050234.208
       232.000         184.000
  22394247.332   -16338565.02749 -12053657.22447  22394246.706    22394253.717
       235.000         188.000
  21959479.314     6240739.38749   4866321.12947  21959478.689    21959484.451
       239.000         198.000
  23910307.518    -4371990.01049  -3392856.99145  23910306.729    23910314.721
       218.000         155.000
 02  1 21  4 39  0.0000000  0  9G18G17G15G 3G 6G26G21G23G22
  20437274.856   -13866794.68749 -10789068.01948  20437274.179    20437278.777
       242.000         215.000
  20865729.461    -7265959.52549  -5655447.95947  20865728.926    20865734.824
       245.000         211.000
  20750820.936   -11332700.59949  -8820042.16547  20750820.126    20750825.830
       247.000         210.000
  24108301.731    -5196531.19949  -3792221.79745  24108301.060    24108309.111
       211.000         147.000
  21776944.989     6501248.93849   5108348.20747  21776944.655    21776951.077
       233.000         190.000
  22059893.743    -5404209.38749  -4203003.75846  22059894.323    22059899.656
       232.000         184.000
  22384453.137   -16390033.44949 -12093762.43347  22384452.546    22384459.572
       235.000         188.000
  21971935.990     6306199.77749   4917329.22147  21971935.456    21971941.598
       239.000         198.000
  23917970.149    -4331722.78849  -3361479.91545  23917969.454    23917976.727
       218.000         153.000
 02  1 21  4 39 30.0000000  0  9G18G17G15G 3G 6G26G21G23G22
  20436327.745   -13871771.28149 -10792945.86448  20436327.285    20436331.631
       243.000         215.000
  20864441.626    -7272727.11849  -5660721.39347  20864441.048    20864447.111
       245.000         211.000
  20745948.898   -11358303.60449  -8839992.53547  20745948.349    20745953.960
       247.000         210.000
  24089933.966    -5293054.47649  -3867434.67445  24089932.447    24089939.710
       206.000         145.000
  21792951.629     6585364.31649   5173892.64947  21792951.444    21792957.491
       233.000         189.000
  22069669.042    -5352839.79349  -4162975.49346  22069668.756    22069674.366
       231.000         184.000
  22374710.517   -16441231.25849 -12133656.77647  22374710.250    22374716.695
       236.000         188.000
  21984418.789     6371797.39649   4968444.25047  21984418.214    21984424.064
       238.000         198.000
  23925700.184    -4291101.24549  -3329826.74645  23925700.202    23925707.066
       216.000         153.000
 02  1 21  4 40  0.0000000  0  9G18G17G15G 3G 6G26G21G23G22
  20435455.284   -13876356.44749 -10796518.70448  20435454.919    20435459.047
       243.000         215.000
  20863187.571    -7279316.97649  -5665856.33447  20863186.926    20863192.834
       244.000         211.000
  20741111.201   -11383726.09649  -8859802.24947  20741110.298    20741116.265
       247.000         211.000
  24071601.870    -5389388.02649  -3942499.65445  24071601.967    24071609.000
       208.000         143.000
  21809027.061     6669841.40949   5239718.94847  21809026.675    21809033.064
       232.000         189.000
  22079554.341    -5300892.17449  -4122496.82846  22079554.502    22079559.612
       231.000         183.000
  22365019.439   -16492158.46849 -12173340.27547  22365018.950    22365025.085
       237.000         188.000
  21996927.465     6437530.98849   5019665.22347  21996927.054    21996932.736
       239.000         198.000
  23933497.421    -4250127.05749  -3297898.80645  23933496.125    23933504.522
       215.000         152.000
 02  1 21  4 40 30.0000000  0  9G18G17G15G 3G 6G26G21G23G22
  20434657.068   -13880551.01649 -10799787.17248  20434656.362    20434660.938
       243.000         215.000
  20861967.636    -7285727.89649  -5670851.83547  20861967.011    20861972.927
       246.000         211.000
  20736308.046   -11408966.86749  -8879470.35647  20736307.323    20736313.061
       248.000         211.000
  24053307.007    -5485528.83149  -4017414.42845  24053306.712    24053314.631
       211.000         151.000
  21825170.985     6754678.54749   5305825.78847  21825170.349    21825177.111
       232.000         188.000
  22089549.293    -5248368.10849  -4081568.98546  22089549.793    22089554.812
       232.000         183.000
  22355379.940   -16542814.67849 -12212812.59547  22355379.093    22355385.824
       236.000         188.000
  22009461.788     6503399.05149   5070990.98247  22009461.497    22009466.849
       239.000         198.000
  23941361.097    -4208802.52949  -3265697.86445  23941360.371    23941367.397
       215.000         152.000
 02  1 21  4 41  0.0000000  0  9G18G17G15G 3G 6G26G21G23G22
  20433932.779   -13884356.90849 -10802752.77548  20433932.183    20433936.817
       243.000         215.000
  20860781.735    -7291959.78349  -5675707.83447  20860780.912    20860786.822
       245.000         211.000
  20731539.456   -11434026.00649  -8898996.93447  20731538.465    20731544.412
       248.000         211.000
  24035048.752    -5581475.83049  -4092178.17945  24035048.452    24035056.568
       210.000         146.000
  21841382.860     6839872.87449   5372210.95247  21841382.765    21841388.875
       233.000         188.000
  22099653.486    -5195270.27549  -4040194.05646  22099653.578    22099659.093
       231.000         183.000
  22345791.722   -16593201.05449 -12252074.65947  22345790.861    22345797.426
       237.000         188.000
  22022021.179     6569398.80849   5122419.35447  22022021.032    22022026.459
       240.000         198.000
  23949291.060    -4167130.90749  -3233226.45945  23949290.121    23949297.714
       215.000         152.000
 02  1 21  4 41 30.0000000  0  9G18G17G15G 3G 6G26G21G23G22
  20433282.333   -13887774.60649 -10805415.89148  20433281.723    20433286.342
       243.000         215.000
  20859630.100    -7298011.30349  -5680423.28747  20859629.229    20859635.492
       245.000         211.000
  20726805.614   -11458902.31349  -8918381.04447  20726804.892    20726810.606
       247.000         211.000
  24016827.999    -5677225.61849  -4166788.36345  24016827.396    24016835.976
       211.000         149.000
  21857662.506     6925422.86149   5438873.26947  21857662.245    21857668.761
       231.000         188.000
  22109866.492    -5141600.08949  -3998373.14046  22109866.728    22109872.310
       231.000         182.000
  22336254.915   -16643316.85849 -12291125.88647  22336254.403    22336260.720
       236.000         188.000
  22034605.481     6635528.99749   5173949.37447  22034604.880    22034610.474
       239.000         197.000
  23957286.562    -4125113.94949  -3200485.94545  23957284.717    23957293.778
       214.000         153.000
 02  1 21  4 42  0.0000000  0  9G18G17G15G 3G 6G26G21G23G22
  20432705.574   -13890805.49949 -10807777.60848  20432705.103    20432709.419
       243.000         215.000
  20858512.963    -7303881.73149  -5684997.63647  20858512.352    20858518.471
       245.000         211.000
  20722106.823   -11483594.89249  -8937621.99047  20722105.975    20722111.689
       248.000         211.000
  23998645.495    -5772775.66949  -4241242.76145  23998645.493    23998652.004
       212.000         152.000
  21874009.387     7011326.41949   5505811.07746  21874009.358    21874015.661
       231.000         187.000
  22120188.090    -5087359.53449  -3956107.77246  22120188.072    22120193.537
       230.000         182.000
  22326769.591   -16693162.41449 -12329966.54047  22326768.610    22326775.270
       235.000         189.000
  22047214.132     6701787.61149   5225579.46247  22047213.402    22047219.005
       239.000         197.000
  23965347.216    -4082754.19349  -3167478.33845  23965347.095    23965354.244
       216.000         154.000
 02  1 21  4 42 30.0000000  0  9G18G17G15G 3G 6G26G21G23G22
  20432202.332   -13893450.23049 -10809838.42548  20432201.901    20432206.383
       242.000         215.000
  20857430.569    -7309569.68649  -5689429.80047  20857429.952    20857436.043
       245.000         211.000
  20717443.187   -11508102.49249  -8956718.79747  20717442.193    20717447.968
       247.000         211.000
  23980501.286    -5868123.21549  -4315539.45045  23980501.244    23980508.919
       216.000         152.000
  21890423.379     7097582.04749   5573023.22646  21890423.355    21890429.544
       231.000         187.000
  22130617.967    -5032550.04649  -3913399.09446  22130618.751    22130624.074
       230.000         182.000
  22317335.616   -16742737.96049 -12368596.78947  22317335.070    22317341.508
       236.000         189.000
  22059846.911     6768173.34049   5277308.59947  22059846.326    22059852.179
       238.000         197.000
  23973472.815    -4040053.66949  -3134205.19445  23973472.400    23973479.467
       216.000         154.000
 02  1 21  4 43  0.0000000  0  9G18G17G15G 3G 6G26G21G23G22
  20431772.144   -13895710.91549 -10811599.97048  20431771.609    20431776.103
       243.000         216.000
  20856382.879    -7315075.51549  -5693720.04047  20856382.267    20856388.406
       245.000         211.000
  20712814.577   -11532425.52249  -8975671.78147  20712813.817    20712819.600
       247.000         211.000
  23962396.260    -5963266.80349  -4389677.22945  23962395.429    23962403.592
       213.000         154.000
  21906903.724     7184186.46149   5640507.15646  21906903.756    21906909.807
       232.000         187.000
  22141155.588    -4977174.95549  -3870249.67546  22141155.377    22141161.555
       230.000         182.000
  22307952.780   -16792045.00349 -12407017.81347  22307951.806    22307958.244
       236.000         189.000
  22072503.189     6834683.16349   5329134.43247  22072502.484    22072508.293
       238.000         197.000
  23981662.667    -3997015.90149  -3100669.27445  23981662.041    23981669.598
       217.000         155.000
 02  1 21  4 43 30.0000000  0  9G18G17G15G 3G 6G26G21G23G22
  20431414.924   -13897587.97949 -10813062.59848  20431414.286    20431418.847
       242.000         216.000
  20855370.156    -7320397.36349  -5697866.92547  20855369.448    20855375.438
       245.000         211.000
  20708221.454   -11556562.61349  -8994479.88047  20708220.517    20708226.272
       247.000         211.000
  23944330.374    -6058203.39549  -4463653.61345  23944329.576    23944338.419
       216.000         155.000
  21923450.248     7271138.47649   5708261.94247  21923450.111    21923456.908
       233.000         188.000
  22151800.549    -4921235.29849  -3826660.34446  22151801.127    22151806.424
       231.000         181.000
  22298621.145   -16841082.72549 -12445228.98347  22298620.436    22298626.978
       236.000         189.000
  22085182.937     6901316.22749   5381056.29347  22085182.147    22085188.160
       237.000         196.000
  23989916.348    -3953642.73549  -3066872.00245  23989915.927    23989923.015
       216.000         155.000
 02  1 21  4 44  0.0000000  0  9G18G17G15G 3G 6G26G21G23G22
  20431130.380   -13899083.04249 -10814227.56548  20431129.813    20431134.372
       242.000         215.000
  20854392.455    -7325534.91949  -5701870.21247  20854391.885    20854397.978
       245.000         211.000
  20703663.790   -11580513.25949  -9013142.69547  20703662.922    20703668.399
       247.000         211.000
  23926304.396    -6152930.61349  -4537466.97045  23926303.894    23926310.986
       217.000         156.000
  21940062.416     7358435.62749   5776285.66247  21940061.671    21940068.602
       231.000         188.000
  22162552.534    -4864733.37149  -3782632.86646  22162552.494    22162558.287
       230.000         182.000
  22289340.643   -16889851.77749 -12483230.79547  22289339.671    22289346.965
       236.000         190.000
  22097885.761     6968070.29249   5433072.44747  22097885.043    22097891.391
       237.000         196.000
  23998233.174    -3909936.87449  -3032815.47445  23998232.020    23998240.142
       214.000         155.000
 02  1 21  4 44 30.0000000  0  9G18G17G15G 3G 6G26G21G23G22
  20430918.509   -13900196.34249 -10815095.04948  20430918.070    20430922.301
       243.000         215.000
  20853450.240    -7330486.47049  -5705728.54847  20853449.367    20853455.689
       244.000         210.000
  20699141.845   -11604276.08049  -9031659.15247  20699141.003    20699146.275
       248.000         210.000
  23908318.710    -6247445.26649  -4611114.63745  23908318.146    23908325.713
       215.000         155.000
  21956739.920     7446076.62349   5844577.32146  21956739.246    21956745.979
       231.000         187.000
  22173411.147    -4807670.62549  -3738168.39346  22173411.517    22173416.923
       231.000         182.000
  22280111.360   -16938351.77449 -12521022.95147  22280110.890    22280117.200
       236.000         191.000
  22110611.364     7034944.30449   5485182.05847  22110610.873    22110616.837
       238.000         196.000
  24006612.931    -3865900.10249  -2998501.10145  24006611.788    24006620.455
       215.000         155.000
 02  1 21  4 45  0.0000000  0  9G18G17G15G 3G 6G26G21G23G22
  20430778.953   -13900929.58049 -10815666.38148  20430778.396    20430782.776
       243.000         215.000
  20852543.359    -7335251.75749  -5709441.74947  20852542.645    20852549.051
       246.000         211.000
  20694655.747   -11627850.54349  -9050028.83647  20694654.968    20694660.140
       248.000         210.000
  23890373.830    -6341745.58849  -4684595.29545  23890372.779    23890381.559
       219.000         157.000
  21973482.478     7534058.93949   5913134.94546  21973482.684    21973488.781
       232.000         187.000
  22184376.180    -4750049.48849  -3693268.81246  22184376.096    22184382.349
       232.000         182.000
  22270933.115   -16986583.29449 -12558605.91247  22270932.384    22270939.284
       237.000         191.000
  22123359.569     7101936.07049   5537383.42747  22123359.007    22123365.340
       238.000         196.000
  24015055.272    -3821535.35949  -2963931.16645  24015054.873    24015061.809
       216.000         155.000
 02  1 21  4 45 30.0000000  0  9G18G17G15G 3G 6G26G21G23G22
  20430711.504   -13901283.92149 -10815942.46648  20430710.823    20430715.341
       242.000         215.000
  20851672.250    -7339829.72349  -5713008.97947  20851671.598    20851677.687
       245.000         211.000
  20690205.611   -11651236.00549  -9068251.24647  20690204.639    20690210.166
       247.000         210.000
  23872470.250    -6435829.21949  -4757907.12645  23872469.413    23872477.229
       214.000         156.000
  21990289.482     7622380.23649   5981956.70946  21990289.439    21990295.335
       231.000         186.000
  22195447.026    -4691872.22449  -3647935.89246  22195447.372    22195452.561
       231.000         181.000
  22261805.884   -17034546.95949 -12595980.15047  22261805.413    22261811.936
       237.000         191.000
  22136129.732     7169043.52849   5589674.94247  22136129.087    22136135.443
       238.000         196.000
  24023559.589    -3776845.31849  -2929107.76045  24023559.326    24023567.074
       216.000         155.000
 02  1 21  4 46  0.0000000  0  9G18G17G15G 3G 6G26G21G23G22
  20430715.893   -13901260.50649 -10815924.19948  20430715.470    20430719.785
       242.000         215.000
  20850836.930    -7344219.46749  -5716429.54647  20850836.406    20850842.430
       245.000         211.000
  20685791.569   -11674431.59749  -9086325.70647  20685790.645    20685796.308
       247.000         211.000
  23854608.256    -6529693.37849  -4831047.90145  23854608.019    23854615.711
       221.000         156.000
  22007160.553     7711038.50049   6051041.04046  22007160.530    22007166.414
       232.000         186.000
  22206623.239    -4633140.89449  -3602171.22646  22206623.395    22206628.856
       231.000         181.000
  22252729.608   -17082242.87049 -12633145.75947  22252729.256    22252735.595
       237.000         191.000
  22148921.553     7236265.02649   5642055.31847  22148921.351    22148926.963
       237.000         196.000
  24032125.217    -3731832.42449  -2894032.77445  24032124.247    24032131.882
       215.000         155.000
 02  1 21  4 46 30.0000000  0  9G18G17G15G 3G 6G26G21G23G22
  20430791.991   -13900860.48649 -10815612.47048  20430791.527    20430795.959
       243.000         215.000
  20850037.506    -7348420.10649  -5719702.76547  20850037.010    20850042.854
       245.000         211.000
  20681413.811   -11697436.39549  -9104251.49747  20681412.986    20681418.794
       248.000         211.000
  23836788.915    -6623335.31249  -4904015.58045  23836788.085    23836795.773
       216.000         156.000
  22024095.473     7800031.69649   6120386.35846  22024095.386    22024101.612
       232.000         186.000
  22217904.512    -4573857.43849  -3555976.32946  22217904.645    22217910.532
       230.000         181.000
  22243704.352   -17129671.12849 -12670102.80447  22243703.495    22243710.177
       237.000         191.000
  22161734.818     7303598.96249   5694523.31347  22161734.421    22161740.323
       238.000         196.000
  24040751.722    -3686498.98249  -2858708.02045  24040751.224    24040760.144
       215.000         155.000
 02  1 21  4 47  0.0000000  0  9G18G17G15G 3G 6G26G21G23G22
  20430939.649   -13900084.74149 -10815007.97348  20430939.115    20430943.399
       242.000         215.000
  20849274.385    -7352430.40349  -5722827.66047  20849273.828    20849279.738
       245.000         210.000
  20677072.670   -11720249.35749  -9122027.80647  20677071.721    20677077.611
       246.000         211.000
  23819012.070    -6716752.67249  -4976808.20945  23819012.311    23819019.490
       221.000         154.000
  22041093.705     7889357.83849   6189991.10846  22041093.738    22041099.620
       231.000         186.000
  22229290.393    -4514023.78049  -3509352.71346  22229289.923    22229295.838
       230.000         180.000
  22234729.854   -17176831.94949 -12706851.45747  22234729.117    22234736.092
       236.000         191.000
  22174569.095     7371043.77949   5747077.71147  22174568.446    22174574.519
       237.000         195.000
  24049439.050    -3640847.37149  -2823135.33745  24049437.561    24049445.704
       216.000         155.000
 02  1 21  4 47 30.0000000  0  9G18G17G15G 3G 6G26G21G23G22
  20431158.460   -13898934.65349 -10814111.78048  20431157.874    20431162.412
       242.000         215.000
  20848547.619    -7356249.45149  -5725803.53047  20848546.921    20848552.711
       245.000         210.000
  20672768.139   -11742869.49649  -9139653.87147  20672767.451    20672773.101
       246.000         211.000
  23801278.513    -6809942.83249  -5049423.83945  23801277.518    23801285.454
       217.000         156.000
  22058154.869     7979014.84049   6259853.67246  22058154.897    22058161.356
       231.000         186.000
  22240780.604    -4453641.96249  -3462301.95046  22240780.938    22240786.719
       231.000         180.000
  22225806.188   -17223725.74549 -12743392.03747  22225805.315    22225812.229
       237.000         191.000
  22187424.189     7438597.74649   5799717.15447  22187423.726    22187429.526
       238.000         195.000
  24058186.342    -3594880.04649  -2787316.65445  24058185.505    24058192.621
       214.000         154.000
 02  1 21  4 48  0.0000000  0  9G18G17G15G 3G 6G26G21G23G22
  20431448.177   -13897411.94449 -10812925.23448  20431447.743    20431452.148
       243.000         215.000
  20847857.388    -7359876.81249  -5728630.03247  20847856.799    20847862.596
       245.000         210.000
  20668500.369   -11765296.40349  -9157129.36147  20668499.575    20668505.427
       246.000         212.000
  23783588.604    -6902903.70249  -5121860.74845  23783587.965    23783594.741
       220.000         156.000
  22075278.537     8068999.97749   6329971.93046  22075277.963    22075284.807
       231.000         186.000
  22252374.698    -4392714.75049  -3414826.22246  22252374.632    22252380.676
       229.000         180.000
  22216933.226   -17270353.66249 -12779725.43547  22216932.538    22216939.220
       237.000         191.000
  22200299.642     7506258.71249   5852439.97947  22200299.123    22200305.292
       238.000         194.000
  24066993.117    -3548600.08249  -2751254.33945  24066992.388    24067000.888
       214.000         152.000
 02  1 21  4 48 30.0000000  0  9G18G17G15G 3G 6G26G21G23G22
  20431808.741   -13895517.18749 -10811448.77948  20431808.124    20431812.658
       243.000         215.000
  20847203.860    -7363311.12949  -5731306.10547  20847203.281    20847208.950
       245.000         210.000
  20664269.637   -11787528.87249  -9174453.34147  20664268.904    20664274.669
       246.000         212.000
  23765943.178    -6995632.39449  -5194116.79045  23765941.911    23765949.605
       219.000         155.000
  22092464.271     8159311.56849   6400344.56546  22092464.135    22092470.241
       230.000         185.000
  22264072.224    -4331243.94449  -3366926.89846  22264071.934    22264077.576
       230.000         179.000
  22208110.850   -17316715.21049 -12815851.26847  22208110.485    22208116.848
       237.000         191.000
  22213195.153     7574025.32749   5905245.12247  22213194.665    22213200.548
       236.000         194.000
  24075858.934    -3502009.83049  -2714950.26045  24075857.760    24075865.552
       213.000         151.000
 02  1 21  4 49  0.0000000  0  9G18G17G15G 3G 6G26G21G23G22
  20432239.790   -13893251.84349 -10809683.55948  20432239.495    20432243.545
       243.000         215.000
  20846587.191    -7366551.66149  -5733831.17747  20846586.548    20846592.204
       245.000         210.000
  20660076.156   -11809566.17449  -9191625.24447  20660075.407    20660081.204
       246.000         212.000
  23748341.950    -7088126.63449  -5266190.10745  23748340.916    23748348.300
       218.000         156.000
  22109711.698     8249947.44049   6470969.87946  22109711.765    22109718.275
       231.000         185.000
  22275872.638    -4269231.85549  -3318605.80746  22275872.724    22275878.346
       230.000         179.000
  22199339.229   -17362810.56349 -12851769.68347  22199338.468    22199345.240
       237.000         191.000
  22226110.446     7641895.65549   5958131.08847  22226109.874    22226116.014
       236.000         193.000
  24084783.411    -3455111.75049  -2678406.31845  24084783.421    24084790.086
       214.000         151.000
 02  1 21  4 49 30.0000000  0  9G18G17G15G 3G 6G26G21G23G22
  20432741.267   -13890616.89849 -10807630.34048  20432740.808    20432745.001
       243.000         215.000
  20846007.633    -7369597.27749  -5736204.37347  20846007.050    20846012.816
       245.000         210.000
  20655919.895   -11831407.49349  -9208644.43847  20655919.205    20655924.895
       246.000         212.000
  23730785.918    -7180383.64849  -5338078.60745  23730785.369    23730792.272
       218.000         157.000
  22127020.487     8340905.50549   6541846.25346  22127019.863    22127026.399
       230.000         185.000
  22287775.869    -4206680.47149  -3269864.49046  22287775.924    22287781.359
       229.000         179.000
  22190618.100   -17408639.97049 -12887480.86847  22190617.475    22190623.797
       237.000         191.000
  22239045.132     7709868.12249   6011096.63647  22239044.330    22239050.286
       237.000         193.000
  24093765.957    -3407908.30149  -2641624.42945  24093766.403    24093772.520
       213.000         150.000
 02  1 21  4 50  0.0000000  0  9G18G17G15G 3G 6G26G21G23G22
  20433312.762   -13887613.57149 -10805290.06248  20433312.272    20433316.489
       243.000         215.000
  20845465.374    -7372446.93849  -5738424.87547  20845464.695    20845470.545
       245.000         210.000
  20651801.076   -11853051.95949  -9225510.23948  20651800.566    20651806.173
       246.000         213.000
  23713275.462    -7272401.00249  -5409780.35145  23713274.971    23713282.267
       220.000         155.000
  22144390.108     8432183.60149   6612971.99946  22144389.658    22144396.067
       230.000         184.000
  22299781.152    -4143592.13649  -3220704.77446  22299780.813    22299787.211
       230.000         178.000
  22181947.519   -17454204.17349 -12922985.40847  22181946.998    22181953.607
       237.000         192.000
  22251999.029     7777941.16149   6064140.54847  22251998.512    22252004.208
       237.000         193.000
  24102806.276    -3360402.03649  -2604606.55845  24102804.875    24102813.106
       211.000         150.000
 02  1 21  4 50 30.0000000  0  9G18G17G15G 3G 6G26G21G23G22
  20433954.053   -13884243.51249 -10802664.01848  20433953.528    20433957.642
       243.000         215.000
  20844960.473    -7375100.13349  -5740492.28547  20844959.785    20844965.647
       245.000         210.000
  20647719.830   -11874499.17549  -9242222.33247  20647718.952    20647724.782
       246.000         212.000
  23695811.245    -7364176.42049  -5481293.55845  23695810.022    23695817.732
       215.000         157.000
  22161820.152     8523778.94949   6684344.95346  22161820.161    22161826.546
       229.000         183.000
  22311888.200    -4079969.43849  -3171128.65446  22311887.752    22311893.511
       230.000         178.000
  22173327.316   -17499503.51149 -12958283.54647  22173326.495    22173332.979
       236.000         192.000
  22264971.660     7846112.74949   6117261.26047  22264970.921    22264976.800
       237.000         193.000
  24111903.227    -3312596.01249  -2567355.13045  24111901.238    24111911.213
       209.000         149.000
 02  1 21  4 51  0.0000000  0  9G18G17G15G 3G 6G26G21G23G22
  20434665.000   -13880507.46649 -10799752.79248  20434664.486    20434668.755
       242.000         215.000
  20844493.304    -7377555.23249  -5742405.34147  20844492.678    20844498.510
       246.000         210.000
  20643676.440   -11895747.33049  -9258779.31447  20643675.351    20643681.329
       246.000         212.000
  23678393.518    -7455706.81149  -5552615.86045  23678392.860    23678400.187
       219.000         156.000
  22179310.291     8615690.15949   6755964.04146  22179309.753    22179316.701
       230.000         182.000
  22324096.591    -4015814.06249  -3121137.46746  22324096.590    22324102.340
       228.000         178.000
  22164757.420   -17544538.04349 -12993375.35847  22164757.018    22164763.498
       237.000         192.000
  22277962.882     7914381.76449   6170457.88247  22277961.978    22277968.290
       237.000         193.000
  24121056.867    -3264492.08849  -2529871.56945  24121055.791    24121064.747
       213.000         149.000
 02  1 21  4 51 30.0000000  0  9G18G17G15G 3G 6G26G21G23G22
  20435445.283   -13876406.97749 -10796557.58748  20435444.846    20435449.199
       243.000         215.000
  20844063.864    -7379811.76949  -5744163.67447  20844063.375    20844069.019
       245.000         210.000
  20639670.893   -11916795.99949  -9275180.85847  20639670.124    20639675.986
       246.000         212.000
  23661022.645    -7546990.20349  -5623745.66245  23661021.026    23661030.235
       213.000         156.000
  22196860.054     8707914.60249   6827827.20746  22196859.574    22196865.932
       229.000         182.000
  22336405.749    -3951128.58149  -3070733.21446  22336406.338    22336411.935
       230.000         177.000
  22156237.906   -17589308.51449 -13028261.40647  22156237.786    22156243.724
       238.000         192.000
  22290972.209     7982746.11749   6223728.79447  22290971.651    22290977.402
       237.000         193.000
  24130266.998    -3216093.39549  -2492158.31845  24130266.284    24130274.311
       215.000         150.000
 02  1 21  4 52  0.0000000  0  9G18G17G15G 3G 6G26G21G23G22
  20436294.603   -13871943.59049 -10793079.60448  20436294.248    20436298.461
       243.000         215.000
  20843672.359    -7381869.07549  -5745766.75647  20843671.696    20843677.425
       245.000         211.000
  20635703.500   -11937644.71749  -9291426.59447  20635702.880    20635708.386
       246.000         212.000
  23643699.360    -7638024.15949  -5694681.12445  23643699.138    23643705.488
       217.000         156.000
  22214468.905     8800449.82249   6899932.51946  22214468.483    22214475.588
       228.000         181.000
  22348815.468    -3885915.76549  -3019918.04346  22348815.257    22348821.855
       229.000         177.000
  22147768.579   -17633815.46249 -13062942.11647  22147768.199    22147774.219
       238.000         193.000
  22303999.288     8051203.82149   6277072.45347  22303998.623    22304004.977
       237.000         192.000
  24139532.580    -3167402.83949  -2454217.63145  24139531.520    24139540.010
       213.000         151.000
 02  1 21  4 52 30.0000000  0  9G18G17G15G 3G 6G26G21G23G22
  20437212.829   -13867118.28049 -10789319.60648  20437212.212    20437216.653
       243.000         215.000
  20843319.076    -7383725.65849  -5747213.43547  20843318.691    20843324.104
       245.000         211.000
  20631774.496   -11958291.97949  -9307515.35147  20631773.710    20631778.945
       246.000         211.000
  23626424.099    -7728805.77849  -5765419.95545  23626422.878    23626430.726
       212.000         154.000
  22232136.545     8893294.13949   6972278.69046  22232136.152    22232143.788
       228.000         181.000
  22361324.987    -3820177.40449  -2968693.36946  22361325.357    22361330.538
       229.000         177.000
  22139349.249   -17678059.06349 -13097417.61847  22139348.348    22139354.924
       238.000         193.000
  22317043.984     8119753.83549   6330488.03547  22317043.522    22317048.835
       237.000         192.000
  24148853.217    -3118422.42649  -2416051.08845  24148851.858    24148860.640
       214.000         150.000
 02  1 21  4 53  0.0000000  0  9G18G17G15G 3G 6G26G21G23G22
  20438199.581   -13861932.48549 -10785278.71048  20438198.949    20438203.434
       242.000         215.000
  20843004.151    -7385380.81349  -5748503.15947  20843003.699    20843009.238
       246.000         211.000
  20627883.879   -11978737.28449  -9323446.73847  20627883.094    20627888.265
       246.000         211.000
  23609197.325    -7819332.76149  -5835960.38045  23609196.653    23609203.013
       215.000         156.000
  22249862.549     8986444.86349   7044863.62246  22249862.401    22249869.284
       229.000         181.000
  22373934.157    -3753916.21749  -2917061.29546  22373933.998    22373939.881
       228.000         177.000
  22130979.931   -17722039.87749 -13131688.34847  22130979.492    22130985.601
       238.000         193.000
  22330105.810     8188394.09149   6383973.94247  22330105.150    22330110.736
       237.000         192.000
  24158228.552    -3069155.07449  -2377660.94945  24158227.177    24158236.120
       214.000         150.000
 02  1 21  4 53 30.0000000  0  9G18G17G15G 3G 6G26G21G23G22
  20439254.695   -13856387.44249 -10780957.88048  20439254.159    20439258.606
       242.000         215.000
  20842727.764    -7386833.69949  -5749635.26947  20842727.230    20842732.769
       245.000         211.000
  20624031.850   -11998979.81449  -9339220.11647  20624030.940    20624036.265
       246.000         211.000
  23592019.468    -7909602.74649  -5906300.52345  23592019.235    23592026.635
       217.000         156.000
  22267646.381     9079899.66849   7117685.49446  22267646.149    22267652.729
       229.000         180.000
  22386642.274    -3687134.57049  -2865023.66846  22386642.140    22386648.048
       228.000         177.000
  22122660.640   -17765758.15749 -13165754.50547  22122660.071    22122666.602
       238.000         194.000
  22343184.452     8257122.81849   6437528.77647  22343183.986    22343189.501
       237.000         191.000
  24167657.876    -3019603.52649  -2339049.36245  24167656.909    24167665.942
       215.000         150.000
 02  1 21  4 54  0.0000000  0  9G18G17G15G 3G 6G26G21G23G22
  20440378.073   -13850484.25249 -10776357.98148  20440377.601    20440381.787
       243.000         215.000
  20842490.078    -7388082.74149  -5750608.54247  20842489.435    20842495.027
       246.000         211.000
  20620218.622   -12019018.14949  -9354834.39047  20620217.700    20620223.380
       246.000         211.000
  23574891.120    -7999612.83749  -5976438.16745  23574890.383    23574897.652
       217.000         160.000
  22285487.787     9173656.60449   7190742.81246  22285487.488    22285494.414
       229.000         180.000
  22399449.067    -3619834.38749  -2812581.97646  22399449.904    22399454.733
       229.000         178.000
  22114391.274   -17809214.17249 -13199616.30147  22114390.716    22114397.259
       238.000         194.000
  22356279.775     8325938.68249   6491151.51747  22356279.160    22356284.770
       236.000         191.000
  24177140.880    -2969770.21049  -2300218.19745  24177138.925    24177147.907
       214.000         149.000
 02  1 21  4 54 30.0000000  0  9G18G17G15G 3G 6G26G21G23G22
  20441569.290   -13844224.28049 -10771480.06748  20441568.617    20441573.069
       242.000         215.000
  20842291.266    -7389127.43549  -5751422.58247  20842290.582    20842296.212
       246.000         211.000
  20616444.344   -12038851.68349  -9370289.07647  20616443.433    20616449.106
       245.000         212.000
  23557812.345    -8089360.78449  -6046371.55645  23557812.346    23557819.464
       219.000         160.000
  22303386.179     9267713.43749   7264033.78546  22303386.027    22303392.971
       228.000         180.000
  22412354.164    -3552018.22649  -2759738.23746  22412354.530    22412360.087
       229.000         178.000
  22106171.604   -17852408.61449 -13233274.26947  22106170.946    22106177.480
       238.000         194.000
  22369391.275     8394839.95749   6544840.81147  22369390.823    22369396.422
       236.000         191.000
  24186676.899    -2919657.66049  -2261169.47645  24186677.062    24186683.914
       214.000         149.000
 02  1 21  4 55  0.0000000  0  9G18G17G15G 3G 6G26G21G23G22
  20442828.109   -13837608.88949 -10766325.20048  20442827.625    20442831.929
       243.000         215.000
  20842131.581    -7389966.63549  -5752076.49547  20842130.703    20842136.531
       245.000         211.000
  20612709.264   -12058479.41749  -9385583.39347  20612708.709    20612714.195
       246.000         212.000
  23540784.298    -8178844.00749  -6116098.63946  23540784.284    23540790.820
       219.000         163.000
  22321341.247     9362067.81849   7337556.62546  22321341.257    22321347.391
       227.000         180.000
  22425357.003    -3483688.56249  -2706494.35946  22425357.068    22425362.268
       227.000         177.000
  22098001.714   -17895341.58849 -13266728.49347  22098000.852    22098007.498
       238.000         194.000
  22382518.775     8463825.00149   6598595.37447  22382518.165    22382524.086
       236.000         191.000
  24196265.719    -2869268.71049  -2221905.36145  24196264.065    24196273.027
       215.000         149.000
 02  1 21  4 55 30.0000000  0  9G18G17G15G 3G 6G26G21G23G22
  20444154.343   -13830639.54949 -10760894.52748  20444153.877    20444158.161
       243.000         215.000
  20842011.075    -7390599.66649  -5752569.76147  20842010.486    20842016.080
       245.000         211.000
  20609013.570   -12077900.64849  -9400716.79747  20609012.627    20609018.422
       246.000         212.000
  23523806.819    -8268060.27249  -6185617.74946  23523807.187    23523813.641
       221.000         164.000
  22339352.528     9456717.13749   7411309.28046  22339352.728    22339358.878
       229.000         179.000
  22438456.768    -3414848.27449  -2652852.58246  22438456.560    22438462.503
       228.000         177.000
  22089881.388   -17938013.88749 -13299979.59547  22089880.794    22089887.240
       237.000         194.000
  22395661.849     8532892.03249   6652413.82947  22395661.426    22395667.058
       237.000         191.000
  24205906.496    -2818606.31549  -2182428.18045  24205905.750    24205913.749
       215.000         150.000
 02  1 21  4 56  0.0000000  0  9G18G17G15G 3G 6G26G21G23G22
  20445547.728   -13823317.20649 -10755188.78748  20445547.192    20445551.761
       242.000         215.000
  20841930.137    -7391025.04049  -5752901.21347  20841929.452    20841934.932
       245.000         211.000
  20605357.390   -12097114.12049  -9415688.31447  20605356.479    20605362.038
       246.000         212.000
  23506880.936    -8357006.19849  -6254926.15946  23506880.725    23506887.710
       222.000         166.000
  22357419.664     9551659.73749   7485290.47046  22357419.780    22357425.798
       229.000         179.000
  22451653.448    -3345499.04449  -2598814.24946  22451653.664    22451659.319
       228.000         176.000
  22081810.578   -17980425.84849 -13333027.84047  22081810.021    22081816.299
       237.000         194.000
  22408820.285     8602040.05149   6706295.39347  22408820.127    22408825.157
       237.000         191.000
  24215598.943    -2767672.37649  -2142739.42045  24215598.700    24215605.568
       215.000         150.000
 02  1 21  4 56 30.0000000  0  9G18G17G15G 3G 6G26G21G23G22
  20447007.880   -13815643.54649 -10749209.29748  20447007.271    20447011.844
       242.000         215.000
  20841888.842    -7391242.11649  -5753070.35847  20841888.261    20841893.796
       246.000         211.000
  20601740.828   -12116119.42349  -9430497.62347  20601740.082    20601745.655
       246.000         212.000
  23490007.039    -8445679.96749  -6324022.55546  23490006.247    23490013.534
       221.000         166.000
  22375542.008     9646892.76449   7559497.94946  22375541.695    22375548.512
       228.000         179.000
  22464946.466    -3275643.86349  -2544381.66146  22464946.131    22464951.532
       227.000         176.000
  22073789.135   -18022578.40549 -13365873.95247  22073788.684    22073795.314
       238.000         194.000
  22421993.786     8671266.89549   6760238.37247  22421993.607    22421999.124
       236.000         191.000
  24225342.456    -2716470.33749  -2102841.76345  24225341.715    24225350.034
       213.000         150.000
 02  1 21  4 57  0.0000000  0  9G18G17G15G 3G 6G26G21G23G22
  20448534.724   -13807619.95449 -10742957.13448  20448534.144    20448538.416
       242.000         215.000
  20841887.376    -7391249.95849  -5753076.47047  20841886.672    20841891.957
       245.000         210.000
  20598164.086   -12134915.38649  -9445143.81047  20598163.168    20598168.843
       246.000         212.000
  23473185.296    -8534079.12849  -6392904.92246  23473185.132    23473192.027
       222.000         168.000
  22393719.117     9742414.00949   7633930.02346  22393718.501    22393725.072
       228.000         178.000
  22478335.341    -3205285.16249  -2489556.72646  22478335.312    22478340.968
       227.000         175.000
  22065817.166   -18064471.39349 -13398517.80747  22065816.633    22065822.890
       238.000         195.000
  22435181.947     8740571.15749   6814241.67947  22435181.777    22435187.565
       236.000         191.000
  24235136.383    -2665002.77249  -2062737.18645  24235136.354    24235143.383
       212.000         148.000
 02  1 21  4 57 30.0000000  0  9G18G17G15G 3G 6G26G21G23G22
  20450127.988   -13799247.29449 -10736432.96748  20450127.391    20450131.665
       242.000         215.000
  20841925.875    -7391047.22449  -5752918.49347  20841925.195    20841930.497
       245.000         210.000
  20594627.325   -12153500.84549  -9459625.96847  20594626.337    20594631.947
       246.000         212.000
  23456416.258    -8622200.93849  -6461571.20846  23456416.661    23456422.076
       224.000         167.000
  22411950.750     9838221.35249   7708585.03746  22411951.369    22411957.005
       228.000         178.000
  22491819.551    -3134425.24349  -2434341.21946  22491819.887    22491824.859
       227.000         175.000
  22057894.420   -18106105.49249 -13430959.93047  22057893.598    22057900.579
       238.000         195.000
  22448384.548     8809951.35049   6868304.15147  22448384.217    22448389.739
       236.000         191.000
  24244980.340    -2613271.99149  -2022427.49845  24244979.200    24244988.107
       212.000         147.000
 02  1 21  4 58  0.0000000  0  9G18G17G15G 3G 6G26G21G23G22
  20451787.255   -13790527.34249 -10729638.18648  20451786.893    20451791.061
       242.000         215.000
  20842004.626    -7390633.29949  -5752595.95447  20842003.831    20842009.618
       245.000         210.000
  20591130.777   -12171875.16249  -9473943.60247  20591129.857    20591135.719
       246.000         212.000
  23439700.508    -8710043.15649  -6530019.60146  23439699.993    23439706.239
       223.000         169.000
  22430236.306     9934312.05449   7783460.84446  22430236.011    22430242.441
       227.000         178.000
  22505398.612    -3063066.91149  -2378737.33546  22505398.717    22505404.401
       227.000         176.000
  22050020.913   -18147481.13349 -13463200.65847  22050020.299    22050026.908
       238.000         195.000
  22461601.292     8879405.62949   6922424.34847  22461600.867    22461606.800
       236.000         191.000
  24254873.833    -2561281.02049  -1981915.10045  24254873.011    24254880.479
       211.000         147.000
 02  1 21  4 58 30.0000000  0 10G18G17G15G14G 3G 6G26G21G23G22
  20453512.471   -13781461.35849 -10722573.77148  20453512.258    20453516.449
       243.000         215.000
  20842123.791    -7390006.98049  -5752107.90747  20842123.148    20842128.757
       245.000         210.000
  20587674.590   -12190037.11449  -9488095.75447  20587673.730    20587679.414
       246.000         212.000
  24673920.880    -3878638.66449  -2722281.12245  24673918.202    24673929.622
       206.000         139.000
  23423038.364    -8797603.17649  -6598248.11646  23423037.918    23423044.485
       222.000         168.000
  22448575.288    10030684.05149   7858555.84246  22448575.005    22448581.051
       227.000         177.000
  22519071.993    -2991212.51349  -2322746.91246  22519071.291    22519077.835
       227.000         176.000
  22042196.397   -18188598.76849 -13495240.34447  22042195.506    22042202.128
       238.000         195.000
  22474831.832     8948932.53849   6976601.14447  22474830.888    22474836.760
       236.000         191.000
  24264816.361    -2509032.53249  -1941202.00145  24264815.628    24264823.164
       213.000         147.000
 02  1 21  4 59  0.0000000  0 10G18G17G15G14G 3G 6G26G21G23G22
  20455302.070   -13772057.44149 -10715246.03148  20455301.749    20455305.893
       243.000         216.000
  20842282.361    -7389173.79749  -5751458.66647  20842281.469    20842287.487
       245.000         210.000
  20584257.795   -12207992.44849  -9502086.90147  20584256.935    20584262.656
       246.000         212.000
  24652364.447    -3991915.48849  -2810547.93845  24652362.375    24652372.757
       205.000         139.000
  23406429.083    -8884884.85549  -6666259.72646  23406427.917    23406435.543
       221.000         167.000
  22466966.125    10127328.38649   7933863.05446  22466965.144    22466972.432
       226.000         177.000
  22532837.982    -2918871.13149  -2266377.02146  22532837.881    22532844.485
       225.000         175.000
  22034419.631   -18229465.97049 -13527084.88947  22034419.009    22034425.310
       238.000         195.000
  22488074.671     9018524.03349   7030828.26147  22488074.250    22488080.025
       235.000         190.000
  24274806.247    -2456535.56649  -1900295.30145  24274805.942    24274813.643
       212.000         147.000
 02  1 21  4 59 30.0000000  0 10G18G17G15G14G 3G 6G26G21G23G22
  20457157.622   -13762306.52849 -10707647.90548  20457157.255    20457161.390
       243.000         216.000
  20842482.319    -7388122.61849  -5750639.55747  20842481.610    20842487.382
       245.000         210.000
  20580882.404   -12225730.10049  -9515908.43148  20580881.662    20580887.385
       246.000         213.000
  24630808.978    -4105187.60549  -2898811.08745  24630805.858    24630816.939
       206.000         138.000
  23389875.194    -8971875.54449  -6734044.62346  23389874.517    23389881.922
       220.000         166.000
  22485410.241    10224252.88149   8009388.55846  22485410.444    22485417.172
       225.000         176.000
  22546698.237    -2846035.20449  -2209621.77446  22546698.845    22546704.406
       225.000         174.000
  22026692.438   -18270072.85649 -13558726.58447  22026691.859    22026698.512
       238.000         195.000
  22501331.414     9088188.70149   7085112.39747  22501330.623    22501336.679
       234.000         190.000
  24284844.678    -2403782.89849  -1859189.35145  24284844.102    24284852.212
       212.000         146.000
 02  1 21  5  0  0.0000000  0 10G18G17G15G14G 3G 6G26G21G23G22
  20459078.666   -13752211.34749 -10699781.52048  20459078.235    20459082.375
       243.000         216.000
  20842723.753    -7386853.80149  -5749650.86047  20842723.003    20842728.937
       245.000         210.000
  20577548.461   -12243250.29549  -9529560.51048  20577547.730    20577553.463
       247.000         213.000
  24609254.437    -4218453.67949  -2987069.55345  24609251.080    24609263.821
       206.000         139.000
  23373376.915    -9058574.31849  -6801602.03146  23373375.769    23373382.894
       218.000         165.000
  22503906.964    10321453.92049   8085129.56046  22503906.829    22503913.318
       225.000         175.000
  22560651.771    -2772708.69149  -2152484.24046  22560651.396    22560657.789
       226.000         174.000
  22019014.349   -18310421.07149 -13590166.71547  22019013.754    22019020.230
       238.000         195.000
  22514601.481     9157923.55049   7139451.22247  22514600.396    22514606.730
       234.000         189.000
  24294931.122    -2350778.44649  -1817887.19345  24294930.140    24294937.098
       213.000         146.000
 02  1 21  5  0 30.0000000  0 10G18G17G15G14G 3G 6G26G21G23G22
  20461064.827   -13741774.13249 -10691648.61548  20461064.300    20461068.634
       243.000         216.000
  20843006.626    -7385367.06349  -5748492.36047  20843005.797    20843011.806
       245.000         210.000
  20574255.915   -12260552.92149  -9543043.06148  20574255.050    20574260.754
       247.000         213.000
  24587701.470    -4331711.95649  -3075321.94745  24587699.330    24587710.291
       208.000         139.000
  23356934.386    -9144979.49949  -6868930.67846  23356933.441    23356940.886
       219.000         164.000
  22522455.788    10418928.36049   8161083.59846  22522455.978    22522462.155
       226.000         175.000
  22574698.120    -2698894.90949  -2094967.02846  22574697.872    22574703.976
       226.000         173.000
  22011385.330   -18350511.43649 -13621405.91447  22011384.456    22011391.327
       237.000         195.000
  22527884.475     9227726.37749   7193843.01247  22527883.930    22527889.676
       234.000         189.000
  24305064.746    -2297525.80449  -1776391.65345  24305064.564    24305071.535
       212.000         145.000
 02  1 21  5  1  0.0000000  0 10G18G17G15G14G 3G 6G26G21G23G22
  20463115.678   -13730996.97949 -10683250.82148  20463115.180    20463119.358
       243.000         216.000
  20843331.018    -7383662.11949  -5747163.82647  20843330.203    20843336.260
       245.000         210.000
  20571004.728   -12277637.98449  -9556356.08248  20571003.740    20571009.457
       246.000         213.000
  24566150.484    -4444960.73849  -3163566.98645  24566147.550    24566158.770
       208.000         140.000
  23340548.060    -9231089.20549  -6936029.07346  23340547.415    23340553.994
       218.000         163.000
  22541056.007    10516673.00649   8237248.18246  22541055.852    22541061.903
       225.000         174.000
  22588836.551    -2624597.16749  -2037072.69646  22588836.594    22588841.432
       225.000         173.000
  22003804.957   -18390346.15549 -13652445.92247  22003804.353    22003810.913
       238.000         196.000
  22541180.002     9297594.81749   7248285.94147  22541179.396    22541185.532
       234.000         189.000
  24315244.974    -2244028.46249  -1734705.44445  24315243.207    24315252.091
       212.000         145.000
 02  1 21  5  1 30.0000000  0 11G18G17G15G14G 3G 6G26G21G29G23G22
  20465229.766   -13719887.08649 -10674593.74448  20465229.197    20465233.551
       243.000         216.000
  20843696.052    -7381743.71249  -5745668.95947  20843695.500    20843701.420
       245.000         210.000
  20567794.008   -12294509.94049  -9569503.05348  20567793.023    20567798.777
       246.000         213.000
  24544600.684    -4558202.93949  -3251806.90045  24544598.258    24544608.304
       206.000         138.000
  23324217.381    -9316906.32449  -7002899.48845  23324217.120    23324224.198
       218.000         162.000
  22559706.130    10614679.82949   8313617.05446  22559705.731    22559713.552
       224.000         174.000
  22603065.425    -2549823.72749  -1978807.69246  22603065.044    22603070.874
       225.000         172.000
  21996272.121   -18429931.32449 -13683291.46947  21996271.438    21996277.626
       239.000         196.000
  24415943.368    -3271280.79049  -2534169.22845  24415940.796    24415951.921
       209.000         139.000
  22554486.626     9367521.79849   7302774.47747  22554486.074    22554492.061
       233.000         188.000
  24325470.206    -2190294.76649  -1692835.06745  24325469.998    24325477.546
       212.000         146.000
